<?xml version="1.0" encoding="UTF-8" standalone="yes"?>
<gpx
 xmlns="http://www.topografix.com/GPX/1/1"
 creator="OziExplorer Version 3956f - http://www.oziexplorer.com"
 version="1.1"
 xmlns:xsi="http://www.w3.org/2001/XMLSchema-instance"
 xsi:schemaLocation="http://www.topografix.com/GPX/1/1 http://www.topografix.com/GPX/1/1/gpx.xsd">
<metadata>
 <time>2024-01-03T10:43:03Z</time>
 <bounds minlat="30.583220" minlon="34.709390" maxlat="30.665210" maxlon="34.822050"/>
</metadata>
<wpt lat="30.6134100" lon="34.8034000">
 <time>2024-01-03T12:42:17.562Z</time>
 <name>St./Fin.</name>
 <sym>Bike Trail</sym>
</wpt>
<wpt lat="30.6062700" lon="34.8044100">
 <time>2024-01-03T12:42:17.596Z</time>
 <name>Mirpeset</name>
 <sym>Flag, Red</sym>
</wpt>
<wpt lat="30.6017000" lon="34.7918700">
 <time>2024-01-03T12:42:17.598Z</time>
 <name>Tatspit1</name>
 <sym>Flag, Red</sym>
</wpt>
<wpt lat="30.6016300" lon="34.7908200">
 <time>2024-01-03T12:42:17.608Z</time>
 <name>Tatspit2</name>
 <sym>Flag, Red</sym>
</wpt>
<wpt lat="30.5998400" lon="34.7804700">
 <time>2024-01-03T12:42:17.615Z</time>
 <name>Tatspit3</name>
 <sym>Flag, Red</sym>
</wpt>
<wpt lat="30.5838100" lon="34.7259900">
 <time>2024-01-03T12:42:17.617Z</time>
 <name>Tatspit5</name>
 <sym>Flag, Red</sym>
</wpt>
<wpt lat="30.5832300" lon="34.7228200">
 <time>2024-01-03T12:42:17.625Z</time>
 <name>Tatspit6</name>
 <sym>Flag, Red</sym>
</wpt>
<wpt lat="30.5935800" lon="34.7099000">
 <time>2024-01-03T12:42:17.631Z</time>
 <name>BorHamat</name>
 <sym>Flag, Red</sym>
</wpt>
<wpt lat="30.6652100" lon="34.8108800">
 <time>2024-01-03T12:42:17.633Z</time>
 <name>BorHaKsinim+Andatra</name>
 <sym>Flag, Red</sym>
</wpt>
<wpt lat="30.6163500" lon="34.8087100">
 <time>2024-01-03T12:42:17.634Z</time>
 <name>Tatspit7_Balkon</name>
 <sym>Flag, Red</sym>
</wpt>
<wpt lat="30.5972200" lon="34.7722900">
 <time>2024-01-03T12:42:17.635Z</time>
 <name>Tatspit4</name>
 <sym>Flag, Red</sym>
</wpt>
<trk>
 <name>MitspeRamon_sin. 44km.530m.gpx</name>
 <desc>MitspeRamon_sin. 44km.530m.gpx</desc>
<trkseg>
<trkpt lat="30.6134100" lon="34.8034000">
<ele>820.070007</ele>
<time>2024-01-03T12:42:17.635Z</time>
</trkpt>
<trkpt lat="30.6134100" lon="34.8032800">
<ele>821.490051</ele>
<time>2024-01-03T12:42:17.635Z</time>
</trkpt>
<trkpt lat="30.6132600" lon="34.8032900">
<ele>823.250000</ele>
<time>2024-01-03T12:42:17.635Z</time>
</trkpt>
<trkpt lat="30.6132200" lon="34.8032900">
<ele>823.589966</ele>
<time>2024-01-03T12:42:17.635Z</time>
</trkpt>
<trkpt lat="30.6131900" lon="34.8033000">
<ele>823.779968</ele>
<time>2024-01-03T12:42:17.635Z</time>
</trkpt>
<trkpt lat="30.6131700" lon="34.8033200">
<ele>823.840027</ele>
<time>2024-01-03T12:42:17.635Z</time>
</trkpt>
<trkpt lat="30.6131500" lon="34.8033300">
<ele>824.000000</ele>
<time>2024-01-03T12:42:17.635Z</time>
</trkpt>
<trkpt lat="30.6131300" lon="34.8033300">
<ele>824.210022</ele>
<time>2024-01-03T12:42:17.635Z</time>
</trkpt>
<trkpt lat="30.6131100" lon="34.8033300">
<ele>824.419983</ele>
<time>2024-01-03T12:42:17.635Z</time>
</trkpt>
<trkpt lat="30.6130800" lon="34.8033200">
<ele>824.750000</ele>
<time>2024-01-03T12:42:17.635Z</time>
</trkpt>
<trkpt lat="30.6130300" lon="34.8032800">
<ele>824.979980</ele>
<time>2024-01-03T12:42:17.635Z</time>
</trkpt>
<trkpt lat="30.6130000" lon="34.8033400">
<ele>825.049988</ele>
<time>2024-01-03T12:42:17.635Z</time>
</trkpt>
<trkpt lat="30.6129700" lon="34.8033900">
<ele>825.469971</ele>
<time>2024-01-03T12:42:17.635Z</time>
</trkpt>
<trkpt lat="30.6129400" lon="34.8034000">
<ele>825.579956</ele>
<time>2024-01-03T12:42:17.635Z</time>
</trkpt>
<trkpt lat="30.6129000" lon="34.8034000">
<ele>825.610046</ele>
<time>2024-01-03T12:42:17.635Z</time>
</trkpt>
<trkpt lat="30.6128000" lon="34.8033400">
<ele>825.070007</ele>
<time>2024-01-03T12:42:17.635Z</time>
</trkpt>
<trkpt lat="30.6127700" lon="34.8033800">
<ele>825.529968</ele>
<time>2024-01-03T12:42:17.635Z</time>
</trkpt>
<trkpt lat="30.6127000" lon="34.8034500">
<ele>826.539978</ele>
<time>2024-01-03T12:42:17.635Z</time>
</trkpt>
<trkpt lat="30.6126100" lon="34.8035400">
<ele>827.840027</ele>
<time>2024-01-03T12:42:17.635Z</time>
</trkpt>
<trkpt lat="30.6126000" lon="34.8035500">
<ele>827.979980</ele>
<time>2024-01-03T12:42:17.635Z</time>
</trkpt>
<trkpt lat="30.6126200" lon="34.8035800">
<ele>828.229980</ele>
<time>2024-01-03T12:42:17.635Z</time>
</trkpt>
<trkpt lat="30.6126900" lon="34.8036200">
<ele>828.390015</ele>
<time>2024-01-03T12:42:17.635Z</time>
</trkpt>
<trkpt lat="30.6125400" lon="34.8036900">
<ele>829.669983</ele>
<time>2024-01-03T12:42:17.635Z</time>
</trkpt>
<trkpt lat="30.6125400" lon="34.8037000">
<ele>829.770020</ele>
<time>2024-01-03T12:42:17.635Z</time>
</trkpt>
<trkpt lat="30.6124800" lon="34.8038900">
<ele>831.780029</ele>
<time>2024-01-03T12:42:17.635Z</time>
</trkpt>
<trkpt lat="30.6123100" lon="34.8038900">
<ele>829.939941</ele>
<time>2024-01-03T12:42:17.635Z</time>
</trkpt>
<trkpt lat="30.6123000" lon="34.8038900">
<ele>829.840027</ele>
<time>2024-01-03T12:42:17.635Z</time>
</trkpt>
<trkpt lat="30.6121800" lon="34.8039500">
<ele>829.070007</ele>
<time>2024-01-03T12:42:17.635Z</time>
</trkpt>
<trkpt lat="30.6121200" lon="34.8039700">
<ele>829.270020</ele>
<time>2024-01-03T12:42:17.635Z</time>
</trkpt>
<trkpt lat="30.6119700" lon="34.8040100">
<ele>829.309998</ele>
<time>2024-01-03T12:42:17.635Z</time>
</trkpt>
<trkpt lat="30.6118900" lon="34.8040700">
<ele>828.799988</ele>
<time>2024-01-03T12:42:17.635Z</time>
</trkpt>
<trkpt lat="30.6118100" lon="34.8041600">
<ele>828.520020</ele>
<time>2024-01-03T12:42:17.635Z</time>
</trkpt>
<trkpt lat="30.6117500" lon="34.8042100">
<ele>828.700012</ele>
<time>2024-01-03T12:42:17.635Z</time>
</trkpt>
<trkpt lat="30.6116600" lon="34.8042800">
<ele>828.619995</ele>
<time>2024-01-03T12:42:17.635Z</time>
</trkpt>
<trkpt lat="30.6114700" lon="34.8043500">
<ele>829.619995</ele>
<time>2024-01-03T12:42:17.635Z</time>
</trkpt>
<trkpt lat="30.6112700" lon="34.8043100">
<ele>831.820007</ele>
<time>2024-01-03T12:42:17.635Z</time>
</trkpt>
<trkpt lat="30.6111800" lon="34.8043500">
<ele>832.179993</ele>
<time>2024-01-03T12:42:17.635Z</time>
</trkpt>
<trkpt lat="30.6111600" lon="34.8043700">
<ele>832.179993</ele>
<time>2024-01-03T12:42:17.635Z</time>
</trkpt>
<trkpt lat="30.6108400" lon="34.8046800">
<ele>830.960022</ele>
<time>2024-01-03T12:42:17.635Z</time>
</trkpt>
<trkpt lat="30.6108100" lon="34.8047200">
<ele>831.080017</ele>
<time>2024-01-03T12:42:17.635Z</time>
</trkpt>
<trkpt lat="30.6107800" lon="34.8046900">
<ele>831.190002</ele>
<time>2024-01-03T12:42:17.635Z</time>
</trkpt>
<trkpt lat="30.6106700" lon="34.8046300">
<ele>831.590027</ele>
<time>2024-01-03T12:42:17.635Z</time>
</trkpt>
<trkpt lat="30.6104200" lon="34.8045400">
<ele>833.299988</ele>
<time>2024-01-03T12:42:17.635Z</time>
</trkpt>
<trkpt lat="30.6095900" lon="34.8042100">
<ele>842.789978</ele>
<time>2024-01-03T12:42:17.635Z</time>
</trkpt>
<trkpt lat="30.6095300" lon="34.8041600">
<ele>845.140015</ele>
<time>2024-01-03T12:42:17.635Z</time>
</trkpt>
<trkpt lat="30.6093700" lon="34.8040500">
<ele>846.109985</ele>
<time>2024-01-03T12:42:17.635Z</time>
</trkpt>
<trkpt lat="30.6092000" lon="34.8039100">
<ele>846.789978</ele>
<time>2024-01-03T12:42:17.635Z</time>
</trkpt>
<trkpt lat="30.6087600" lon="34.8033400">
<ele>849.840027</ele>
<time>2024-01-03T12:42:17.635Z</time>
</trkpt>
<trkpt lat="30.6084800" lon="34.8029800">
<ele>850.330017</ele>
<time>2024-01-03T12:42:17.635Z</time>
</trkpt>
<trkpt lat="30.6082800" lon="34.8027300">
<ele>848.770020</ele>
<time>2024-01-03T12:42:17.635Z</time>
</trkpt>
<trkpt lat="30.6082100" lon="34.8027900">
<ele>848.730042</ele>
<time>2024-01-03T12:42:17.635Z</time>
</trkpt>
<trkpt lat="30.6080000" lon="34.8029500">
<ele>850.359985</ele>
<time>2024-01-03T12:42:17.635Z</time>
</trkpt>
<trkpt lat="30.6074000" lon="34.8034100">
<ele>853.980042</ele>
<time>2024-01-03T12:42:17.635Z</time>
</trkpt>
<trkpt lat="30.6071100" lon="34.8036200">
<ele>854.129944</ele>
<time>2024-01-03T12:42:17.635Z</time>
</trkpt>
<trkpt lat="30.6068700" lon="34.8038200">
<ele>852.169983</ele>
<time>2024-01-03T12:42:17.635Z</time>
</trkpt>
<trkpt lat="30.6067600" lon="34.8038800">
<ele>853.010010</ele>
<time>2024-01-03T12:42:17.635Z</time>
</trkpt>
<trkpt lat="30.6066600" lon="34.8039700">
<ele>855.000000</ele>
<time>2024-01-03T12:42:17.635Z</time>
</trkpt>
<trkpt lat="30.6065800" lon="34.8040500">
<ele>856.839966</ele>
<time>2024-01-03T12:42:17.635Z</time>
</trkpt>
<trkpt lat="30.6064200" lon="34.8041900">
<ele>857.350037</ele>
<time>2024-01-03T12:42:17.635Z</time>
</trkpt>
<trkpt lat="30.6063000" lon="34.8043700">
<ele>853.560059</ele>
<time>2024-01-03T12:42:17.635Z</time>
</trkpt>
<trkpt lat="30.6061100" lon="34.8042000">
<ele>854.979980</ele>
<time>2024-01-03T12:42:17.635Z</time>
</trkpt>
<trkpt lat="30.6060200" lon="34.8039600">
<ele>855.429993</ele>
<time>2024-01-03T12:42:17.635Z</time>
</trkpt>
<trkpt lat="30.6059600" lon="34.8038900">
<ele>854.729980</ele>
<time>2024-01-03T12:42:17.635Z</time>
</trkpt>
<trkpt lat="30.6058100" lon="34.8038400">
<ele>851.869995</ele>
<time>2024-01-03T12:42:17.635Z</time>
</trkpt>
<trkpt lat="30.6057800" lon="34.8037600">
<ele>852.089966</ele>
<time>2024-01-03T12:42:17.635Z</time>
</trkpt>
<trkpt lat="30.6057100" lon="34.8036900">
<ele>849.589966</ele>
<time>2024-01-03T12:42:17.635Z</time>
</trkpt>
<trkpt lat="30.6056300" lon="34.8033600">
<ele>855.890015</ele>
<time>2024-01-03T12:42:17.635Z</time>
</trkpt>
<trkpt lat="30.6055200" lon="34.8032200">
<ele>856.630005</ele>
<time>2024-01-03T12:42:17.635Z</time>
</trkpt>
<trkpt lat="30.6053800" lon="34.8031300">
<ele>853.399963</ele>
<time>2024-01-03T12:42:17.635Z</time>
</trkpt>
<trkpt lat="30.6053200" lon="34.8029500">
<ele>856.369995</ele>
<time>2024-01-03T12:42:17.635Z</time>
</trkpt>
<trkpt lat="30.6053600" lon="34.8027300">
<ele>862.210022</ele>
<time>2024-01-03T12:42:17.635Z</time>
</trkpt>
<trkpt lat="30.6053900" lon="34.8026600">
<ele>863.539978</ele>
<time>2024-01-03T12:42:17.635Z</time>
</trkpt>
<trkpt lat="30.6054200" lon="34.8025200">
<ele>865.280029</ele>
<time>2024-01-03T12:42:17.635Z</time>
</trkpt>
<trkpt lat="30.6054600" lon="34.8022100">
<ele>863.850037</ele>
<time>2024-01-03T12:42:17.635Z</time>
</trkpt>
<trkpt lat="30.6056700" lon="34.8020300">
<ele>855.409973</ele>
<time>2024-01-03T12:42:17.635Z</time>
</trkpt>
<trkpt lat="30.6051900" lon="34.8011700">
<ele>858.290039</ele>
<time>2024-01-03T12:42:17.635Z</time>
</trkpt>
<trkpt lat="30.6050800" lon="34.8009900">
<ele>854.840027</ele>
<time>2024-01-03T12:42:17.635Z</time>
</trkpt>
<trkpt lat="30.6049500" lon="34.8008300">
<ele>851.279968</ele>
<time>2024-01-03T12:42:17.635Z</time>
</trkpt>
<trkpt lat="30.6049200" lon="34.8008000">
<ele>850.809998</ele>
<time>2024-01-03T12:42:17.635Z</time>
</trkpt>
<trkpt lat="30.6048600" lon="34.8007500">
<ele>849.830017</ele>
<time>2024-01-03T12:42:17.635Z</time>
</trkpt>
<trkpt lat="30.6048300" lon="34.8007200">
<ele>849.299988</ele>
<time>2024-01-03T12:42:17.635Z</time>
</trkpt>
<trkpt lat="30.6047000" lon="34.8007400">
<ele>847.419983</ele>
<time>2024-01-03T12:42:17.635Z</time>
</trkpt>
<trkpt lat="30.6046300" lon="34.8007700">
<ele>846.780029</ele>
<time>2024-01-03T12:42:17.635Z</time>
</trkpt>
<trkpt lat="30.6045600" lon="34.8008100">
<ele>846.159973</ele>
<time>2024-01-03T12:42:17.635Z</time>
</trkpt>
<trkpt lat="30.6043600" lon="34.8008300">
<ele>844.090027</ele>
<time>2024-01-03T12:42:17.635Z</time>
</trkpt>
<trkpt lat="30.6042500" lon="34.8008700">
<ele>843.120056</ele>
<time>2024-01-03T12:42:17.635Z</time>
</trkpt>
<trkpt lat="30.6041600" lon="34.8008600">
<ele>842.130005</ele>
<time>2024-01-03T12:42:17.635Z</time>
</trkpt>
<trkpt lat="30.6039900" lon="34.8007400">
<ele>842.250000</ele>
<time>2024-01-03T12:42:17.635Z</time>
</trkpt>
<trkpt lat="30.6037700" lon="34.8005900">
<ele>848.309998</ele>
<time>2024-01-03T12:42:17.635Z</time>
</trkpt>
<trkpt lat="30.6036400" lon="34.8004900">
<ele>852.719971</ele>
<time>2024-01-03T12:42:17.635Z</time>
</trkpt>
<trkpt lat="30.6036000" lon="34.8004300">
<ele>853.919983</ele>
<time>2024-01-03T12:42:17.635Z</time>
</trkpt>
<trkpt lat="30.6035600" lon="34.8002700">
<ele>855.250000</ele>
<time>2024-01-03T12:42:17.635Z</time>
</trkpt>
<trkpt lat="30.6035100" lon="34.8000200">
<ele>857.900024</ele>
<time>2024-01-03T12:42:17.635Z</time>
</trkpt>
<trkpt lat="30.6034600" lon="34.7997800">
<ele>858.479980</ele>
<time>2024-01-03T12:42:17.635Z</time>
</trkpt>
<trkpt lat="30.6033500" lon="34.7995400">
<ele>863.480042</ele>
<time>2024-01-03T12:42:17.635Z</time>
</trkpt>
<trkpt lat="30.6030700" lon="34.7990100">
<ele>861.940002</ele>
<time>2024-01-03T12:42:17.635Z</time>
</trkpt>
<trkpt lat="30.6030600" lon="34.7989900">
<ele>861.979980</ele>
<time>2024-01-03T12:42:17.635Z</time>
</trkpt>
<trkpt lat="30.6030300" lon="34.7989000">
<ele>859.960022</ele>
<time>2024-01-03T12:42:17.635Z</time>
</trkpt>
<trkpt lat="30.6030900" lon="34.7985300">
<ele>861.719971</ele>
<time>2024-01-03T12:42:17.635Z</time>
</trkpt>
<trkpt lat="30.6030800" lon="34.7984000">
<ele>861.760010</ele>
<time>2024-01-03T12:42:17.635Z</time>
</trkpt>
<trkpt lat="30.6029600" lon="34.7982500">
<ele>858.239990</ele>
<time>2024-01-03T12:42:17.635Z</time>
</trkpt>
<trkpt lat="30.6028300" lon="34.7980500">
<ele>856.000000</ele>
<time>2024-01-03T12:42:17.635Z</time>
</trkpt>
<trkpt lat="30.6027400" lon="34.7977400">
<ele>857.660034</ele>
<time>2024-01-03T12:42:17.635Z</time>
</trkpt>
<trkpt lat="30.6027100" lon="34.7973900">
<ele>860.419983</ele>
<time>2024-01-03T12:42:17.635Z</time>
</trkpt>
<trkpt lat="30.6027500" lon="34.7972700">
<ele>862.689941</ele>
<time>2024-01-03T12:42:17.635Z</time>
</trkpt>
<trkpt lat="30.6027800" lon="34.7972100">
<ele>864.059998</ele>
<time>2024-01-03T12:42:17.635Z</time>
</trkpt>
<trkpt lat="30.6027200" lon="34.7970900">
<ele>862.960022</ele>
<time>2024-01-03T12:42:17.635Z</time>
</trkpt>
<trkpt lat="30.6025600" lon="34.7967600">
<ele>861.580017</ele>
<time>2024-01-03T12:42:17.635Z</time>
</trkpt>
<trkpt lat="30.6024900" lon="34.7964500">
<ele>859.359985</ele>
<time>2024-01-03T12:42:17.635Z</time>
</trkpt>
<trkpt lat="30.6024800" lon="34.7964100">
<ele>858.400024</ele>
<time>2024-01-03T12:42:17.635Z</time>
</trkpt>
<trkpt lat="30.6025000" lon="34.7961900">
<ele>857.140015</ele>
<time>2024-01-03T12:42:17.635Z</time>
</trkpt>
<trkpt lat="30.6025400" lon="34.7960900">
<ele>856.049988</ele>
<time>2024-01-03T12:42:17.635Z</time>
</trkpt>
<trkpt lat="30.6026500" lon="34.7960300">
<ele>856.269958</ele>
<time>2024-01-03T12:42:17.635Z</time>
</trkpt>
<trkpt lat="30.6027400" lon="34.7959800">
<ele>856.560059</ele>
<time>2024-01-03T12:42:17.635Z</time>
</trkpt>
<trkpt lat="30.6028500" lon="34.7959400">
<ele>856.300049</ele>
<time>2024-01-03T12:42:17.635Z</time>
</trkpt>
<trkpt lat="30.6030300" lon="34.7959300">
<ele>856.090027</ele>
<time>2024-01-03T12:42:17.635Z</time>
</trkpt>
<trkpt lat="30.6032200" lon="34.7959800">
<ele>855.950012</ele>
<time>2024-01-03T12:42:17.635Z</time>
</trkpt>
<trkpt lat="30.6031000" lon="34.7957900">
<ele>852.940002</ele>
<time>2024-01-03T12:42:17.635Z</time>
</trkpt>
<trkpt lat="30.6029500" lon="34.7957000">
<ele>851.599976</ele>
<time>2024-01-03T12:42:17.635Z</time>
</trkpt>
<trkpt lat="30.6027900" lon="34.7956800">
<ele>851.240051</ele>
<time>2024-01-03T12:42:17.635Z</time>
</trkpt>
<trkpt lat="30.6026800" lon="34.7956300">
<ele>848.320007</ele>
<time>2024-01-03T12:42:17.635Z</time>
</trkpt>
<trkpt lat="30.6026200" lon="34.7954900">
<ele>844.880005</ele>
<time>2024-01-03T12:42:17.635Z</time>
</trkpt>
<trkpt lat="30.6026600" lon="34.7953500">
<ele>844.239990</ele>
<time>2024-01-03T12:42:17.635Z</time>
</trkpt>
<trkpt lat="30.6026900" lon="34.7952200">
<ele>843.529968</ele>
<time>2024-01-03T12:42:17.635Z</time>
</trkpt>
<trkpt lat="30.6028400" lon="34.7950100">
<ele>841.679993</ele>
<time>2024-01-03T12:42:17.635Z</time>
</trkpt>
<trkpt lat="30.6028400" lon="34.7947500">
<ele>839.750000</ele>
<time>2024-01-03T12:42:17.635Z</time>
</trkpt>
<trkpt lat="30.6027600" lon="34.7946600">
<ele>840.760010</ele>
<time>2024-01-03T12:42:17.635Z</time>
</trkpt>
<trkpt lat="30.6025400" lon="34.7945600">
<ele>841.960022</ele>
<time>2024-01-03T12:42:17.635Z</time>
</trkpt>
<trkpt lat="30.6025400" lon="34.7945000">
<ele>842.059998</ele>
<time>2024-01-03T12:42:17.635Z</time>
</trkpt>
<trkpt lat="30.6023600" lon="34.7944300">
<ele>842.660034</ele>
<time>2024-01-03T12:42:17.635Z</time>
</trkpt>
<trkpt lat="30.6023200" lon="34.7943800">
<ele>843.410034</ele>
<time>2024-01-03T12:42:17.635Z</time>
</trkpt>
<trkpt lat="30.6023200" lon="34.7942800">
<ele>844.599976</ele>
<time>2024-01-03T12:42:17.635Z</time>
</trkpt>
<trkpt lat="30.6023900" lon="34.7939700">
<ele>845.349976</ele>
<time>2024-01-03T12:42:17.635Z</time>
</trkpt>
<trkpt lat="30.6024000" lon="34.7937600">
<ele>846.230042</ele>
<time>2024-01-03T12:42:17.635Z</time>
</trkpt>
<trkpt lat="30.6023500" lon="34.7936200">
<ele>846.930054</ele>
<time>2024-01-03T12:42:17.635Z</time>
</trkpt>
<trkpt lat="30.6023400" lon="34.7935800">
<ele>847.079956</ele>
<time>2024-01-03T12:42:17.635Z</time>
</trkpt>
<trkpt lat="30.6022600" lon="34.7934500">
<ele>846.739990</ele>
<time>2024-01-03T12:42:17.635Z</time>
</trkpt>
<trkpt lat="30.6022100" lon="34.7933800">
<ele>846.260010</ele>
<time>2024-01-03T12:42:17.635Z</time>
</trkpt>
<trkpt lat="30.6021800" lon="34.7933400">
<ele>846.460022</ele>
<time>2024-01-03T12:42:17.635Z</time>
</trkpt>
<trkpt lat="30.6020600" lon="34.7931400">
<ele>849.260010</ele>
<time>2024-01-03T12:42:17.635Z</time>
</trkpt>
<trkpt lat="30.6020000" lon="34.7929400">
<ele>850.419983</ele>
<time>2024-01-03T12:42:17.635Z</time>
</trkpt>
<trkpt lat="30.6019800" lon="34.7929000">
<ele>850.460022</ele>
<time>2024-01-03T12:42:17.635Z</time>
</trkpt>
<trkpt lat="30.6018900" lon="34.7927300">
<ele>845.450012</ele>
<time>2024-01-03T12:42:17.635Z</time>
</trkpt>
<trkpt lat="30.6018100" lon="34.7924800">
<ele>841.440002</ele>
<time>2024-01-03T12:42:17.635Z</time>
</trkpt>
<trkpt lat="30.6018100" lon="34.7922100">
<ele>844.280029</ele>
<time>2024-01-03T12:42:17.635Z</time>
</trkpt>
<trkpt lat="30.6017500" lon="34.7918800">
<ele>844.669983</ele>
<time>2024-01-03T12:42:17.635Z</time>
</trkpt>
<trkpt lat="30.6016500" lon="34.7909700">
<ele>850.729980</ele>
<time>2024-01-03T12:42:17.635Z</time>
</trkpt>
<trkpt lat="30.6016300" lon="34.7908300">
<ele>848.859985</ele>
<time>2024-01-03T12:42:17.635Z</time>
</trkpt>
<trkpt lat="30.6016500" lon="34.7909700">
<ele>850.729980</ele>
<time>2024-01-03T12:42:17.635Z</time>
</trkpt>
<trkpt lat="30.6017500" lon="34.7918800">
<ele>844.669983</ele>
<time>2024-01-03T12:42:17.635Z</time>
</trkpt>
<trkpt lat="30.6018100" lon="34.7922100">
<ele>844.280029</ele>
<time>2024-01-03T12:42:17.635Z</time>
</trkpt>
<trkpt lat="30.6018100" lon="34.7924800">
<ele>841.440002</ele>
<time>2024-01-03T12:42:17.635Z</time>
</trkpt>
<trkpt lat="30.6018900" lon="34.7927300">
<ele>845.450012</ele>
<time>2024-01-03T12:42:17.635Z</time>
</trkpt>
<trkpt lat="30.6019800" lon="34.7929000">
<ele>850.460022</ele>
<time>2024-01-03T12:42:17.635Z</time>
</trkpt>
<trkpt lat="30.6020000" lon="34.7929400">
<ele>850.419983</ele>
<time>2024-01-03T12:42:17.635Z</time>
</trkpt>
<trkpt lat="30.6020500" lon="34.7928000">
<ele>849.309998</ele>
<time>2024-01-03T12:42:17.635Z</time>
</trkpt>
<trkpt lat="30.6021900" lon="34.7927000">
<ele>848.909973</ele>
<time>2024-01-03T12:42:17.635Z</time>
</trkpt>
<trkpt lat="30.6022100" lon="34.7926600">
<ele>849.269958</ele>
<time>2024-01-03T12:42:17.635Z</time>
</trkpt>
<trkpt lat="30.6022900" lon="34.7925300">
<ele>850.729980</ele>
<time>2024-01-03T12:42:17.635Z</time>
</trkpt>
<trkpt lat="30.6022900" lon="34.7925200">
<ele>850.820007</ele>
<time>2024-01-03T12:42:17.635Z</time>
</trkpt>
<trkpt lat="30.6023500" lon="34.7924100">
<ele>850.880005</ele>
<time>2024-01-03T12:42:17.635Z</time>
</trkpt>
<trkpt lat="30.6025900" lon="34.7920400">
<ele>849.869995</ele>
<time>2024-01-03T12:42:17.635Z</time>
</trkpt>
<trkpt lat="30.6026900" lon="34.7916600">
<ele>853.000000</ele>
<time>2024-01-03T12:42:17.635Z</time>
</trkpt>
<trkpt lat="30.6027100" lon="34.7916300">
<ele>853.000000</ele>
<time>2024-01-03T12:42:17.635Z</time>
</trkpt>
<trkpt lat="30.6027100" lon="34.7915600">
<ele>853.000000</ele>
<time>2024-01-03T12:42:17.635Z</time>
</trkpt>
<trkpt lat="30.6028400" lon="34.7914200">
<ele>853.670044</ele>
<time>2024-01-03T12:42:17.635Z</time>
</trkpt>
<trkpt lat="30.6029800" lon="34.7912800">
<ele>854.290039</ele>
<time>2024-01-03T12:42:17.635Z</time>
</trkpt>
<trkpt lat="30.6030500" lon="34.7911300">
<ele>854.059998</ele>
<time>2024-01-03T12:42:17.635Z</time>
</trkpt>
<trkpt lat="30.6031700" lon="34.7908000">
<ele>852.360046</ele>
<time>2024-01-03T12:42:17.635Z</time>
</trkpt>
<trkpt lat="30.6033000" lon="34.7905200">
<ele>851.049988</ele>
<time>2024-01-03T12:42:17.635Z</time>
</trkpt>
<trkpt lat="30.6034900" lon="34.7902600">
<ele>847.270020</ele>
<time>2024-01-03T12:42:17.635Z</time>
</trkpt>
<trkpt lat="30.6036200" lon="34.7900900">
<ele>844.809998</ele>
<time>2024-01-03T12:42:17.635Z</time>
</trkpt>
<trkpt lat="30.6037500" lon="34.7900000">
<ele>846.000000</ele>
<time>2024-01-03T12:42:17.635Z</time>
</trkpt>
<trkpt lat="30.6039900" lon="34.7896700">
<ele>845.489990</ele>
<time>2024-01-03T12:42:17.635Z</time>
</trkpt>
<trkpt lat="30.6042900" lon="34.7892200">
<ele>844.440002</ele>
<time>2024-01-03T12:42:17.635Z</time>
</trkpt>
<trkpt lat="30.6044000" lon="34.7891100">
<ele>843.529968</ele>
<time>2024-01-03T12:42:17.635Z</time>
</trkpt>
<trkpt lat="30.6046800" lon="34.7887400">
<ele>841.150024</ele>
<time>2024-01-03T12:42:17.635Z</time>
</trkpt>
<trkpt lat="30.6049900" lon="34.7882300">
<ele>844.300049</ele>
<time>2024-01-03T12:42:17.635Z</time>
</trkpt>
<trkpt lat="30.6051200" lon="34.7879600">
<ele>841.510010</ele>
<time>2024-01-03T12:42:17.635Z</time>
</trkpt>
<trkpt lat="30.6052600" lon="34.7876700">
<ele>838.149963</ele>
<time>2024-01-03T12:42:17.635Z</time>
</trkpt>
<trkpt lat="30.6052600" lon="34.7876500">
<ele>837.720032</ele>
<time>2024-01-03T12:42:17.635Z</time>
</trkpt>
<trkpt lat="30.6052900" lon="34.7875800">
<ele>836.849976</ele>
<time>2024-01-03T12:42:17.635Z</time>
</trkpt>
<trkpt lat="30.6052900" lon="34.7875700">
<ele>836.630005</ele>
<time>2024-01-03T12:42:17.635Z</time>
</trkpt>
<trkpt lat="30.6052900" lon="34.7875800">
<ele>836.849976</ele>
<time>2024-01-03T12:42:17.635Z</time>
</trkpt>
<trkpt lat="30.6052600" lon="34.7876500">
<ele>837.720032</ele>
<time>2024-01-03T12:42:17.635Z</time>
</trkpt>
<trkpt lat="30.6053300" lon="34.7873900">
<ele>833.570007</ele>
<time>2024-01-03T12:42:17.635Z</time>
</trkpt>
<trkpt lat="30.6054400" lon="34.7872400">
<ele>830.780029</ele>
<time>2024-01-03T12:42:17.635Z</time>
</trkpt>
<trkpt lat="30.6055000" lon="34.7870800">
<ele>829.380005</ele>
<time>2024-01-03T12:42:17.635Z</time>
</trkpt>
<trkpt lat="30.6056300" lon="34.7869300">
<ele>828.900024</ele>
<time>2024-01-03T12:42:17.635Z</time>
</trkpt>
<trkpt lat="30.6059100" lon="34.7867600">
<ele>830.010010</ele>
<time>2024-01-03T12:42:17.635Z</time>
</trkpt>
<trkpt lat="30.6061100" lon="34.7867300">
<ele>828.549988</ele>
<time>2024-01-03T12:42:17.635Z</time>
</trkpt>
<trkpt lat="30.6063200" lon="34.7867800">
<ele>827.429993</ele>
<time>2024-01-03T12:42:17.635Z</time>
</trkpt>
<trkpt lat="30.6064200" lon="34.7867800">
<ele>827.570007</ele>
<time>2024-01-03T12:42:17.635Z</time>
</trkpt>
<trkpt lat="30.6065900" lon="34.7867200">
<ele>829.929993</ele>
<time>2024-01-03T12:42:17.635Z</time>
</trkpt>
<trkpt lat="30.6068500" lon="34.7866900">
<ele>830.860046</ele>
<time>2024-01-03T12:42:17.635Z</time>
</trkpt>
<trkpt lat="30.6068900" lon="34.7865800">
<ele>831.059998</ele>
<time>2024-01-03T12:42:17.635Z</time>
</trkpt>
<trkpt lat="30.6068200" lon="34.7864200">
<ele>831.399963</ele>
<time>2024-01-03T12:42:17.635Z</time>
</trkpt>
<trkpt lat="30.6066200" lon="34.7863200">
<ele>833.369995</ele>
<time>2024-01-03T12:42:17.635Z</time>
</trkpt>
<trkpt lat="30.6063100" lon="34.7860100">
<ele>841.099976</ele>
<time>2024-01-03T12:42:17.635Z</time>
</trkpt>
<trkpt lat="30.6061100" lon="34.7857900">
<ele>844.000000</ele>
<time>2024-01-03T12:42:17.635Z</time>
</trkpt>
<trkpt lat="30.6058500" lon="34.7850900">
<ele>840.009949</ele>
<time>2024-01-03T12:42:17.635Z</time>
</trkpt>
<trkpt lat="30.6055900" lon="34.7847500">
<ele>833.119995</ele>
<time>2024-01-03T12:42:17.635Z</time>
</trkpt>
<trkpt lat="30.6054900" lon="34.7839700">
<ele>841.150024</ele>
<time>2024-01-03T12:42:17.635Z</time>
</trkpt>
<trkpt lat="30.6054500" lon="34.7838000">
<ele>842.580017</ele>
<time>2024-01-03T12:42:17.635Z</time>
</trkpt>
<trkpt lat="30.6053300" lon="34.7836500">
<ele>842.539978</ele>
<time>2024-01-03T12:42:17.635Z</time>
</trkpt>
<trkpt lat="30.6050700" lon="34.7835500">
<ele>839.250000</ele>
<time>2024-01-03T12:42:17.635Z</time>
</trkpt>
<trkpt lat="30.6047400" lon="34.7836300">
<ele>839.799988</ele>
<time>2024-01-03T12:42:17.635Z</time>
</trkpt>
<trkpt lat="30.6044800" lon="34.7835900">
<ele>845.349976</ele>
<time>2024-01-03T12:42:17.635Z</time>
</trkpt>
<trkpt lat="30.6042300" lon="34.7834400">
<ele>847.390015</ele>
<time>2024-01-03T12:42:17.635Z</time>
</trkpt>
<trkpt lat="30.6038700" lon="34.7833100">
<ele>846.650024</ele>
<time>2024-01-03T12:42:17.635Z</time>
</trkpt>
<trkpt lat="30.6036400" lon="34.7833200">
<ele>843.410034</ele>
<time>2024-01-03T12:42:17.635Z</time>
</trkpt>
<trkpt lat="30.6034800" lon="34.7833900">
<ele>841.989990</ele>
<time>2024-01-03T12:42:17.635Z</time>
</trkpt>
<trkpt lat="30.6035400" lon="34.7833400">
<ele>842.279968</ele>
<time>2024-01-03T12:42:17.635Z</time>
</trkpt>
<trkpt lat="30.6034800" lon="34.7833900">
<ele>841.989990</ele>
<time>2024-01-03T12:42:17.635Z</time>
</trkpt>
<trkpt lat="30.6033800" lon="34.7835200">
<ele>841.850037</ele>
<time>2024-01-03T12:42:17.635Z</time>
</trkpt>
<trkpt lat="30.6033000" lon="34.7834400">
<ele>840.570007</ele>
<time>2024-01-03T12:42:17.635Z</time>
</trkpt>
<trkpt lat="30.6032300" lon="34.7834900">
<ele>840.590027</ele>
<time>2024-01-03T12:42:17.635Z</time>
</trkpt>
<trkpt lat="30.6030700" lon="34.7835400">
<ele>840.299988</ele>
<time>2024-01-03T12:42:17.635Z</time>
</trkpt>
<trkpt lat="30.6028800" lon="34.7834700">
<ele>838.840027</ele>
<time>2024-01-03T12:42:17.635Z</time>
</trkpt>
<trkpt lat="30.6026400" lon="34.7832900">
<ele>840.289978</ele>
<time>2024-01-03T12:42:17.635Z</time>
</trkpt>
<trkpt lat="30.6024700" lon="34.7832200">
<ele>842.959961</ele>
<time>2024-01-03T12:42:17.635Z</time>
</trkpt>
<trkpt lat="30.6024700" lon="34.7832100">
<ele>842.950012</ele>
<time>2024-01-03T12:42:17.635Z</time>
</trkpt>
<trkpt lat="30.6024700" lon="34.7832200">
<ele>842.959961</ele>
<time>2024-01-03T12:42:17.635Z</time>
</trkpt>
<trkpt lat="30.6020500" lon="34.7832000">
<ele>840.159973</ele>
<time>2024-01-03T12:42:17.635Z</time>
</trkpt>
<trkpt lat="30.6019900" lon="34.7831200">
<ele>836.650024</ele>
<time>2024-01-03T12:42:17.635Z</time>
</trkpt>
<trkpt lat="30.6019800" lon="34.7829000">
<ele>829.959961</ele>
<time>2024-01-03T12:42:17.635Z</time>
</trkpt>
<trkpt lat="30.6021000" lon="34.7826600">
<ele>831.430054</ele>
<time>2024-01-03T12:42:17.635Z</time>
</trkpt>
<trkpt lat="30.6023000" lon="34.7825600">
<ele>839.270020</ele>
<time>2024-01-03T12:42:17.635Z</time>
</trkpt>
<trkpt lat="30.6024300" lon="34.7823500">
<ele>843.689941</ele>
<time>2024-01-03T12:42:17.635Z</time>
</trkpt>
<trkpt lat="30.6024700" lon="34.7821900">
<ele>844.629944</ele>
<time>2024-01-03T12:42:17.635Z</time>
</trkpt>
<trkpt lat="30.6025300" lon="34.7819300">
<ele>844.309998</ele>
<time>2024-01-03T12:42:17.635Z</time>
</trkpt>
<trkpt lat="30.6025700" lon="34.7818000">
<ele>843.570007</ele>
<time>2024-01-03T12:42:17.635Z</time>
</trkpt>
<trkpt lat="30.6025700" lon="34.7817500">
<ele>843.080017</ele>
<time>2024-01-03T12:42:17.635Z</time>
</trkpt>
<trkpt lat="30.6025600" lon="34.7817100">
<ele>842.630005</ele>
<time>2024-01-03T12:42:17.635Z</time>
</trkpt>
<trkpt lat="30.6025600" lon="34.7816800">
<ele>842.340027</ele>
<time>2024-01-03T12:42:17.635Z</time>
</trkpt>
<trkpt lat="30.6025100" lon="34.7816100">
<ele>842.840027</ele>
<time>2024-01-03T12:42:17.635Z</time>
</trkpt>
<trkpt lat="30.6024700" lon="34.7814300">
<ele>845.119995</ele>
<time>2024-01-03T12:42:17.635Z</time>
</trkpt>
<trkpt lat="30.6023700" lon="34.7812200">
<ele>846.700012</ele>
<time>2024-01-03T12:42:17.635Z</time>
</trkpt>
<trkpt lat="30.6023300" lon="34.7811500">
<ele>847.270020</ele>
<time>2024-01-03T12:42:17.635Z</time>
</trkpt>
<trkpt lat="30.6020800" lon="34.7808100">
<ele>853.720032</ele>
<time>2024-01-03T12:42:17.635Z</time>
</trkpt>
<trkpt lat="30.6019300" lon="34.7806600">
<ele>858.710022</ele>
<time>2024-01-03T12:42:17.635Z</time>
</trkpt>
<trkpt lat="30.6015700" lon="34.7804300">
<ele>865.750000</ele>
<time>2024-01-03T12:42:17.635Z</time>
</trkpt>
<trkpt lat="30.6015100" lon="34.7803700">
<ele>866.820007</ele>
<time>2024-01-03T12:42:17.635Z</time>
</trkpt>
<trkpt lat="30.6013600" lon="34.7803900">
<ele>865.930054</ele>
<time>2024-01-03T12:42:17.635Z</time>
</trkpt>
<trkpt lat="30.6013600" lon="34.7803800">
<ele>866.070007</ele>
<time>2024-01-03T12:42:17.635Z</time>
</trkpt>
<trkpt lat="30.6013600" lon="34.7803900">
<ele>865.930054</ele>
<time>2024-01-03T12:42:17.635Z</time>
</trkpt>
<trkpt lat="30.6012800" lon="34.7804000">
<ele>864.500000</ele>
<time>2024-01-03T12:42:17.635Z</time>
</trkpt>
<trkpt lat="30.6012200" lon="34.7804500">
<ele>862.709961</ele>
<time>2024-01-03T12:42:17.635Z</time>
</trkpt>
<trkpt lat="30.6011700" lon="34.7804900">
<ele>861.190002</ele>
<time>2024-01-03T12:42:17.635Z</time>
</trkpt>
<trkpt lat="30.6010400" lon="34.7805900">
<ele>859.739990</ele>
<time>2024-01-03T12:42:17.635Z</time>
</trkpt>
<trkpt lat="30.6009800" lon="34.7805800">
<ele>860.669983</ele>
<time>2024-01-03T12:42:17.635Z</time>
</trkpt>
<trkpt lat="30.6009200" lon="34.7805000">
<ele>862.200012</ele>
<time>2024-01-03T12:42:17.635Z</time>
</trkpt>
<trkpt lat="30.6008300" lon="34.7804900">
<ele>863.270020</ele>
<time>2024-01-03T12:42:17.635Z</time>
</trkpt>
<trkpt lat="30.6007400" lon="34.7804600">
<ele>864.239990</ele>
<time>2024-01-03T12:42:17.635Z</time>
</trkpt>
<trkpt lat="30.6005400" lon="34.7805300">
<ele>866.170044</ele>
<time>2024-01-03T12:42:17.635Z</time>
</trkpt>
<trkpt lat="30.6003700" lon="34.7805800">
<ele>868.000000</ele>
<time>2024-01-03T12:42:17.635Z</time>
</trkpt>
<trkpt lat="30.6001000" lon="34.7805300">
<ele>869.579956</ele>
<time>2024-01-03T12:42:17.635Z</time>
</trkpt>
<trkpt lat="30.5999500" lon="34.7805300">
<ele>869.070007</ele>
<time>2024-01-03T12:42:17.635Z</time>
</trkpt>
<trkpt lat="30.5999100" lon="34.7804700">
<ele>868.470032</ele>
<time>2024-01-03T12:42:17.635Z</time>
</trkpt>
<trkpt lat="30.5998900" lon="34.7804400">
<ele>868.260010</ele>
<time>2024-01-03T12:42:17.635Z</time>
</trkpt>
<trkpt lat="30.5998800" lon="34.7803300">
<ele>868.429993</ele>
<time>2024-01-03T12:42:17.635Z</time>
</trkpt>
<trkpt lat="30.5999600" lon="34.7802400">
<ele>868.580017</ele>
<time>2024-01-03T12:42:17.635Z</time>
</trkpt>
<trkpt lat="30.6000600" lon="34.7802500">
<ele>868.800049</ele>
<time>2024-01-03T12:42:17.635Z</time>
</trkpt>
<trkpt lat="30.6001900" lon="34.7802300">
<ele>868.659973</ele>
<time>2024-01-03T12:42:17.635Z</time>
</trkpt>
<trkpt lat="30.6003200" lon="34.7801800">
<ele>867.890015</ele>
<time>2024-01-03T12:42:17.635Z</time>
</trkpt>
<trkpt lat="30.6003900" lon="34.7800600">
<ele>866.539978</ele>
<time>2024-01-03T12:42:17.635Z</time>
</trkpt>
<trkpt lat="30.6003700" lon="34.7797800">
<ele>865.280029</ele>
<time>2024-01-03T12:42:17.635Z</time>
</trkpt>
<trkpt lat="30.6003400" lon="34.7795800">
<ele>865.440002</ele>
<time>2024-01-03T12:42:17.635Z</time>
</trkpt>
<trkpt lat="30.6003500" lon="34.7795800">
<ele>865.349976</ele>
<time>2024-01-03T12:42:17.635Z</time>
</trkpt>
<trkpt lat="30.6003500" lon="34.7795400">
<ele>865.390015</ele>
<time>2024-01-03T12:42:17.635Z</time>
</trkpt>
<trkpt lat="30.6003300" lon="34.7794200">
<ele>865.570007</ele>
<time>2024-01-03T12:42:17.635Z</time>
</trkpt>
<trkpt lat="30.6003100" lon="34.7792900">
<ele>865.340027</ele>
<time>2024-01-03T12:42:17.635Z</time>
</trkpt>
<trkpt lat="30.6002800" lon="34.7791800">
<ele>865.049988</ele>
<time>2024-01-03T12:42:17.635Z</time>
</trkpt>
<trkpt lat="30.6002600" lon="34.7790700">
<ele>864.019958</ele>
<time>2024-01-03T12:42:17.635Z</time>
</trkpt>
<trkpt lat="30.6002400" lon="34.7789600">
<ele>863.070007</ele>
<time>2024-01-03T12:42:17.635Z</time>
</trkpt>
<trkpt lat="30.6002000" lon="34.7788600">
<ele>862.689941</ele>
<time>2024-01-03T12:42:17.635Z</time>
</trkpt>
<trkpt lat="30.6001600" lon="34.7787600">
<ele>862.739990</ele>
<time>2024-01-03T12:42:17.635Z</time>
</trkpt>
<trkpt lat="30.6001300" lon="34.7786600">
<ele>862.819946</ele>
<time>2024-01-03T12:42:17.635Z</time>
</trkpt>
<trkpt lat="30.6001100" lon="34.7785900">
<ele>862.960022</ele>
<time>2024-01-03T12:42:17.635Z</time>
</trkpt>
<trkpt lat="30.6000700" lon="34.7784400">
<ele>863.429993</ele>
<time>2024-01-03T12:42:17.635Z</time>
</trkpt>
<trkpt lat="30.6001000" lon="34.7782500">
<ele>862.460022</ele>
<time>2024-01-03T12:42:17.635Z</time>
</trkpt>
<trkpt lat="30.6001500" lon="34.7781600">
<ele>860.829956</ele>
<time>2024-01-03T12:42:17.635Z</time>
</trkpt>
<trkpt lat="30.6002900" lon="34.7782100">
<ele>857.229980</ele>
<time>2024-01-03T12:42:17.635Z</time>
</trkpt>
<trkpt lat="30.6003700" lon="34.7782200">
<ele>858.109985</ele>
<time>2024-01-03T12:42:17.635Z</time>
</trkpt>
<trkpt lat="30.6004400" lon="34.7782200">
<ele>858.809998</ele>
<time>2024-01-03T12:42:17.635Z</time>
</trkpt>
<trkpt lat="30.6004600" lon="34.7782100">
<ele>858.860046</ele>
<time>2024-01-03T12:42:17.635Z</time>
</trkpt>
<trkpt lat="30.6004900" lon="34.7780900">
<ele>857.299988</ele>
<time>2024-01-03T12:42:17.635Z</time>
</trkpt>
<trkpt lat="30.6004800" lon="34.7776700">
<ele>848.489990</ele>
<time>2024-01-03T12:42:17.635Z</time>
</trkpt>
<trkpt lat="30.6005100" lon="34.7777000">
<ele>848.810059</ele>
<time>2024-01-03T12:42:17.635Z</time>
</trkpt>
<trkpt lat="30.6005200" lon="34.7777700">
<ele>850.220032</ele>
<time>2024-01-03T12:42:17.635Z</time>
</trkpt>
<trkpt lat="30.6005300" lon="34.7778300">
<ele>851.519958</ele>
<time>2024-01-03T12:42:17.635Z</time>
</trkpt>
<trkpt lat="30.6005900" lon="34.7778400">
<ele>852.419983</ele>
<time>2024-01-03T12:42:17.635Z</time>
</trkpt>
<trkpt lat="30.6006300" lon="34.7777400">
<ele>850.649963</ele>
<time>2024-01-03T12:42:17.635Z</time>
</trkpt>
<trkpt lat="30.6006000" lon="34.7776700">
<ele>848.380005</ele>
<time>2024-01-03T12:42:17.635Z</time>
</trkpt>
<trkpt lat="30.6006000" lon="34.7776100">
<ele>846.949951</ele>
<time>2024-01-03T12:42:17.635Z</time>
</trkpt>
<trkpt lat="30.6006300" lon="34.7776300">
<ele>847.850037</ele>
<time>2024-01-03T12:42:17.635Z</time>
</trkpt>
<trkpt lat="30.6006500" lon="34.7777400">
<ele>851.039978</ele>
<time>2024-01-03T12:42:17.635Z</time>
</trkpt>
<trkpt lat="30.6006900" lon="34.7777300">
<ele>851.539978</ele>
<time>2024-01-03T12:42:17.635Z</time>
</trkpt>
<trkpt lat="30.6007300" lon="34.7776900">
<ele>851.080017</ele>
<time>2024-01-03T12:42:17.635Z</time>
</trkpt>
<trkpt lat="30.6007100" lon="34.7776000">
<ele>848.070007</ele>
<time>2024-01-03T12:42:17.635Z</time>
</trkpt>
<trkpt lat="30.6006700" lon="34.7775100">
<ele>845.099976</ele>
<time>2024-01-03T12:42:17.635Z</time>
</trkpt>
<trkpt lat="30.6007300" lon="34.7775200">
<ele>845.869995</ele>
<time>2024-01-03T12:42:17.635Z</time>
</trkpt>
<trkpt lat="30.6007700" lon="34.7775500">
<ele>847.179993</ele>
<time>2024-01-03T12:42:17.635Z</time>
</trkpt>
<trkpt lat="30.6008500" lon="34.7775700">
<ele>849.059998</ele>
<time>2024-01-03T12:42:17.635Z</time>
</trkpt>
<trkpt lat="30.6009200" lon="34.7775400">
<ele>850.250000</ele>
<time>2024-01-03T12:42:17.635Z</time>
</trkpt>
<trkpt lat="30.6010200" lon="34.7774000">
<ele>848.929993</ele>
<time>2024-01-03T12:42:17.635Z</time>
</trkpt>
<trkpt lat="30.6010000" lon="34.7773900">
<ele>847.989990</ele>
<time>2024-01-03T12:42:17.635Z</time>
</trkpt>
<trkpt lat="30.6010800" lon="34.7773000">
<ele>847.590027</ele>
<time>2024-01-03T12:42:17.635Z</time>
</trkpt>
<trkpt lat="30.6011600" lon="34.7771800">
<ele>847.189941</ele>
<time>2024-01-03T12:42:17.635Z</time>
</trkpt>
<trkpt lat="30.6012500" lon="34.7770600">
<ele>847.330017</ele>
<time>2024-01-03T12:42:17.635Z</time>
</trkpt>
<trkpt lat="30.6013300" lon="34.7769300">
<ele>845.510010</ele>
<time>2024-01-03T12:42:17.635Z</time>
</trkpt>
<trkpt lat="30.6013900" lon="34.7768000">
<ele>844.440002</ele>
<time>2024-01-03T12:42:17.635Z</time>
</trkpt>
<trkpt lat="30.6014400" lon="34.7766700">
<ele>843.360046</ele>
<time>2024-01-03T12:42:17.635Z</time>
</trkpt>
<trkpt lat="30.6015000" lon="34.7765500">
<ele>842.530029</ele>
<time>2024-01-03T12:42:17.635Z</time>
</trkpt>
<trkpt lat="30.6015300" lon="34.7764100">
<ele>840.469971</ele>
<time>2024-01-03T12:42:17.635Z</time>
</trkpt>
<trkpt lat="30.6016100" lon="34.7763200">
<ele>840.989990</ele>
<time>2024-01-03T12:42:17.635Z</time>
</trkpt>
<trkpt lat="30.6016800" lon="34.7762100">
<ele>840.890015</ele>
<time>2024-01-03T12:42:17.635Z</time>
</trkpt>
<trkpt lat="30.6017500" lon="34.7761000">
<ele>841.640015</ele>
<time>2024-01-03T12:42:17.635Z</time>
</trkpt>
<trkpt lat="30.6018000" lon="34.7760000">
<ele>842.359985</ele>
<time>2024-01-03T12:42:17.635Z</time>
</trkpt>
<trkpt lat="30.6018600" lon="34.7759400">
<ele>843.120056</ele>
<time>2024-01-03T12:42:17.635Z</time>
</trkpt>
<trkpt lat="30.6018100" lon="34.7758600">
<ele>841.309998</ele>
<time>2024-01-03T12:42:17.635Z</time>
</trkpt>
<trkpt lat="30.6018100" lon="34.7757300">
<ele>840.130005</ele>
<time>2024-01-03T12:42:17.635Z</time>
</trkpt>
<trkpt lat="30.6018600" lon="34.7756900">
<ele>840.390015</ele>
<time>2024-01-03T12:42:17.635Z</time>
</trkpt>
<trkpt lat="30.6017900" lon="34.7756300">
<ele>838.989990</ele>
<time>2024-01-03T12:42:17.635Z</time>
</trkpt>
<trkpt lat="30.6016900" lon="34.7755800">
<ele>837.440002</ele>
<time>2024-01-03T12:42:17.635Z</time>
</trkpt>
<trkpt lat="30.6016500" lon="34.7754600">
<ele>837.320007</ele>
<time>2024-01-03T12:42:17.635Z</time>
</trkpt>
<trkpt lat="30.6016600" lon="34.7753200">
<ele>837.830017</ele>
<time>2024-01-03T12:42:17.635Z</time>
</trkpt>
<trkpt lat="30.6016600" lon="34.7752200">
<ele>838.809998</ele>
<time>2024-01-03T12:42:17.635Z</time>
</trkpt>
<trkpt lat="30.6016100" lon="34.7752000">
<ele>838.920044</ele>
<time>2024-01-03T12:42:17.635Z</time>
</trkpt>
<trkpt lat="30.6015200" lon="34.7752200">
<ele>838.299988</ele>
<time>2024-01-03T12:42:17.635Z</time>
</trkpt>
<trkpt lat="30.6014000" lon="34.7751900">
<ele>838.299988</ele>
<time>2024-01-03T12:42:17.635Z</time>
</trkpt>
<trkpt lat="30.6013000" lon="34.7751200">
<ele>839.869995</ele>
<time>2024-01-03T12:42:17.635Z</time>
</trkpt>
<trkpt lat="30.6012700" lon="34.7750100">
<ele>841.309998</ele>
<time>2024-01-03T12:42:17.635Z</time>
</trkpt>
<trkpt lat="30.6012600" lon="34.7748600">
<ele>843.009949</ele>
<time>2024-01-03T12:42:17.635Z</time>
</trkpt>
<trkpt lat="30.6011900" lon="34.7747500">
<ele>844.029968</ele>
<time>2024-01-03T12:42:17.635Z</time>
</trkpt>
<trkpt lat="30.6011500" lon="34.7746200">
<ele>844.460022</ele>
<time>2024-01-03T12:42:17.635Z</time>
</trkpt>
<trkpt lat="30.6011400" lon="34.7744600">
<ele>844.950012</ele>
<time>2024-01-03T12:42:17.635Z</time>
</trkpt>
<trkpt lat="30.6011300" lon="34.7743400">
<ele>846.100037</ele>
<time>2024-01-03T12:42:17.635Z</time>
</trkpt>
<trkpt lat="30.6011200" lon="34.7742300">
<ele>847.289978</ele>
<time>2024-01-03T12:42:17.635Z</time>
</trkpt>
<trkpt lat="30.6011100" lon="34.7741200">
<ele>847.830017</ele>
<time>2024-01-03T12:42:17.635Z</time>
</trkpt>
<trkpt lat="30.6010900" lon="34.7740100">
<ele>847.410034</ele>
<time>2024-01-03T12:42:17.635Z</time>
</trkpt>
<trkpt lat="30.6010700" lon="34.7738700">
<ele>847.280029</ele>
<time>2024-01-03T12:42:17.635Z</time>
</trkpt>
<trkpt lat="30.6010300" lon="34.7737600">
<ele>848.220032</ele>
<time>2024-01-03T12:42:17.635Z</time>
</trkpt>
<trkpt lat="30.6009500" lon="34.7736700">
<ele>849.159973</ele>
<time>2024-01-03T12:42:17.635Z</time>
</trkpt>
<trkpt lat="30.6008700" lon="34.7735800">
<ele>849.910034</ele>
<time>2024-01-03T12:42:17.635Z</time>
</trkpt>
<trkpt lat="30.6007800" lon="34.7735000">
<ele>848.849976</ele>
<time>2024-01-03T12:42:17.635Z</time>
</trkpt>
<trkpt lat="30.6006800" lon="34.7734300">
<ele>846.690002</ele>
<time>2024-01-03T12:42:17.635Z</time>
</trkpt>
<trkpt lat="30.6005900" lon="34.7733600">
<ele>844.740051</ele>
<time>2024-01-03T12:42:17.635Z</time>
</trkpt>
<trkpt lat="30.6005000" lon="34.7733000">
<ele>844.060059</ele>
<time>2024-01-03T12:42:17.635Z</time>
</trkpt>
<trkpt lat="30.6003900" lon="34.7732500">
<ele>844.179993</ele>
<time>2024-01-03T12:42:17.635Z</time>
</trkpt>
<trkpt lat="30.6002900" lon="34.7731900">
<ele>844.570007</ele>
<time>2024-01-03T12:42:17.635Z</time>
</trkpt>
<trkpt lat="30.6001800" lon="34.7731300">
<ele>846.059998</ele>
<time>2024-01-03T12:42:17.635Z</time>
</trkpt>
<trkpt lat="30.6000800" lon="34.7730600">
<ele>848.070007</ele>
<time>2024-01-03T12:42:17.635Z</time>
</trkpt>
<trkpt lat="30.5999700" lon="34.7730100">
<ele>850.179993</ele>
<time>2024-01-03T12:42:17.635Z</time>
</trkpt>
<trkpt lat="30.5998800" lon="34.7729600">
<ele>851.779968</ele>
<time>2024-01-03T12:42:17.635Z</time>
</trkpt>
<trkpt lat="30.5998000" lon="34.7729100">
<ele>853.209961</ele>
<time>2024-01-03T12:42:17.635Z</time>
</trkpt>
<trkpt lat="30.5997100" lon="34.7728700">
<ele>854.220032</ele>
<time>2024-01-03T12:42:17.635Z</time>
</trkpt>
<trkpt lat="30.5996200" lon="34.7728400">
<ele>853.859985</ele>
<time>2024-01-03T12:42:17.635Z</time>
</trkpt>
<trkpt lat="30.5995300" lon="34.7728100">
<ele>853.419983</ele>
<time>2024-01-03T12:42:17.635Z</time>
</trkpt>
<trkpt lat="30.5994300" lon="34.7727700">
<ele>852.880005</ele>
<time>2024-01-03T12:42:17.635Z</time>
</trkpt>
<trkpt lat="30.5993400" lon="34.7727400">
<ele>851.799988</ele>
<time>2024-01-03T12:42:17.635Z</time>
</trkpt>
<trkpt lat="30.5992300" lon="34.7727300">
<ele>850.000000</ele>
<time>2024-01-03T12:42:17.635Z</time>
</trkpt>
<trkpt lat="30.5991300" lon="34.7727100">
<ele>848.500000</ele>
<time>2024-01-03T12:42:17.635Z</time>
</trkpt>
<trkpt lat="30.5990200" lon="34.7727100">
<ele>846.320007</ele>
<time>2024-01-03T12:42:17.635Z</time>
</trkpt>
<trkpt lat="30.5989200" lon="34.7727100">
<ele>844.350037</ele>
<time>2024-01-03T12:42:17.635Z</time>
</trkpt>
<trkpt lat="30.5988200" lon="34.7727200">
<ele>843.320007</ele>
<time>2024-01-03T12:42:17.635Z</time>
</trkpt>
<trkpt lat="30.5987300" lon="34.7727300">
<ele>842.849976</ele>
<time>2024-01-03T12:42:17.635Z</time>
</trkpt>
<trkpt lat="30.5986300" lon="34.7727300">
<ele>842.420044</ele>
<time>2024-01-03T12:42:17.635Z</time>
</trkpt>
<trkpt lat="30.5985400" lon="34.7727100">
<ele>843.320007</ele>
<time>2024-01-03T12:42:17.635Z</time>
</trkpt>
<trkpt lat="30.5984500" lon="34.7726700">
<ele>844.740051</ele>
<time>2024-01-03T12:42:17.635Z</time>
</trkpt>
<trkpt lat="30.5983400" lon="34.7726200">
<ele>846.619995</ele>
<time>2024-01-03T12:42:17.635Z</time>
</trkpt>
<trkpt lat="30.5982300" lon="34.7725800">
<ele>849.100037</ele>
<time>2024-01-03T12:42:17.635Z</time>
</trkpt>
<trkpt lat="30.5981400" lon="34.7725300">
<ele>851.229980</ele>
<time>2024-01-03T12:42:17.635Z</time>
</trkpt>
<trkpt lat="30.5980500" lon="34.7724900">
<ele>853.179993</ele>
<time>2024-01-03T12:42:17.635Z</time>
</trkpt>
<trkpt lat="30.5979700" lon="34.7724400">
<ele>854.479980</ele>
<time>2024-01-03T12:42:17.635Z</time>
</trkpt>
<trkpt lat="30.5978900" lon="34.7723800">
<ele>855.140015</ele>
<time>2024-01-03T12:42:17.635Z</time>
</trkpt>
<trkpt lat="30.5978600" lon="34.7723600">
<ele>855.199951</ele>
<time>2024-01-03T12:42:17.635Z</time>
</trkpt>
<trkpt lat="30.5978300" lon="34.7723900">
<ele>855.509949</ele>
<time>2024-01-03T12:42:17.635Z</time>
</trkpt>
<trkpt lat="30.5977400" lon="34.7722800">
<ele>854.519958</ele>
<time>2024-01-03T12:42:17.635Z</time>
</trkpt>
<trkpt lat="30.5977100" lon="34.7722500">
<ele>854.080017</ele>
<time>2024-01-03T12:42:17.635Z</time>
</trkpt>
<trkpt lat="30.5977000" lon="34.7721900">
<ele>853.239990</ele>
<time>2024-01-03T12:42:17.635Z</time>
</trkpt>
<trkpt lat="30.5976800" lon="34.7722200">
<ele>853.619995</ele>
<time>2024-01-03T12:42:17.635Z</time>
</trkpt>
<trkpt lat="30.5973500" lon="34.7722500">
<ele>854.859985</ele>
<time>2024-01-03T12:42:17.635Z</time>
</trkpt>
<trkpt lat="30.5973000" lon="34.7722800">
<ele>855.539978</ele>
<time>2024-01-03T12:42:17.635Z</time>
</trkpt>
<trkpt lat="30.5972200" lon="34.7722900">
<ele>856.139954</ele>
<time>2024-01-03T12:42:17.635Z</time>
</trkpt>
<trkpt lat="30.5973000" lon="34.7722800">
<ele>855.539978</ele>
<time>2024-01-03T12:42:17.635Z</time>
</trkpt>
<trkpt lat="30.5973500" lon="34.7722500">
<ele>854.859985</ele>
<time>2024-01-03T12:42:17.635Z</time>
</trkpt>
<trkpt lat="30.5976800" lon="34.7722200">
<ele>853.619995</ele>
<time>2024-01-03T12:42:17.635Z</time>
</trkpt>
<trkpt lat="30.5977000" lon="34.7721900">
<ele>853.239990</ele>
<time>2024-01-03T12:42:17.635Z</time>
</trkpt>
<trkpt lat="30.5976900" lon="34.7721100">
<ele>852.050049</ele>
<time>2024-01-03T12:42:17.635Z</time>
</trkpt>
<trkpt lat="30.5977100" lon="34.7719500">
<ele>849.570007</ele>
<time>2024-01-03T12:42:17.635Z</time>
</trkpt>
<trkpt lat="30.5977400" lon="34.7717700">
<ele>849.639954</ele>
<time>2024-01-03T12:42:17.635Z</time>
</trkpt>
<trkpt lat="30.5976800" lon="34.7713000">
<ele>851.389954</ele>
<time>2024-01-03T12:42:17.635Z</time>
</trkpt>
<trkpt lat="30.5975900" lon="34.7706100">
<ele>850.359985</ele>
<time>2024-01-03T12:42:17.635Z</time>
</trkpt>
<trkpt lat="30.5976200" lon="34.7703100">
<ele>851.229980</ele>
<time>2024-01-03T12:42:17.635Z</time>
</trkpt>
<trkpt lat="30.5976500" lon="34.7702700">
<ele>851.619995</ele>
<time>2024-01-03T12:42:17.635Z</time>
</trkpt>
<trkpt lat="30.5977300" lon="34.7701300">
<ele>852.479980</ele>
<time>2024-01-03T12:42:17.635Z</time>
</trkpt>
<trkpt lat="30.5977000" lon="34.7700400">
<ele>852.160034</ele>
<time>2024-01-03T12:42:17.635Z</time>
</trkpt>
<trkpt lat="30.5976100" lon="34.7699900">
<ele>851.179993</ele>
<time>2024-01-03T12:42:17.635Z</time>
</trkpt>
<trkpt lat="30.5975400" lon="34.7699500">
<ele>850.529968</ele>
<time>2024-01-03T12:42:17.635Z</time>
</trkpt>
<trkpt lat="30.5975600" lon="34.7698800">
<ele>850.799988</ele>
<time>2024-01-03T12:42:17.635Z</time>
</trkpt>
<trkpt lat="30.5976300" lon="34.7698200">
<ele>851.140015</ele>
<time>2024-01-03T12:42:17.635Z</time>
</trkpt>
<trkpt lat="30.5977200" lon="34.7697500">
<ele>851.140015</ele>
<time>2024-01-03T12:42:17.635Z</time>
</trkpt>
<trkpt lat="30.5977900" lon="34.7696200">
<ele>850.350037</ele>
<time>2024-01-03T12:42:17.635Z</time>
</trkpt>
<trkpt lat="30.5979400" lon="34.7691300">
<ele>846.769958</ele>
<time>2024-01-03T12:42:17.635Z</time>
</trkpt>
<trkpt lat="30.5979700" lon="34.7690000">
<ele>845.580017</ele>
<time>2024-01-03T12:42:17.635Z</time>
</trkpt>
<trkpt lat="30.5980200" lon="34.7688100">
<ele>843.890015</ele>
<time>2024-01-03T12:42:17.635Z</time>
</trkpt>
<trkpt lat="30.5980600" lon="34.7686100">
<ele>842.180054</ele>
<time>2024-01-03T12:42:17.635Z</time>
</trkpt>
<trkpt lat="30.5980400" lon="34.7686000">
<ele>841.770020</ele>
<time>2024-01-03T12:42:17.635Z</time>
</trkpt>
<trkpt lat="30.5979700" lon="34.7686800">
<ele>842.130005</ele>
<time>2024-01-03T12:42:17.635Z</time>
</trkpt>
<trkpt lat="30.5979100" lon="34.7688100">
<ele>843.100037</ele>
<time>2024-01-03T12:42:17.635Z</time>
</trkpt>
<trkpt lat="30.5978600" lon="34.7688100">
<ele>842.739990</ele>
<time>2024-01-03T12:42:17.635Z</time>
</trkpt>
<trkpt lat="30.5978400" lon="34.7687000">
<ele>841.409973</ele>
<time>2024-01-03T12:42:17.635Z</time>
</trkpt>
<trkpt lat="30.5978400" lon="34.7686600">
<ele>840.980042</ele>
<time>2024-01-03T12:42:17.635Z</time>
</trkpt>
<trkpt lat="30.5978500" lon="34.7685300">
<ele>840.080017</ele>
<time>2024-01-03T12:42:17.635Z</time>
</trkpt>
<trkpt lat="30.5978200" lon="34.7683200">
<ele>838.940002</ele>
<time>2024-01-03T12:42:17.635Z</time>
</trkpt>
<trkpt lat="30.5979000" lon="34.7680700">
<ele>837.219971</ele>
<time>2024-01-03T12:42:17.635Z</time>
</trkpt>
<trkpt lat="30.5980000" lon="34.7678900">
<ele>834.850037</ele>
<time>2024-01-03T12:42:17.635Z</time>
</trkpt>
<trkpt lat="30.5981900" lon="34.7675800">
<ele>834.980042</ele>
<time>2024-01-03T12:42:17.635Z</time>
</trkpt>
<trkpt lat="30.5982900" lon="34.7675000">
<ele>835.000000</ele>
<time>2024-01-03T12:42:17.635Z</time>
</trkpt>
<trkpt lat="30.5983300" lon="34.7674900">
<ele>834.969971</ele>
<time>2024-01-03T12:42:17.635Z</time>
</trkpt>
<trkpt lat="30.5984000" lon="34.7671100">
<ele>834.109985</ele>
<time>2024-01-03T12:42:17.635Z</time>
</trkpt>
<trkpt lat="30.5986100" lon="34.7663400">
<ele>828.369995</ele>
<time>2024-01-03T12:42:17.635Z</time>
</trkpt>
<trkpt lat="30.5986500" lon="34.7660000">
<ele>829.320007</ele>
<time>2024-01-03T12:42:17.635Z</time>
</trkpt>
<trkpt lat="30.5986600" lon="34.7659400">
<ele>829.030029</ele>
<time>2024-01-03T12:42:17.635Z</time>
</trkpt>
<trkpt lat="30.5986500" lon="34.7658100">
<ele>829.169983</ele>
<time>2024-01-03T12:42:17.635Z</time>
</trkpt>
<trkpt lat="30.5986000" lon="34.7656700">
<ele>832.630005</ele>
<time>2024-01-03T12:42:17.635Z</time>
</trkpt>
<trkpt lat="30.5984700" lon="34.7655300">
<ele>837.080017</ele>
<time>2024-01-03T12:42:17.635Z</time>
</trkpt>
<trkpt lat="30.5983300" lon="34.7654300">
<ele>841.140015</ele>
<time>2024-01-03T12:42:17.635Z</time>
</trkpt>
<trkpt lat="30.5981600" lon="34.7653400">
<ele>841.359985</ele>
<time>2024-01-03T12:42:17.635Z</time>
</trkpt>
<trkpt lat="30.5981100" lon="34.7654800">
<ele>838.440002</ele>
<time>2024-01-03T12:42:17.635Z</time>
</trkpt>
<trkpt lat="30.5979900" lon="34.7654900">
<ele>836.650024</ele>
<time>2024-01-03T12:42:17.635Z</time>
</trkpt>
<trkpt lat="30.5979900" lon="34.7654500">
<ele>837.159973</ele>
<time>2024-01-03T12:42:17.635Z</time>
</trkpt>
<trkpt lat="30.5979900" lon="34.7654900">
<ele>836.650024</ele>
<time>2024-01-03T12:42:17.635Z</time>
</trkpt>
<trkpt lat="30.5978300" lon="34.7655000">
<ele>833.419983</ele>
<time>2024-01-03T12:42:17.635Z</time>
</trkpt>
<trkpt lat="30.5977500" lon="34.7655100">
<ele>832.140015</ele>
<time>2024-01-03T12:42:17.635Z</time>
</trkpt>
<trkpt lat="30.5974200" lon="34.7658300">
<ele>833.149963</ele>
<time>2024-01-03T12:42:17.635Z</time>
</trkpt>
<trkpt lat="30.5973800" lon="34.7659800">
<ele>833.940002</ele>
<time>2024-01-03T12:42:17.635Z</time>
</trkpt>
<trkpt lat="30.5973100" lon="34.7659600">
<ele>834.229980</ele>
<time>2024-01-03T12:42:17.635Z</time>
</trkpt>
<trkpt lat="30.5973900" lon="34.7656900">
<ele>833.780029</ele>
<time>2024-01-03T12:42:17.635Z</time>
</trkpt>
<trkpt lat="30.5973000" lon="34.7652100">
<ele>838.759949</ele>
<time>2024-01-03T12:42:17.635Z</time>
</trkpt>
<trkpt lat="30.5971800" lon="34.7651400">
<ele>841.989990</ele>
<time>2024-01-03T12:42:17.635Z</time>
</trkpt>
<trkpt lat="30.5970400" lon="34.7647700">
<ele>843.080017</ele>
<time>2024-01-03T12:42:17.635Z</time>
</trkpt>
<trkpt lat="30.5968600" lon="34.7647500">
<ele>843.919983</ele>
<time>2024-01-03T12:42:17.635Z</time>
</trkpt>
<trkpt lat="30.5965600" lon="34.7648600">
<ele>845.489990</ele>
<time>2024-01-03T12:42:17.635Z</time>
</trkpt>
<trkpt lat="30.5964900" lon="34.7647600">
<ele>844.610046</ele>
<time>2024-01-03T12:42:17.635Z</time>
</trkpt>
<trkpt lat="30.5965100" lon="34.7646300">
<ele>843.340027</ele>
<time>2024-01-03T12:42:17.635Z</time>
</trkpt>
<trkpt lat="30.5965300" lon="34.7645400">
<ele>842.699951</ele>
<time>2024-01-03T12:42:17.635Z</time>
</trkpt>
<trkpt lat="30.5966000" lon="34.7643200">
<ele>843.720032</ele>
<time>2024-01-03T12:42:17.635Z</time>
</trkpt>
<trkpt lat="30.5966300" lon="34.7640400">
<ele>846.239990</ele>
<time>2024-01-03T12:42:17.635Z</time>
</trkpt>
<trkpt lat="30.5965700" lon="34.7637800">
<ele>847.260010</ele>
<time>2024-01-03T12:42:17.635Z</time>
</trkpt>
<trkpt lat="30.5964400" lon="34.7635600">
<ele>846.399963</ele>
<time>2024-01-03T12:42:17.635Z</time>
</trkpt>
<trkpt lat="30.5963100" lon="34.7634600">
<ele>846.630005</ele>
<time>2024-01-03T12:42:17.635Z</time>
</trkpt>
<trkpt lat="30.5959300" lon="34.7634100">
<ele>849.670044</ele>
<time>2024-01-03T12:42:17.635Z</time>
</trkpt>
<trkpt lat="30.5959000" lon="34.7633300">
<ele>850.289978</ele>
<time>2024-01-03T12:42:17.635Z</time>
</trkpt>
<trkpt lat="30.5959100" lon="34.7631000">
<ele>850.720032</ele>
<time>2024-01-03T12:42:17.635Z</time>
</trkpt>
<trkpt lat="30.5958600" lon="34.7629100">
<ele>848.820007</ele>
<time>2024-01-03T12:42:17.635Z</time>
</trkpt>
<trkpt lat="30.5957800" lon="34.7626900">
<ele>846.500000</ele>
<time>2024-01-03T12:42:17.635Z</time>
</trkpt>
<trkpt lat="30.5955500" lon="34.7625300">
<ele>845.329956</ele>
<time>2024-01-03T12:42:17.635Z</time>
</trkpt>
<trkpt lat="30.5953400" lon="34.7624600">
<ele>844.570007</ele>
<time>2024-01-03T12:42:17.635Z</time>
</trkpt>
<trkpt lat="30.5948700" lon="34.7625200">
<ele>846.609985</ele>
<time>2024-01-03T12:42:17.635Z</time>
</trkpt>
<trkpt lat="30.5947400" lon="34.7625500">
<ele>847.770020</ele>
<time>2024-01-03T12:42:17.635Z</time>
</trkpt>
<trkpt lat="30.5946800" lon="34.7625600">
<ele>847.980042</ele>
<time>2024-01-03T12:42:17.635Z</time>
</trkpt>
<trkpt lat="30.5944900" lon="34.7624800">
<ele>844.859985</ele>
<time>2024-01-03T12:42:17.635Z</time>
</trkpt>
<trkpt lat="30.5943500" lon="34.7624400">
<ele>844.549988</ele>
<time>2024-01-03T12:42:17.635Z</time>
</trkpt>
<trkpt lat="30.5941600" lon="34.7625400">
<ele>846.570007</ele>
<time>2024-01-03T12:42:17.635Z</time>
</trkpt>
<trkpt lat="30.5939200" lon="34.7626100">
<ele>846.880005</ele>
<time>2024-01-03T12:42:17.635Z</time>
</trkpt>
<trkpt lat="30.5936700" lon="34.7626100">
<ele>844.280029</ele>
<time>2024-01-03T12:42:17.635Z</time>
</trkpt>
<trkpt lat="30.5934200" lon="34.7624900">
<ele>843.260010</ele>
<time>2024-01-03T12:42:17.635Z</time>
</trkpt>
<trkpt lat="30.5932400" lon="34.7623300">
<ele>839.160034</ele>
<time>2024-01-03T12:42:17.635Z</time>
</trkpt>
<trkpt lat="30.5930700" lon="34.7621300">
<ele>833.679993</ele>
<time>2024-01-03T12:42:17.635Z</time>
</trkpt>
<trkpt lat="30.5930800" lon="34.7621300">
<ele>833.919983</ele>
<time>2024-01-03T12:42:17.635Z</time>
</trkpt>
<trkpt lat="30.5930600" lon="34.7621000">
<ele>833.219971</ele>
<time>2024-01-03T12:42:17.635Z</time>
</trkpt>
<trkpt lat="30.5930400" lon="34.7620000">
<ele>832.119995</ele>
<time>2024-01-03T12:42:17.635Z</time>
</trkpt>
<trkpt lat="30.5930400" lon="34.7618800">
<ele>831.809998</ele>
<time>2024-01-03T12:42:17.635Z</time>
</trkpt>
<trkpt lat="30.5930300" lon="34.7617700">
<ele>831.809998</ele>
<time>2024-01-03T12:42:17.635Z</time>
</trkpt>
<trkpt lat="30.5930300" lon="34.7616500">
<ele>831.809998</ele>
<time>2024-01-03T12:42:17.635Z</time>
</trkpt>
<trkpt lat="30.5930200" lon="34.7615100">
<ele>831.029968</ele>
<time>2024-01-03T12:42:17.635Z</time>
</trkpt>
<trkpt lat="30.5930200" lon="34.7613800">
<ele>830.340027</ele>
<time>2024-01-03T12:42:17.635Z</time>
</trkpt>
<trkpt lat="30.5930300" lon="34.7612600">
<ele>829.680054</ele>
<time>2024-01-03T12:42:17.635Z</time>
</trkpt>
<trkpt lat="30.5930300" lon="34.7611300">
<ele>829.090027</ele>
<time>2024-01-03T12:42:17.635Z</time>
</trkpt>
<trkpt lat="30.5930400" lon="34.7610100">
<ele>830.030029</ele>
<time>2024-01-03T12:42:17.635Z</time>
</trkpt>
<trkpt lat="30.5930500" lon="34.7608900">
<ele>831.339966</ele>
<time>2024-01-03T12:42:17.635Z</time>
</trkpt>
<trkpt lat="30.5930500" lon="34.7607800">
<ele>832.320007</ele>
<time>2024-01-03T12:42:17.635Z</time>
</trkpt>
<trkpt lat="30.5930500" lon="34.7606400">
<ele>833.329956</ele>
<time>2024-01-03T12:42:17.635Z</time>
</trkpt>
<trkpt lat="30.5930500" lon="34.7605100">
<ele>834.109985</ele>
<time>2024-01-03T12:42:17.635Z</time>
</trkpt>
<trkpt lat="30.5930200" lon="34.7604000">
<ele>834.319946</ele>
<time>2024-01-03T12:42:17.635Z</time>
</trkpt>
<trkpt lat="30.5929600" lon="34.7603100">
<ele>834.460022</ele>
<time>2024-01-03T12:42:17.635Z</time>
</trkpt>
<trkpt lat="30.5929100" lon="34.7602200">
<ele>834.479980</ele>
<time>2024-01-03T12:42:17.635Z</time>
</trkpt>
<trkpt lat="30.5928600" lon="34.7601200">
<ele>834.300049</ele>
<time>2024-01-03T12:42:17.635Z</time>
</trkpt>
<trkpt lat="30.5928100" lon="34.7600300">
<ele>834.120056</ele>
<time>2024-01-03T12:42:17.635Z</time>
</trkpt>
<trkpt lat="30.5927500" lon="34.7599300">
<ele>834.269958</ele>
<time>2024-01-03T12:42:17.635Z</time>
</trkpt>
<trkpt lat="30.5926800" lon="34.7598200">
<ele>835.339966</ele>
<time>2024-01-03T12:42:17.635Z</time>
</trkpt>
<trkpt lat="30.5926000" lon="34.7597200">
<ele>836.799988</ele>
<time>2024-01-03T12:42:17.635Z</time>
</trkpt>
<trkpt lat="30.5925100" lon="34.7596400">
<ele>837.289978</ele>
<time>2024-01-03T12:42:17.635Z</time>
</trkpt>
<trkpt lat="30.5924400" lon="34.7595300">
<ele>835.869995</ele>
<time>2024-01-03T12:42:17.635Z</time>
</trkpt>
<trkpt lat="30.5924000" lon="34.7594200">
<ele>835.160034</ele>
<time>2024-01-03T12:42:17.635Z</time>
</trkpt>
<trkpt lat="30.5923700" lon="34.7592900">
<ele>834.390015</ele>
<time>2024-01-03T12:42:17.635Z</time>
</trkpt>
<trkpt lat="30.5923200" lon="34.7591800">
<ele>834.919983</ele>
<time>2024-01-03T12:42:17.635Z</time>
</trkpt>
<trkpt lat="30.5922900" lon="34.7590800">
<ele>835.640015</ele>
<time>2024-01-03T12:42:17.635Z</time>
</trkpt>
<trkpt lat="30.5922500" lon="34.7589800">
<ele>836.559998</ele>
<time>2024-01-03T12:42:17.635Z</time>
</trkpt>
<trkpt lat="30.5922100" lon="34.7588800">
<ele>836.979980</ele>
<time>2024-01-03T12:42:17.635Z</time>
</trkpt>
<trkpt lat="30.5921600" lon="34.7587800">
<ele>836.180054</ele>
<time>2024-01-03T12:42:17.635Z</time>
</trkpt>
<trkpt lat="30.5921000" lon="34.7586600">
<ele>834.700012</ele>
<time>2024-01-03T12:42:17.635Z</time>
</trkpt>
<trkpt lat="30.5920600" lon="34.7585600">
<ele>833.290039</ele>
<time>2024-01-03T12:42:17.635Z</time>
</trkpt>
<trkpt lat="30.5919800" lon="34.7584700">
<ele>831.040039</ele>
<time>2024-01-03T12:42:17.635Z</time>
</trkpt>
<trkpt lat="30.5918700" lon="34.7584200">
<ele>828.570007</ele>
<time>2024-01-03T12:42:17.635Z</time>
</trkpt>
<trkpt lat="30.5918300" lon="34.7583200">
<ele>826.320007</ele>
<time>2024-01-03T12:42:17.635Z</time>
</trkpt>
<trkpt lat="30.5918300" lon="34.7582100">
<ele>826.090027</ele>
<time>2024-01-03T12:42:17.635Z</time>
</trkpt>
<trkpt lat="30.5918300" lon="34.7580800">
<ele>825.820007</ele>
<time>2024-01-03T12:42:17.635Z</time>
</trkpt>
<trkpt lat="30.5918400" lon="34.7579500">
<ele>827.010010</ele>
<time>2024-01-03T12:42:17.635Z</time>
</trkpt>
<trkpt lat="30.5919100" lon="34.7578400">
<ele>828.960022</ele>
<time>2024-01-03T12:42:17.635Z</time>
</trkpt>
<trkpt lat="30.5919800" lon="34.7577600">
<ele>830.990051</ele>
<time>2024-01-03T12:42:17.635Z</time>
</trkpt>
<trkpt lat="30.5920300" lon="34.7576800">
<ele>833.219971</ele>
<time>2024-01-03T12:42:17.635Z</time>
</trkpt>
<trkpt lat="30.5920500" lon="34.7575500">
<ele>835.570007</ele>
<time>2024-01-03T12:42:17.635Z</time>
</trkpt>
<trkpt lat="30.5920500" lon="34.7574200">
<ele>836.840027</ele>
<time>2024-01-03T12:42:17.635Z</time>
</trkpt>
<trkpt lat="30.5920500" lon="34.7572900">
<ele>837.570007</ele>
<time>2024-01-03T12:42:17.635Z</time>
</trkpt>
<trkpt lat="30.5920300" lon="34.7571600">
<ele>838.710022</ele>
<time>2024-01-03T12:42:17.635Z</time>
</trkpt>
<trkpt lat="30.5919900" lon="34.7570300">
<ele>840.619995</ele>
<time>2024-01-03T12:42:17.635Z</time>
</trkpt>
<trkpt lat="30.5919300" lon="34.7568900">
<ele>842.160034</ele>
<time>2024-01-03T12:42:17.635Z</time>
</trkpt>
<trkpt lat="30.5918900" lon="34.7567900">
<ele>840.809998</ele>
<time>2024-01-03T12:42:17.635Z</time>
</trkpt>
<trkpt lat="30.5918600" lon="34.7566900">
<ele>840.100037</ele>
<time>2024-01-03T12:42:17.635Z</time>
</trkpt>
<trkpt lat="30.5918600" lon="34.7565700">
<ele>839.409973</ele>
<time>2024-01-03T12:42:17.635Z</time>
</trkpt>
<trkpt lat="30.5918600" lon="34.7564600">
<ele>838.740051</ele>
<time>2024-01-03T12:42:17.635Z</time>
</trkpt>
<trkpt lat="30.5918700" lon="34.7563400">
<ele>837.789978</ele>
<time>2024-01-03T12:42:17.635Z</time>
</trkpt>
<trkpt lat="30.5919000" lon="34.7562300">
<ele>836.539978</ele>
<time>2024-01-03T12:42:17.635Z</time>
</trkpt>
<trkpt lat="30.5919300" lon="34.7561400">
<ele>835.409973</ele>
<time>2024-01-03T12:42:17.635Z</time>
</trkpt>
<trkpt lat="30.5919900" lon="34.7560000">
<ele>833.609985</ele>
<time>2024-01-03T12:42:17.635Z</time>
</trkpt>
<trkpt lat="30.5920300" lon="34.7558600">
<ele>833.010010</ele>
<time>2024-01-03T12:42:17.635Z</time>
</trkpt>
<trkpt lat="30.5920700" lon="34.7557200">
<ele>834.109985</ele>
<time>2024-01-03T12:42:17.635Z</time>
</trkpt>
<trkpt lat="30.5921100" lon="34.7555800">
<ele>836.260010</ele>
<time>2024-01-03T12:42:17.635Z</time>
</trkpt>
<trkpt lat="30.5921300" lon="34.7554800">
<ele>836.459961</ele>
<time>2024-01-03T12:42:17.635Z</time>
</trkpt>
<trkpt lat="30.5921400" lon="34.7553300">
<ele>835.599976</ele>
<time>2024-01-03T12:42:17.635Z</time>
</trkpt>
<trkpt lat="30.5921500" lon="34.7551800">
<ele>833.679993</ele>
<time>2024-01-03T12:42:17.635Z</time>
</trkpt>
<trkpt lat="30.5921500" lon="34.7550800">
<ele>831.880005</ele>
<time>2024-01-03T12:42:17.635Z</time>
</trkpt>
<trkpt lat="30.5921600" lon="34.7549600">
<ele>830.109985</ele>
<time>2024-01-03T12:42:17.635Z</time>
</trkpt>
<trkpt lat="30.5921500" lon="34.7548300">
<ele>828.150024</ele>
<time>2024-01-03T12:42:17.635Z</time>
</trkpt>
<trkpt lat="30.5921500" lon="34.7547100">
<ele>826.519958</ele>
<time>2024-01-03T12:42:17.635Z</time>
</trkpt>
<trkpt lat="30.5921500" lon="34.7545700">
<ele>824.509949</ele>
<time>2024-01-03T12:42:17.635Z</time>
</trkpt>
<trkpt lat="30.5921300" lon="34.7544300">
<ele>822.200012</ele>
<time>2024-01-03T12:42:17.635Z</time>
</trkpt>
<trkpt lat="30.5921300" lon="34.7543200">
<ele>821.139954</ele>
<time>2024-01-03T12:42:17.635Z</time>
</trkpt>
<trkpt lat="30.5921200" lon="34.7542100">
<ele>819.940002</ele>
<time>2024-01-03T12:42:17.635Z</time>
</trkpt>
<trkpt lat="30.5921100" lon="34.7541000">
<ele>819.770020</ele>
<time>2024-01-03T12:42:17.635Z</time>
</trkpt>
<trkpt lat="30.5920800" lon="34.7539900">
<ele>819.900024</ele>
<time>2024-01-03T12:42:17.635Z</time>
</trkpt>
<trkpt lat="30.5920700" lon="34.7538800">
<ele>820.309937</ele>
<time>2024-01-03T12:42:17.635Z</time>
</trkpt>
<trkpt lat="30.5920400" lon="34.7537300">
<ele>820.489990</ele>
<time>2024-01-03T12:42:17.635Z</time>
</trkpt>
<trkpt lat="30.5920000" lon="34.7536000">
<ele>820.439941</ele>
<time>2024-01-03T12:42:17.635Z</time>
</trkpt>
<trkpt lat="30.5919600" lon="34.7534700">
<ele>822.380005</ele>
<time>2024-01-03T12:42:17.635Z</time>
</trkpt>
<trkpt lat="30.5919300" lon="34.7533400">
<ele>824.800049</ele>
<time>2024-01-03T12:42:17.635Z</time>
</trkpt>
<trkpt lat="30.5919100" lon="34.7532000">
<ele>827.030029</ele>
<time>2024-01-03T12:42:17.635Z</time>
</trkpt>
<trkpt lat="30.5918900" lon="34.7530700">
<ele>829.339966</ele>
<time>2024-01-03T12:42:17.635Z</time>
</trkpt>
<trkpt lat="30.5918600" lon="34.7529400">
<ele>831.159973</ele>
<time>2024-01-03T12:42:17.635Z</time>
</trkpt>
<trkpt lat="30.5918200" lon="34.7528300">
<ele>832.779968</ele>
<time>2024-01-03T12:42:17.635Z</time>
</trkpt>
<trkpt lat="30.5917900" lon="34.7527100">
<ele>833.149963</ele>
<time>2024-01-03T12:42:17.635Z</time>
</trkpt>
<trkpt lat="30.5917500" lon="34.7525900">
<ele>832.480042</ele>
<time>2024-01-03T12:42:17.635Z</time>
</trkpt>
<trkpt lat="30.5917100" lon="34.7524700">
<ele>831.720032</ele>
<time>2024-01-03T12:42:17.635Z</time>
</trkpt>
<trkpt lat="30.5916800" lon="34.7523500">
<ele>831.390015</ele>
<time>2024-01-03T12:42:17.635Z</time>
</trkpt>
<trkpt lat="30.5916400" lon="34.7522400">
<ele>831.859985</ele>
<time>2024-01-03T12:42:17.635Z</time>
</trkpt>
<trkpt lat="30.5916100" lon="34.7521300">
<ele>832.500061</ele>
<time>2024-01-03T12:42:17.635Z</time>
</trkpt>
<trkpt lat="30.5915600" lon="34.7520300">
<ele>833.539978</ele>
<time>2024-01-03T12:42:17.635Z</time>
</trkpt>
<trkpt lat="30.5915000" lon="34.7519200">
<ele>834.460022</ele>
<time>2024-01-03T12:42:17.635Z</time>
</trkpt>
<trkpt lat="30.5914700" lon="34.7517900">
<ele>834.000000</ele>
<time>2024-01-03T12:42:17.635Z</time>
</trkpt>
<trkpt lat="30.5914300" lon="34.7516900">
<ele>833.260010</ele>
<time>2024-01-03T12:42:17.635Z</time>
</trkpt>
<trkpt lat="30.5913500" lon="34.7516000">
<ele>832.630005</ele>
<time>2024-01-03T12:42:17.635Z</time>
</trkpt>
<trkpt lat="30.5912900" lon="34.7515200">
<ele>831.720032</ele>
<time>2024-01-03T12:42:17.635Z</time>
</trkpt>
<trkpt lat="30.5912600" lon="34.7514000">
<ele>830.260010</ele>
<time>2024-01-03T12:42:17.635Z</time>
</trkpt>
<trkpt lat="30.5912000" lon="34.7512800">
<ele>829.669983</ele>
<time>2024-01-03T12:42:17.635Z</time>
</trkpt>
<trkpt lat="30.5911400" lon="34.7511600">
<ele>829.240051</ele>
<time>2024-01-03T12:42:17.635Z</time>
</trkpt>
<trkpt lat="30.5911100" lon="34.7510600">
<ele>829.380005</ele>
<time>2024-01-03T12:42:17.635Z</time>
</trkpt>
<trkpt lat="30.5910800" lon="34.7509600">
<ele>830.369995</ele>
<time>2024-01-03T12:42:17.635Z</time>
</trkpt>
<trkpt lat="30.5910200" lon="34.7508500">
<ele>831.839966</ele>
<time>2024-01-03T12:42:17.635Z</time>
</trkpt>
<trkpt lat="30.5909600" lon="34.7507500">
<ele>833.830017</ele>
<time>2024-01-03T12:42:17.635Z</time>
</trkpt>
<trkpt lat="30.5909300" lon="34.7506100">
<ele>836.169983</ele>
<time>2024-01-03T12:42:17.635Z</time>
</trkpt>
<trkpt lat="30.5909000" lon="34.7505000">
<ele>837.729980</ele>
<time>2024-01-03T12:42:17.635Z</time>
</trkpt>
<trkpt lat="30.5908900" lon="34.7503900">
<ele>838.700012</ele>
<time>2024-01-03T12:42:17.635Z</time>
</trkpt>
<trkpt lat="30.5908500" lon="34.7502900">
<ele>839.789978</ele>
<time>2024-01-03T12:42:17.635Z</time>
</trkpt>
<trkpt lat="30.5908100" lon="34.7501800">
<ele>839.990051</ele>
<time>2024-01-03T12:42:17.635Z</time>
</trkpt>
<trkpt lat="30.5907500" lon="34.7500900">
<ele>840.830017</ele>
<time>2024-01-03T12:42:17.635Z</time>
</trkpt>
<trkpt lat="30.5906900" lon="34.7500000">
<ele>842.099976</ele>
<time>2024-01-03T12:42:17.635Z</time>
</trkpt>
<trkpt lat="30.5906300" lon="34.7499000">
<ele>844.539978</ele>
<time>2024-01-03T12:42:17.635Z</time>
</trkpt>
<trkpt lat="30.5905900" lon="34.7498000">
<ele>846.869995</ele>
<time>2024-01-03T12:42:17.635Z</time>
</trkpt>
<trkpt lat="30.5905300" lon="34.7497000">
<ele>849.010010</ele>
<time>2024-01-03T12:42:17.635Z</time>
</trkpt>
<trkpt lat="30.5904800" lon="34.7496000">
<ele>849.239990</ele>
<time>2024-01-03T12:42:17.635Z</time>
</trkpt>
<trkpt lat="30.5904100" lon="34.7495000">
<ele>849.840027</ele>
<time>2024-01-03T12:42:17.635Z</time>
</trkpt>
<trkpt lat="30.5903400" lon="34.7494200">
<ele>851.080017</ele>
<time>2024-01-03T12:42:17.635Z</time>
</trkpt>
<trkpt lat="30.5902600" lon="34.7493400">
<ele>853.289978</ele>
<time>2024-01-03T12:42:17.635Z</time>
</trkpt>
<trkpt lat="30.5901800" lon="34.7492600">
<ele>854.750000</ele>
<time>2024-01-03T12:42:17.635Z</time>
</trkpt>
<trkpt lat="30.5900800" lon="34.7492000">
<ele>855.199951</ele>
<time>2024-01-03T12:42:17.635Z</time>
</trkpt>
<trkpt lat="30.5899800" lon="34.7491500">
<ele>855.000000</ele>
<time>2024-01-03T12:42:17.635Z</time>
</trkpt>
<trkpt lat="30.5898800" lon="34.7491200">
<ele>853.889954</ele>
<time>2024-01-03T12:42:17.635Z</time>
</trkpt>
<trkpt lat="30.5897900" lon="34.7490800">
<ele>852.830017</ele>
<time>2024-01-03T12:42:17.635Z</time>
</trkpt>
<trkpt lat="30.5896700" lon="34.7490600">
<ele>851.160034</ele>
<time>2024-01-03T12:42:17.635Z</time>
</trkpt>
<trkpt lat="30.5895700" lon="34.7490600">
<ele>850.000000</ele>
<time>2024-01-03T12:42:17.635Z</time>
</trkpt>
<trkpt lat="30.5894700" lon="34.7490500">
<ele>848.970032</ele>
<time>2024-01-03T12:42:17.635Z</time>
</trkpt>
<trkpt lat="30.5893700" lon="34.7490400">
<ele>846.479980</ele>
<time>2024-01-03T12:42:17.635Z</time>
</trkpt>
<trkpt lat="30.5892700" lon="34.7490400">
<ele>843.340027</ele>
<time>2024-01-03T12:42:17.635Z</time>
</trkpt>
<trkpt lat="30.5891800" lon="34.7489900">
<ele>840.200012</ele>
<time>2024-01-03T12:42:17.635Z</time>
</trkpt>
<trkpt lat="30.5891300" lon="34.7488800">
<ele>838.480042</ele>
<time>2024-01-03T12:42:17.635Z</time>
</trkpt>
<trkpt lat="30.5890800" lon="34.7487800">
<ele>838.000000</ele>
<time>2024-01-03T12:42:17.635Z</time>
</trkpt>
<trkpt lat="30.5889800" lon="34.7487100">
<ele>837.179993</ele>
<time>2024-01-03T12:42:17.635Z</time>
</trkpt>
<trkpt lat="30.5889000" lon="34.7486400">
<ele>836.879944</ele>
<time>2024-01-03T12:42:17.635Z</time>
</trkpt>
<trkpt lat="30.5888000" lon="34.7485900">
<ele>835.619995</ele>
<time>2024-01-03T12:42:17.635Z</time>
</trkpt>
<trkpt lat="30.5886900" lon="34.7485700">
<ele>834.029968</ele>
<time>2024-01-03T12:42:17.635Z</time>
</trkpt>
<trkpt lat="30.5886000" lon="34.7485100">
<ele>833.820007</ele>
<time>2024-01-03T12:42:17.635Z</time>
</trkpt>
<trkpt lat="30.5885100" lon="34.7484300">
<ele>835.259949</ele>
<time>2024-01-03T12:42:17.635Z</time>
</trkpt>
<trkpt lat="30.5884500" lon="34.7483000">
<ele>837.780029</ele>
<time>2024-01-03T12:42:17.635Z</time>
</trkpt>
<trkpt lat="30.5884100" lon="34.7481800">
<ele>840.120056</ele>
<time>2024-01-03T12:42:17.635Z</time>
</trkpt>
<trkpt lat="30.5883800" lon="34.7480500">
<ele>842.169983</ele>
<time>2024-01-03T12:42:17.635Z</time>
</trkpt>
<trkpt lat="30.5883400" lon="34.7479400">
<ele>844.850037</ele>
<time>2024-01-03T12:42:17.635Z</time>
</trkpt>
<trkpt lat="30.5882400" lon="34.7479300">
<ele>844.759949</ele>
<time>2024-01-03T12:42:17.635Z</time>
</trkpt>
<trkpt lat="30.5881200" lon="34.7479200">
<ele>844.640015</ele>
<time>2024-01-03T12:42:17.635Z</time>
</trkpt>
<trkpt lat="30.5880100" lon="34.7479000">
<ele>844.549988</ele>
<time>2024-01-03T12:42:17.635Z</time>
</trkpt>
<trkpt lat="30.5879100" lon="34.7478800">
<ele>844.099976</ele>
<time>2024-01-03T12:42:17.635Z</time>
</trkpt>
<trkpt lat="30.5878200" lon="34.7478600">
<ele>843.540039</ele>
<time>2024-01-03T12:42:17.635Z</time>
</trkpt>
<trkpt lat="30.5877200" lon="34.7478500">
<ele>841.820007</ele>
<time>2024-01-03T12:42:17.635Z</time>
</trkpt>
<trkpt lat="30.5876300" lon="34.7478400">
<ele>839.719971</ele>
<time>2024-01-03T12:42:17.635Z</time>
</trkpt>
<trkpt lat="30.5875400" lon="34.7478200">
<ele>837.679993</ele>
<time>2024-01-03T12:42:17.635Z</time>
</trkpt>
<trkpt lat="30.5874500" lon="34.7478200">
<ele>836.310059</ele>
<time>2024-01-03T12:42:17.635Z</time>
</trkpt>
<trkpt lat="30.5873800" lon="34.7478000">
<ele>835.939941</ele>
<time>2024-01-03T12:42:17.635Z</time>
</trkpt>
<trkpt lat="30.5873300" lon="34.7477800">
<ele>835.759949</ele>
<time>2024-01-03T12:42:17.635Z</time>
</trkpt>
<trkpt lat="30.5873800" lon="34.7477400">
<ele>837.359985</ele>
<time>2024-01-03T12:42:17.635Z</time>
</trkpt>
<trkpt lat="30.5874500" lon="34.7477200">
<ele>838.510010</ele>
<time>2024-01-03T12:42:17.635Z</time>
</trkpt>
<trkpt lat="30.5875400" lon="34.7476500">
<ele>841.950012</ele>
<time>2024-01-03T12:42:17.635Z</time>
</trkpt>
<trkpt lat="30.5876000" lon="34.7475500">
<ele>846.009949</ele>
<time>2024-01-03T12:42:17.635Z</time>
</trkpt>
<trkpt lat="30.5876500" lon="34.7474500">
<ele>849.820007</ele>
<time>2024-01-03T12:42:17.635Z</time>
</trkpt>
<trkpt lat="30.5877300" lon="34.7473600">
<ele>852.940002</ele>
<time>2024-01-03T12:42:17.635Z</time>
</trkpt>
<trkpt lat="30.5877400" lon="34.7472500">
<ele>855.710022</ele>
<time>2024-01-03T12:42:17.635Z</time>
</trkpt>
<trkpt lat="30.5877400" lon="34.7471300">
<ele>858.109985</ele>
<time>2024-01-03T12:42:17.635Z</time>
</trkpt>
<trkpt lat="30.5877400" lon="34.7470100">
<ele>860.330017</ele>
<time>2024-01-03T12:42:17.635Z</time>
</trkpt>
<trkpt lat="30.5877200" lon="34.7469000">
<ele>861.739990</ele>
<time>2024-01-03T12:42:17.635Z</time>
</trkpt>
<trkpt lat="30.5876600" lon="34.7468100">
<ele>862.619995</ele>
<time>2024-01-03T12:42:17.635Z</time>
</trkpt>
<trkpt lat="30.5876100" lon="34.7466900">
<ele>863.610046</ele>
<time>2024-01-03T12:42:17.635Z</time>
</trkpt>
<trkpt lat="30.5875500" lon="34.7466100">
<ele>864.679993</ele>
<time>2024-01-03T12:42:17.635Z</time>
</trkpt>
<trkpt lat="30.5874900" lon="34.7465300">
<ele>865.689941</ele>
<time>2024-01-03T12:42:17.635Z</time>
</trkpt>
<trkpt lat="30.5874100" lon="34.7464300">
<ele>867.219971</ele>
<time>2024-01-03T12:42:17.635Z</time>
</trkpt>
<trkpt lat="30.5873300" lon="34.7463600">
<ele>869.239990</ele>
<time>2024-01-03T12:42:17.635Z</time>
</trkpt>
<trkpt lat="30.5872600" lon="34.7462900">
<ele>870.530029</ele>
<time>2024-01-03T12:42:17.635Z</time>
</trkpt>
<trkpt lat="30.5871800" lon="34.7462100">
<ele>871.869995</ele>
<time>2024-01-03T12:42:17.635Z</time>
</trkpt>
<trkpt lat="30.5871100" lon="34.7461400">
<ele>873.400024</ele>
<time>2024-01-03T12:42:17.635Z</time>
</trkpt>
<trkpt lat="30.5870400" lon="34.7460500">
<ele>874.679993</ele>
<time>2024-01-03T12:42:17.635Z</time>
</trkpt>
<trkpt lat="30.5869700" lon="34.7459600">
<ele>874.890015</ele>
<time>2024-01-03T12:42:17.635Z</time>
</trkpt>
<trkpt lat="30.5869100" lon="34.7458700">
<ele>874.030029</ele>
<time>2024-01-03T12:42:17.635Z</time>
</trkpt>
<trkpt lat="30.5868600" lon="34.7457700">
<ele>873.609985</ele>
<time>2024-01-03T12:42:17.635Z</time>
</trkpt>
<trkpt lat="30.5868000" lon="34.7456700">
<ele>873.669983</ele>
<time>2024-01-03T12:42:17.635Z</time>
</trkpt>
<trkpt lat="30.5867300" lon="34.7455900">
<ele>873.760010</ele>
<time>2024-01-03T12:42:17.635Z</time>
</trkpt>
<trkpt lat="30.5866700" lon="34.7454900">
<ele>873.739990</ele>
<time>2024-01-03T12:42:17.635Z</time>
</trkpt>
<trkpt lat="30.5866200" lon="34.7453900">
<ele>873.979980</ele>
<time>2024-01-03T12:42:17.635Z</time>
</trkpt>
<trkpt lat="30.5865700" lon="34.7453000">
<ele>874.150024</ele>
<time>2024-01-03T12:42:17.635Z</time>
</trkpt>
<trkpt lat="30.5865100" lon="34.7452100">
<ele>874.549988</ele>
<time>2024-01-03T12:42:17.635Z</time>
</trkpt>
<trkpt lat="30.5864400" lon="34.7451300">
<ele>875.010010</ele>
<time>2024-01-03T12:42:17.635Z</time>
</trkpt>
<trkpt lat="30.5863700" lon="34.7450600">
<ele>875.260010</ele>
<time>2024-01-03T12:42:17.635Z</time>
</trkpt>
<trkpt lat="30.5862800" lon="34.7450300">
<ele>875.239990</ele>
<time>2024-01-03T12:42:17.635Z</time>
</trkpt>
<trkpt lat="30.5861800" lon="34.7450100">
<ele>875.119995</ele>
<time>2024-01-03T12:42:17.635Z</time>
</trkpt>
<trkpt lat="30.5860900" lon="34.7450000">
<ele>874.769958</ele>
<time>2024-01-03T12:42:17.635Z</time>
</trkpt>
<trkpt lat="30.5860000" lon="34.7449800">
<ele>873.299988</ele>
<time>2024-01-03T12:42:17.635Z</time>
</trkpt>
<trkpt lat="30.5859100" lon="34.7449500">
<ele>871.570007</ele>
<time>2024-01-03T12:42:17.635Z</time>
</trkpt>
<trkpt lat="30.5858200" lon="34.7449300">
<ele>870.320007</ele>
<time>2024-01-03T12:42:17.635Z</time>
</trkpt>
<trkpt lat="30.5857300" lon="34.7449000">
<ele>870.250000</ele>
<time>2024-01-03T12:42:17.635Z</time>
</trkpt>
<trkpt lat="30.5856900" lon="34.7448400">
<ele>869.380005</ele>
<time>2024-01-03T12:42:17.635Z</time>
</trkpt>
<trkpt lat="30.5857000" lon="34.7447300">
<ele>867.080017</ele>
<time>2024-01-03T12:42:17.635Z</time>
</trkpt>
<trkpt lat="30.5857400" lon="34.7446700">
<ele>866.590027</ele>
<time>2024-01-03T12:42:17.635Z</time>
</trkpt>
<trkpt lat="30.5858200" lon="34.7446000">
<ele>866.029968</ele>
<time>2024-01-03T12:42:17.635Z</time>
</trkpt>
<trkpt lat="30.5859200" lon="34.7445400">
<ele>868.070007</ele>
<time>2024-01-03T12:42:17.635Z</time>
</trkpt>
<trkpt lat="30.5860000" lon="34.7444800">
<ele>870.640015</ele>
<time>2024-01-03T12:42:17.635Z</time>
</trkpt>
<trkpt lat="30.5860800" lon="34.7444300">
<ele>873.250000</ele>
<time>2024-01-03T12:42:17.635Z</time>
</trkpt>
<trkpt lat="30.5861400" lon="34.7443900">
<ele>874.020020</ele>
<time>2024-01-03T12:42:17.635Z</time>
</trkpt>
<trkpt lat="30.5861700" lon="34.7443000">
<ele>873.770020</ele>
<time>2024-01-03T12:42:17.635Z</time>
</trkpt>
<trkpt lat="30.5861400" lon="34.7442000">
<ele>873.739990</ele>
<time>2024-01-03T12:42:17.635Z</time>
</trkpt>
<trkpt lat="30.5861000" lon="34.7441200">
<ele>873.299988</ele>
<time>2024-01-03T12:42:17.635Z</time>
</trkpt>
<trkpt lat="30.5860200" lon="34.7440300">
<ele>872.669983</ele>
<time>2024-01-03T12:42:17.635Z</time>
</trkpt>
<trkpt lat="30.5859400" lon="34.7439600">
<ele>873.459961</ele>
<time>2024-01-03T12:42:17.635Z</time>
</trkpt>
<trkpt lat="30.5858500" lon="34.7438900">
<ele>875.630005</ele>
<time>2024-01-03T12:42:17.635Z</time>
</trkpt>
<trkpt lat="30.5858100" lon="34.7437900">
<ele>874.620056</ele>
<time>2024-01-03T12:42:17.635Z</time>
</trkpt>
<trkpt lat="30.5857800" lon="34.7436800">
<ele>873.619995</ele>
<time>2024-01-03T12:42:17.635Z</time>
</trkpt>
<trkpt lat="30.5857700" lon="34.7435600">
<ele>873.680054</ele>
<time>2024-01-03T12:42:17.635Z</time>
</trkpt>
<trkpt lat="30.5857600" lon="34.7434500">
<ele>875.090027</ele>
<time>2024-01-03T12:42:17.635Z</time>
</trkpt>
<trkpt lat="30.5857400" lon="34.7433600">
<ele>876.699951</ele>
<time>2024-01-03T12:42:17.635Z</time>
</trkpt>
<trkpt lat="30.5857000" lon="34.7432400">
<ele>879.309998</ele>
<time>2024-01-03T12:42:17.635Z</time>
</trkpt>
<trkpt lat="30.5856400" lon="34.7431500">
<ele>882.500061</ele>
<time>2024-01-03T12:42:17.635Z</time>
</trkpt>
<trkpt lat="30.5855600" lon="34.7430700">
<ele>886.619995</ele>
<time>2024-01-03T12:42:17.635Z</time>
</trkpt>
<trkpt lat="30.5854600" lon="34.7430200">
<ele>885.110046</ele>
<time>2024-01-03T12:42:17.635Z</time>
</trkpt>
<trkpt lat="30.5853800" lon="34.7430000">
<ele>883.669983</ele>
<time>2024-01-03T12:42:17.635Z</time>
</trkpt>
<trkpt lat="30.5852800" lon="34.7429900">
<ele>882.090027</ele>
<time>2024-01-03T12:42:17.635Z</time>
</trkpt>
<trkpt lat="30.5851900" lon="34.7430000">
<ele>883.650024</ele>
<time>2024-01-03T12:42:17.635Z</time>
</trkpt>
<trkpt lat="30.5851000" lon="34.7430100">
<ele>885.220032</ele>
<time>2024-01-03T12:42:17.635Z</time>
</trkpt>
<trkpt lat="30.5850300" lon="34.7430700">
<ele>886.679993</ele>
<time>2024-01-03T12:42:17.635Z</time>
</trkpt>
<trkpt lat="30.5849500" lon="34.7431600">
<ele>888.539978</ele>
<time>2024-01-03T12:42:17.635Z</time>
</trkpt>
<trkpt lat="30.5848700" lon="34.7432400">
<ele>889.429993</ele>
<time>2024-01-03T12:42:17.635Z</time>
</trkpt>
<trkpt lat="30.5847900" lon="34.7433200">
<ele>889.160034</ele>
<time>2024-01-03T12:42:17.635Z</time>
</trkpt>
<trkpt lat="30.5847100" lon="34.7433900">
<ele>889.879944</ele>
<time>2024-01-03T12:42:17.635Z</time>
</trkpt>
<trkpt lat="30.5846000" lon="34.7434400">
<ele>892.390015</ele>
<time>2024-01-03T12:42:17.635Z</time>
</trkpt>
<trkpt lat="30.5845100" lon="34.7434900">
<ele>893.890015</ele>
<time>2024-01-03T12:42:17.635Z</time>
</trkpt>
<trkpt lat="30.5844200" lon="34.7435100">
<ele>895.090027</ele>
<time>2024-01-03T12:42:17.635Z</time>
</trkpt>
<trkpt lat="30.5843100" lon="34.7435200">
<ele>896.769958</ele>
<time>2024-01-03T12:42:17.635Z</time>
</trkpt>
<trkpt lat="30.5842100" lon="34.7435200">
<ele>898.349976</ele>
<time>2024-01-03T12:42:17.635Z</time>
</trkpt>
<trkpt lat="30.5841100" lon="34.7434900">
<ele>898.179993</ele>
<time>2024-01-03T12:42:17.635Z</time>
</trkpt>
<trkpt lat="30.5840300" lon="34.7434300">
<ele>896.600037</ele>
<time>2024-01-03T12:42:17.635Z</time>
</trkpt>
<trkpt lat="30.5840200" lon="34.7432800">
<ele>893.910034</ele>
<time>2024-01-03T12:42:17.635Z</time>
</trkpt>
<trkpt lat="30.5840200" lon="34.7431600">
<ele>892.630005</ele>
<time>2024-01-03T12:42:17.635Z</time>
</trkpt>
<trkpt lat="30.5840400" lon="34.7430500">
<ele>891.499939</ele>
<time>2024-01-03T12:42:17.635Z</time>
</trkpt>
<trkpt lat="30.5841200" lon="34.7429600">
<ele>891.859985</ele>
<time>2024-01-03T12:42:17.635Z</time>
</trkpt>
<trkpt lat="30.5841900" lon="34.7428800">
<ele>892.409973</ele>
<time>2024-01-03T12:42:17.635Z</time>
</trkpt>
<trkpt lat="30.5842400" lon="34.7427900">
<ele>893.200012</ele>
<time>2024-01-03T12:42:17.635Z</time>
</trkpt>
<trkpt lat="30.5843100" lon="34.7426900">
<ele>891.770020</ele>
<time>2024-01-03T12:42:17.635Z</time>
</trkpt>
<trkpt lat="30.5843900" lon="34.7425700">
<ele>889.459961</ele>
<time>2024-01-03T12:42:17.635Z</time>
</trkpt>
<trkpt lat="30.5844400" lon="34.7424800">
<ele>887.430054</ele>
<time>2024-01-03T12:42:17.635Z</time>
</trkpt>
<trkpt lat="30.5844800" lon="34.7423900">
<ele>884.059998</ele>
<time>2024-01-03T12:42:17.635Z</time>
</trkpt>
<trkpt lat="30.5845400" lon="34.7422900">
<ele>880.500000</ele>
<time>2024-01-03T12:42:17.635Z</time>
</trkpt>
<trkpt lat="30.5845900" lon="34.7421700">
<ele>877.089966</ele>
<time>2024-01-03T12:42:17.635Z</time>
</trkpt>
<trkpt lat="30.5846300" lon="34.7420300">
<ele>872.690002</ele>
<time>2024-01-03T12:42:17.635Z</time>
</trkpt>
<trkpt lat="30.5846900" lon="34.7419500">
<ele>868.979980</ele>
<time>2024-01-03T12:42:17.635Z</time>
</trkpt>
<trkpt lat="30.5847300" lon="34.7418200">
<ele>867.500000</ele>
<time>2024-01-03T12:42:17.635Z</time>
</trkpt>
<trkpt lat="30.5847900" lon="34.7417000">
<ele>866.629944</ele>
<time>2024-01-03T12:42:17.635Z</time>
</trkpt>
<trkpt lat="30.5848800" lon="34.7415800">
<ele>864.479980</ele>
<time>2024-01-03T12:42:17.635Z</time>
</trkpt>
<trkpt lat="30.5849400" lon="34.7415000">
<ele>862.900024</ele>
<time>2024-01-03T12:42:17.635Z</time>
</trkpt>
<trkpt lat="30.5850100" lon="34.7413800">
<ele>860.760010</ele>
<time>2024-01-03T12:42:17.635Z</time>
</trkpt>
<trkpt lat="30.5850900" lon="34.7412600">
<ele>858.760010</ele>
<time>2024-01-03T12:42:17.635Z</time>
</trkpt>
<trkpt lat="30.5851800" lon="34.7411500">
<ele>857.500061</ele>
<time>2024-01-03T12:42:17.635Z</time>
</trkpt>
<trkpt lat="30.5852600" lon="34.7410300">
<ele>857.669983</ele>
<time>2024-01-03T12:42:17.635Z</time>
</trkpt>
<trkpt lat="30.5853500" lon="34.7409200">
<ele>857.380005</ele>
<time>2024-01-03T12:42:17.635Z</time>
</trkpt>
<trkpt lat="30.5854300" lon="34.7408100">
<ele>855.789978</ele>
<time>2024-01-03T12:42:17.635Z</time>
</trkpt>
<trkpt lat="30.5855000" lon="34.7407500">
<ele>854.320007</ele>
<time>2024-01-03T12:42:17.635Z</time>
</trkpt>
<trkpt lat="30.5855600" lon="34.7406700">
<ele>853.040039</ele>
<time>2024-01-03T12:42:17.635Z</time>
</trkpt>
<trkpt lat="30.5856300" lon="34.7406000">
<ele>853.579956</ele>
<time>2024-01-03T12:42:17.635Z</time>
</trkpt>
<trkpt lat="30.5857200" lon="34.7404700">
<ele>858.130005</ele>
<time>2024-01-03T12:42:17.635Z</time>
</trkpt>
<trkpt lat="30.5857400" lon="34.7403600">
<ele>863.250000</ele>
<time>2024-01-03T12:42:17.635Z</time>
</trkpt>
<trkpt lat="30.5857500" lon="34.7402500">
<ele>867.940002</ele>
<time>2024-01-03T12:42:17.635Z</time>
</trkpt>
<trkpt lat="30.5857500" lon="34.7401500">
<ele>871.320007</ele>
<time>2024-01-03T12:42:17.635Z</time>
</trkpt>
<trkpt lat="30.5857500" lon="34.7400000">
<ele>876.400024</ele>
<time>2024-01-03T12:42:17.635Z</time>
</trkpt>
<trkpt lat="30.5857200" lon="34.7398800">
<ele>879.210022</ele>
<time>2024-01-03T12:42:17.635Z</time>
</trkpt>
<trkpt lat="30.5857000" lon="34.7397600">
<ele>882.090027</ele>
<time>2024-01-03T12:42:17.635Z</time>
</trkpt>
<trkpt lat="30.5856800" lon="34.7396200">
<ele>883.349976</ele>
<time>2024-01-03T12:42:17.635Z</time>
</trkpt>
<trkpt lat="30.5856800" lon="34.7394700">
<ele>884.020020</ele>
<time>2024-01-03T12:42:17.635Z</time>
</trkpt>
<trkpt lat="30.5857400" lon="34.7394000">
<ele>884.150024</ele>
<time>2024-01-03T12:42:17.635Z</time>
</trkpt>
<trkpt lat="30.5858700" lon="34.7393600">
<ele>885.270020</ele>
<time>2024-01-03T12:42:17.635Z</time>
</trkpt>
<trkpt lat="30.5859600" lon="34.7393500">
<ele>884.399963</ele>
<time>2024-01-03T12:42:17.635Z</time>
</trkpt>
<trkpt lat="30.5860500" lon="34.7393300">
<ele>883.700012</ele>
<time>2024-01-03T12:42:17.635Z</time>
</trkpt>
<trkpt lat="30.5861500" lon="34.7393200">
<ele>883.119995</ele>
<time>2024-01-03T12:42:17.635Z</time>
</trkpt>
<trkpt lat="30.5862600" lon="34.7392800">
<ele>882.099976</ele>
<time>2024-01-03T12:42:17.635Z</time>
</trkpt>
<trkpt lat="30.5863300" lon="34.7392000">
<ele>881.009949</ele>
<time>2024-01-03T12:42:17.635Z</time>
</trkpt>
<trkpt lat="30.5863900" lon="34.7391000">
<ele>878.309998</ele>
<time>2024-01-03T12:42:17.635Z</time>
</trkpt>
<trkpt lat="30.5864400" lon="34.7389900">
<ele>875.460022</ele>
<time>2024-01-03T12:42:17.635Z</time>
</trkpt>
<trkpt lat="30.5864500" lon="34.7388800">
<ele>872.929993</ele>
<time>2024-01-03T12:42:17.635Z</time>
</trkpt>
<trkpt lat="30.5864600" lon="34.7387700">
<ele>869.400024</ele>
<time>2024-01-03T12:42:17.635Z</time>
</trkpt>
<trkpt lat="30.5864500" lon="34.7386100">
<ele>864.199951</ele>
<time>2024-01-03T12:42:17.635Z</time>
</trkpt>
<trkpt lat="30.5864000" lon="34.7385300">
<ele>862.869995</ele>
<time>2024-01-03T12:42:17.635Z</time>
</trkpt>
<trkpt lat="30.5862900" lon="34.7385000">
<ele>862.540039</ele>
<time>2024-01-03T12:42:17.635Z</time>
</trkpt>
<trkpt lat="30.5861600" lon="34.7384800">
<ele>862.500000</ele>
<time>2024-01-03T12:42:17.635Z</time>
</trkpt>
<trkpt lat="30.5860600" lon="34.7384700">
<ele>861.369995</ele>
<time>2024-01-03T12:42:17.635Z</time>
</trkpt>
<trkpt lat="30.5859700" lon="34.7384600">
<ele>859.359985</ele>
<time>2024-01-03T12:42:17.635Z</time>
</trkpt>
<trkpt lat="30.5858400" lon="34.7384500">
<ele>856.560059</ele>
<time>2024-01-03T12:42:17.635Z</time>
</trkpt>
<trkpt lat="30.5857400" lon="34.7384400">
<ele>856.670044</ele>
<time>2024-01-03T12:42:17.635Z</time>
</trkpt>
<trkpt lat="30.5856300" lon="34.7384200">
<ele>857.090027</ele>
<time>2024-01-03T12:42:17.635Z</time>
</trkpt>
<trkpt lat="30.5855300" lon="34.7384000">
<ele>857.539978</ele>
<time>2024-01-03T12:42:17.635Z</time>
</trkpt>
<trkpt lat="30.5854200" lon="34.7383700">
<ele>857.570007</ele>
<time>2024-01-03T12:42:17.635Z</time>
</trkpt>
<trkpt lat="30.5853200" lon="34.7383300">
<ele>857.129944</ele>
<time>2024-01-03T12:42:17.635Z</time>
</trkpt>
<trkpt lat="30.5852900" lon="34.7381800">
<ele>856.419983</ele>
<time>2024-01-03T12:42:17.635Z</time>
</trkpt>
<trkpt lat="30.5852800" lon="34.7380600">
<ele>856.000000</ele>
<time>2024-01-03T12:42:17.635Z</time>
</trkpt>
<trkpt lat="30.5852700" lon="34.7379300">
<ele>855.180054</ele>
<time>2024-01-03T12:42:17.635Z</time>
</trkpt>
<trkpt lat="30.5852700" lon="34.7377900">
<ele>854.169983</ele>
<time>2024-01-03T12:42:17.635Z</time>
</trkpt>
<trkpt lat="30.5852800" lon="34.7376700">
<ele>854.010010</ele>
<time>2024-01-03T12:42:17.635Z</time>
</trkpt>
<trkpt lat="30.5853100" lon="34.7375400">
<ele>854.119995</ele>
<time>2024-01-03T12:42:17.635Z</time>
</trkpt>
<trkpt lat="30.5853800" lon="34.7374200">
<ele>855.880066</ele>
<time>2024-01-03T12:42:17.635Z</time>
</trkpt>
<trkpt lat="30.5854500" lon="34.7373100">
<ele>857.880005</ele>
<time>2024-01-03T12:42:17.635Z</time>
</trkpt>
<trkpt lat="30.5855300" lon="34.7371800">
<ele>859.150024</ele>
<time>2024-01-03T12:42:17.635Z</time>
</trkpt>
<trkpt lat="30.5855600" lon="34.7370700">
<ele>858.899963</ele>
<time>2024-01-03T12:42:17.635Z</time>
</trkpt>
<trkpt lat="30.5855900" lon="34.7369700">
<ele>858.050049</ele>
<time>2024-01-03T12:42:17.635Z</time>
</trkpt>
<trkpt lat="30.5856300" lon="34.7368500">
<ele>856.419983</ele>
<time>2024-01-03T12:42:17.635Z</time>
</trkpt>
<trkpt lat="30.5856500" lon="34.7367300">
<ele>855.250000</ele>
<time>2024-01-03T12:42:17.635Z</time>
</trkpt>
<trkpt lat="30.5856700" lon="34.7366100">
<ele>854.090027</ele>
<time>2024-01-03T12:42:17.635Z</time>
</trkpt>
<trkpt lat="30.5856900" lon="34.7364900">
<ele>853.010010</ele>
<time>2024-01-03T12:42:17.635Z</time>
</trkpt>
<trkpt lat="30.5857200" lon="34.7363700">
<ele>851.760010</ele>
<time>2024-01-03T12:42:17.635Z</time>
</trkpt>
<trkpt lat="30.5857500" lon="34.7362600">
<ele>851.119995</ele>
<time>2024-01-03T12:42:17.635Z</time>
</trkpt>
<trkpt lat="30.5857900" lon="34.7361600">
<ele>849.789978</ele>
<time>2024-01-03T12:42:17.635Z</time>
</trkpt>
<trkpt lat="30.5858200" lon="34.7360500">
<ele>849.429993</ele>
<time>2024-01-03T12:42:17.635Z</time>
</trkpt>
<trkpt lat="30.5858500" lon="34.7359200">
<ele>850.109985</ele>
<time>2024-01-03T12:42:17.635Z</time>
</trkpt>
<trkpt lat="30.5858600" lon="34.7359100">
<ele>849.849976</ele>
<time>2024-01-03T12:42:17.635Z</time>
</trkpt>
<trkpt lat="30.5858800" lon="34.7359200">
<ele>848.950012</ele>
<time>2024-01-03T12:42:17.635Z</time>
</trkpt>
<trkpt lat="30.5863000" lon="34.7352700">
<ele>842.070007</ele>
<time>2024-01-03T12:42:17.635Z</time>
</trkpt>
<trkpt lat="30.5864800" lon="34.7350200">
<ele>848.409973</ele>
<time>2024-01-03T12:42:17.635Z</time>
</trkpt>
<trkpt lat="30.5867100" lon="34.7348700">
<ele>852.399963</ele>
<time>2024-01-03T12:42:17.635Z</time>
</trkpt>
<trkpt lat="30.5867800" lon="34.7346300">
<ele>853.909973</ele>
<time>2024-01-03T12:42:17.635Z</time>
</trkpt>
<trkpt lat="30.5866900" lon="34.7343200">
<ele>853.560059</ele>
<time>2024-01-03T12:42:17.635Z</time>
</trkpt>
<trkpt lat="30.5865200" lon="34.7339800">
<ele>850.520020</ele>
<time>2024-01-03T12:42:17.635Z</time>
</trkpt>
<trkpt lat="30.5862900" lon="34.7337400">
<ele>850.010010</ele>
<time>2024-01-03T12:42:17.635Z</time>
</trkpt>
<trkpt lat="30.5861000" lon="34.7333600">
<ele>853.260010</ele>
<time>2024-01-03T12:42:17.635Z</time>
</trkpt>
<trkpt lat="30.5858200" lon="34.7331200">
<ele>848.810059</ele>
<time>2024-01-03T12:42:17.635Z</time>
</trkpt>
<trkpt lat="30.5855000" lon="34.7330500">
<ele>849.639954</ele>
<time>2024-01-03T12:42:17.635Z</time>
</trkpt>
<trkpt lat="30.5850900" lon="34.7328400">
<ele>853.179993</ele>
<time>2024-01-03T12:42:17.635Z</time>
</trkpt>
<trkpt lat="30.5847000" lon="34.7328400">
<ele>851.240051</ele>
<time>2024-01-03T12:42:17.635Z</time>
</trkpt>
<trkpt lat="30.5844600" lon="34.7328100">
<ele>852.809998</ele>
<time>2024-01-03T12:42:17.635Z</time>
</trkpt>
<trkpt lat="30.5843200" lon="34.7327300">
<ele>856.029968</ele>
<time>2024-01-03T12:42:17.635Z</time>
</trkpt>
<trkpt lat="30.5843700" lon="34.7326300">
<ele>856.009949</ele>
<time>2024-01-03T12:42:17.635Z</time>
</trkpt>
<trkpt lat="30.5844300" lon="34.7325200">
<ele>854.570007</ele>
<time>2024-01-03T12:42:17.635Z</time>
</trkpt>
<trkpt lat="30.5846500" lon="34.7322800">
<ele>855.659973</ele>
<time>2024-01-03T12:42:17.635Z</time>
</trkpt>
<trkpt lat="30.5847800" lon="34.7320600">
<ele>861.390015</ele>
<time>2024-01-03T12:42:17.635Z</time>
</trkpt>
<trkpt lat="30.5847100" lon="34.7317100">
<ele>864.650024</ele>
<time>2024-01-03T12:42:17.635Z</time>
</trkpt>
<trkpt lat="30.5847400" lon="34.7315100">
<ele>867.450012</ele>
<time>2024-01-03T12:42:17.635Z</time>
</trkpt>
<trkpt lat="30.5848500" lon="34.7313500">
<ele>870.760010</ele>
<time>2024-01-03T12:42:17.635Z</time>
</trkpt>
<trkpt lat="30.5845700" lon="34.7314100">
<ele>868.700012</ele>
<time>2024-01-03T12:42:17.635Z</time>
</trkpt>
<trkpt lat="30.5842900" lon="34.7313700">
<ele>870.820007</ele>
<time>2024-01-03T12:42:17.635Z</time>
</trkpt>
<trkpt lat="30.5840100" lon="34.7310900">
<ele>870.309937</ele>
<time>2024-01-03T12:42:17.635Z</time>
</trkpt>
<trkpt lat="30.5839500" lon="34.7306100">
<ele>867.520020</ele>
<time>2024-01-03T12:42:17.635Z</time>
</trkpt>
<trkpt lat="30.5840500" lon="34.7302200">
<ele>861.039978</ele>
<time>2024-01-03T12:42:17.635Z</time>
</trkpt>
<trkpt lat="30.5842000" lon="34.7298600">
<ele>857.279968</ele>
<time>2024-01-03T12:42:17.635Z</time>
</trkpt>
<trkpt lat="30.5843500" lon="34.7297500">
<ele>857.309998</ele>
<time>2024-01-03T12:42:17.635Z</time>
</trkpt>
<trkpt lat="30.5846000" lon="34.7297100">
<ele>854.989990</ele>
<time>2024-01-03T12:42:17.635Z</time>
</trkpt>
<trkpt lat="30.5848500" lon="34.7297500">
<ele>849.109985</ele>
<time>2024-01-03T12:42:17.635Z</time>
</trkpt>
<trkpt lat="30.5853000" lon="34.7294700">
<ele>843.460022</ele>
<time>2024-01-03T12:42:17.635Z</time>
</trkpt>
<trkpt lat="30.5856100" lon="34.7293400">
<ele>842.719971</ele>
<time>2024-01-03T12:42:17.635Z</time>
</trkpt>
<trkpt lat="30.5858600" lon="34.7292000">
<ele>842.849976</ele>
<time>2024-01-03T12:42:17.635Z</time>
</trkpt>
<trkpt lat="30.5859200" lon="34.7290500">
<ele>840.700012</ele>
<time>2024-01-03T12:42:17.635Z</time>
</trkpt>
<trkpt lat="30.5859500" lon="34.7289400">
<ele>839.979980</ele>
<time>2024-01-03T12:42:17.635Z</time>
</trkpt>
<trkpt lat="30.5857200" lon="34.7288300">
<ele>843.650024</ele>
<time>2024-01-03T12:42:17.635Z</time>
</trkpt>
<trkpt lat="30.5852900" lon="34.7289200">
<ele>853.700012</ele>
<time>2024-01-03T12:42:17.635Z</time>
</trkpt>
<trkpt lat="30.5848400" lon="34.7289300">
<ele>855.690002</ele>
<time>2024-01-03T12:42:17.635Z</time>
</trkpt>
<trkpt lat="30.5845000" lon="34.7288500">
<ele>862.640015</ele>
<time>2024-01-03T12:42:17.635Z</time>
</trkpt>
<trkpt lat="30.5838700" lon="34.7284600">
<ele>871.800049</ele>
<time>2024-01-03T12:42:17.635Z</time>
</trkpt>
<trkpt lat="30.5838100" lon="34.7283900">
<ele>873.210022</ele>
<time>2024-01-03T12:42:17.635Z</time>
</trkpt>
<trkpt lat="30.5837200" lon="34.7283100">
<ele>875.559998</ele>
<time>2024-01-03T12:42:17.635Z</time>
</trkpt>
<trkpt lat="30.5836700" lon="34.7280800">
<ele>875.820007</ele>
<time>2024-01-03T12:42:17.635Z</time>
</trkpt>
<trkpt lat="30.5837200" lon="34.7281100">
<ele>874.839966</ele>
<time>2024-01-03T12:42:17.635Z</time>
</trkpt>
<trkpt lat="30.5838700" lon="34.7282100">
<ele>871.960022</ele>
<time>2024-01-03T12:42:17.635Z</time>
</trkpt>
<trkpt lat="30.5839200" lon="34.7282400">
<ele>871.549988</ele>
<time>2024-01-03T12:42:17.635Z</time>
</trkpt>
<trkpt lat="30.5840000" lon="34.7282500">
<ele>871.299988</ele>
<time>2024-01-03T12:42:17.635Z</time>
</trkpt>
<trkpt lat="30.5839700" lon="34.7281500">
<ele>871.049988</ele>
<time>2024-01-03T12:42:17.635Z</time>
</trkpt>
<trkpt lat="30.5838500" lon="34.7280200">
<ele>871.570007</ele>
<time>2024-01-03T12:42:17.635Z</time>
</trkpt>
<trkpt lat="30.5838000" lon="34.7277700">
<ele>870.539978</ele>
<time>2024-01-03T12:42:17.635Z</time>
</trkpt>
<trkpt lat="30.5838100" lon="34.7274700">
<ele>868.020020</ele>
<time>2024-01-03T12:42:17.635Z</time>
</trkpt>
<trkpt lat="30.5837800" lon="34.7272800">
<ele>866.099976</ele>
<time>2024-01-03T12:42:17.635Z</time>
</trkpt>
<trkpt lat="30.5840400" lon="34.7271800">
<ele>862.139954</ele>
<time>2024-01-03T12:42:17.635Z</time>
</trkpt>
<trkpt lat="30.5843900" lon="34.7272600">
<ele>860.829956</ele>
<time>2024-01-03T12:42:17.635Z</time>
</trkpt>
<trkpt lat="30.5846600" lon="34.7272200">
<ele>863.079956</ele>
<time>2024-01-03T12:42:17.635Z</time>
</trkpt>
<trkpt lat="30.5849200" lon="34.7269600">
<ele>864.650024</ele>
<time>2024-01-03T12:42:17.635Z</time>
</trkpt>
<trkpt lat="30.5852900" lon="34.7267800">
<ele>865.579956</ele>
<time>2024-01-03T12:42:17.635Z</time>
</trkpt>
<trkpt lat="30.5855200" lon="34.7266900">
<ele>860.729980</ele>
<time>2024-01-03T12:42:17.635Z</time>
</trkpt>
<trkpt lat="30.5856500" lon="34.7265300">
<ele>858.990051</ele>
<time>2024-01-03T12:42:17.635Z</time>
</trkpt>
<trkpt lat="30.5854600" lon="34.7264600">
<ele>860.950012</ele>
<time>2024-01-03T12:42:17.635Z</time>
</trkpt>
<trkpt lat="30.5852800" lon="34.7264800">
<ele>862.960022</ele>
<time>2024-01-03T12:42:17.635Z</time>
</trkpt>
<trkpt lat="30.5850200" lon="34.7265000">
<ele>864.500000</ele>
<time>2024-01-03T12:42:17.635Z</time>
</trkpt>
<trkpt lat="30.5846400" lon="34.7264300">
<ele>865.479980</ele>
<time>2024-01-03T12:42:17.635Z</time>
</trkpt>
<trkpt lat="30.5843500" lon="34.7263100">
<ele>869.419983</ele>
<time>2024-01-03T12:42:17.635Z</time>
</trkpt>
<trkpt lat="30.5841500" lon="34.7261300">
<ele>877.269958</ele>
<time>2024-01-03T12:42:17.635Z</time>
</trkpt>
<trkpt lat="30.5837900" lon="34.7259700">
<ele>875.950012</ele>
<time>2024-01-03T12:42:17.635Z</time>
</trkpt>
<trkpt lat="30.5841600" lon="34.7260300">
<ele>881.150024</ele>
<time>2024-01-03T12:42:17.635Z</time>
</trkpt>
<trkpt lat="30.5843200" lon="34.7260200">
<ele>880.700012</ele>
<time>2024-01-03T12:42:17.635Z</time>
</trkpt>
<trkpt lat="30.5845600" lon="34.7259800">
<ele>878.950012</ele>
<time>2024-01-03T12:42:17.635Z</time>
</trkpt>
<trkpt lat="30.5847800" lon="34.7259100">
<ele>876.479980</ele>
<time>2024-01-03T12:42:17.635Z</time>
</trkpt>
<trkpt lat="30.5844600" lon="34.7257200">
<ele>888.059998</ele>
<time>2024-01-03T12:42:17.635Z</time>
</trkpt>
<trkpt lat="30.5841600" lon="34.7254600">
<ele>895.299988</ele>
<time>2024-01-03T12:42:17.635Z</time>
</trkpt>
<trkpt lat="30.5838500" lon="34.7251000">
<ele>894.880005</ele>
<time>2024-01-03T12:42:17.635Z</time>
</trkpt>
<trkpt lat="30.5838300" lon="34.7250600">
<ele>894.590027</ele>
<time>2024-01-03T12:42:17.635Z</time>
</trkpt>
<trkpt lat="30.5838200" lon="34.7250700">
<ele>894.020020</ele>
<time>2024-01-03T12:42:17.635Z</time>
</trkpt>
<trkpt lat="30.5836600" lon="34.7248200">
<ele>890.859985</ele>
<time>2024-01-03T12:42:17.635Z</time>
</trkpt>
<trkpt lat="30.5835600" lon="34.7245300">
<ele>891.619995</ele>
<time>2024-01-03T12:42:17.635Z</time>
</trkpt>
<trkpt lat="30.5835000" lon="34.7241900">
<ele>894.779968</ele>
<time>2024-01-03T12:42:17.635Z</time>
</trkpt>
<trkpt lat="30.5834300" lon="34.7235900">
<ele>895.169983</ele>
<time>2024-01-03T12:42:17.635Z</time>
</trkpt>
<trkpt lat="30.5832800" lon="34.7229500">
<ele>890.540039</ele>
<time>2024-01-03T12:42:17.635Z</time>
</trkpt>
<trkpt lat="30.5832200" lon="34.7228300">
<ele>887.520020</ele>
<time>2024-01-03T12:42:17.635Z</time>
</trkpt>
<trkpt lat="30.5832800" lon="34.7229500">
<ele>890.540039</ele>
<time>2024-01-03T12:42:17.635Z</time>
</trkpt>
<trkpt lat="30.5834300" lon="34.7235900">
<ele>895.169983</ele>
<time>2024-01-03T12:42:17.635Z</time>
</trkpt>
<trkpt lat="30.5835000" lon="34.7241900">
<ele>894.779968</ele>
<time>2024-01-03T12:42:17.635Z</time>
</trkpt>
<trkpt lat="30.5835600" lon="34.7245300">
<ele>891.619995</ele>
<time>2024-01-03T12:42:17.635Z</time>
</trkpt>
<trkpt lat="30.5835200" lon="34.7240300">
<ele>894.140015</ele>
<time>2024-01-03T12:42:17.635Z</time>
</trkpt>
<trkpt lat="30.5835600" lon="34.7236800">
<ele>891.720032</ele>
<time>2024-01-03T12:42:17.635Z</time>
</trkpt>
<trkpt lat="30.5835700" lon="34.7236100">
<ele>891.190002</ele>
<time>2024-01-03T12:42:17.635Z</time>
</trkpt>
<trkpt lat="30.5838100" lon="34.7233600">
<ele>887.440002</ele>
<time>2024-01-03T12:42:17.635Z</time>
</trkpt>
<trkpt lat="30.5839200" lon="34.7232600">
<ele>885.829956</ele>
<time>2024-01-03T12:42:17.635Z</time>
</trkpt>
<trkpt lat="30.5839200" lon="34.7229000">
<ele>888.110046</ele>
<time>2024-01-03T12:42:17.635Z</time>
</trkpt>
<trkpt lat="30.5839800" lon="34.7222700">
<ele>885.530029</ele>
<time>2024-01-03T12:42:17.635Z</time>
</trkpt>
<trkpt lat="30.5841400" lon="34.7221200">
<ele>882.480042</ele>
<time>2024-01-03T12:42:17.635Z</time>
</trkpt>
<trkpt lat="30.5842500" lon="34.7219200">
<ele>879.409973</ele>
<time>2024-01-03T12:42:17.635Z</time>
</trkpt>
<trkpt lat="30.5842200" lon="34.7219000">
<ele>880.390015</ele>
<time>2024-01-03T12:42:17.635Z</time>
</trkpt>
<trkpt lat="30.5842300" lon="34.7218900">
<ele>880.130005</ele>
<time>2024-01-03T12:42:17.635Z</time>
</trkpt>
<trkpt lat="30.5843200" lon="34.7218400">
<ele>877.860046</ele>
<time>2024-01-03T12:42:17.635Z</time>
</trkpt>
<trkpt lat="30.5844400" lon="34.7217800">
<ele>875.469971</ele>
<time>2024-01-03T12:42:17.635Z</time>
</trkpt>
<trkpt lat="30.5845300" lon="34.7216800">
<ele>873.739990</ele>
<time>2024-01-03T12:42:17.635Z</time>
</trkpt>
<trkpt lat="30.5846400" lon="34.7216000">
<ele>870.950012</ele>
<time>2024-01-03T12:42:17.635Z</time>
</trkpt>
<trkpt lat="30.5846600" lon="34.7214700">
<ele>872.300049</ele>
<time>2024-01-03T12:42:17.635Z</time>
</trkpt>
<trkpt lat="30.5847300" lon="34.7213700">
<ele>872.109985</ele>
<time>2024-01-03T12:42:17.635Z</time>
</trkpt>
<trkpt lat="30.5847800" lon="34.7212500">
<ele>872.519958</ele>
<time>2024-01-03T12:42:17.635Z</time>
</trkpt>
<trkpt lat="30.5848100" lon="34.7211000">
<ele>873.569946</ele>
<time>2024-01-03T12:42:17.635Z</time>
</trkpt>
<trkpt lat="30.5848800" lon="34.7210100">
<ele>870.860046</ele>
<time>2024-01-03T12:42:17.635Z</time>
</trkpt>
<trkpt lat="30.5849700" lon="34.7210000">
<ele>866.920044</ele>
<time>2024-01-03T12:42:17.635Z</time>
</trkpt>
<trkpt lat="30.5850600" lon="34.7209900">
<ele>864.849976</ele>
<time>2024-01-03T12:42:17.635Z</time>
</trkpt>
<trkpt lat="30.5851600" lon="34.7209700">
<ele>863.460022</ele>
<time>2024-01-03T12:42:17.635Z</time>
</trkpt>
<trkpt lat="30.5852600" lon="34.7209600">
<ele>862.059998</ele>
<time>2024-01-03T12:42:17.635Z</time>
</trkpt>
<trkpt lat="30.5853300" lon="34.7209100">
<ele>861.669983</ele>
<time>2024-01-03T12:42:17.635Z</time>
</trkpt>
<trkpt lat="30.5854100" lon="34.7208200">
<ele>861.500000</ele>
<time>2024-01-03T12:42:17.635Z</time>
</trkpt>
<trkpt lat="30.5855000" lon="34.7207500">
<ele>862.579956</ele>
<time>2024-01-03T12:42:17.635Z</time>
</trkpt>
<trkpt lat="30.5855700" lon="34.7206800">
<ele>862.969971</ele>
<time>2024-01-03T12:42:17.635Z</time>
</trkpt>
<trkpt lat="30.5856000" lon="34.7205300">
<ele>862.789978</ele>
<time>2024-01-03T12:42:17.635Z</time>
</trkpt>
<trkpt lat="30.5856600" lon="34.7204500">
<ele>862.670044</ele>
<time>2024-01-03T12:42:17.635Z</time>
</trkpt>
<trkpt lat="30.5857200" lon="34.7203500">
<ele>862.980042</ele>
<time>2024-01-03T12:42:17.635Z</time>
</trkpt>
<trkpt lat="30.5857600" lon="34.7202400">
<ele>862.960022</ele>
<time>2024-01-03T12:42:17.635Z</time>
</trkpt>
<trkpt lat="30.5858800" lon="34.7201600">
<ele>862.440002</ele>
<time>2024-01-03T12:42:17.635Z</time>
</trkpt>
<trkpt lat="30.5859800" lon="34.7201000">
<ele>861.510010</ele>
<time>2024-01-03T12:42:17.635Z</time>
</trkpt>
<trkpt lat="30.5860700" lon="34.7200300">
<ele>861.050049</ele>
<time>2024-01-03T12:42:17.635Z</time>
</trkpt>
<trkpt lat="30.5861500" lon="34.7199600">
<ele>860.400024</ele>
<time>2024-01-03T12:42:17.635Z</time>
</trkpt>
<trkpt lat="30.5862100" lon="34.7198700">
<ele>860.049988</ele>
<time>2024-01-03T12:42:17.635Z</time>
</trkpt>
<trkpt lat="30.5862700" lon="34.7197900">
<ele>860.299988</ele>
<time>2024-01-03T12:42:17.635Z</time>
</trkpt>
<trkpt lat="30.5863000" lon="34.7196900">
<ele>861.119995</ele>
<time>2024-01-03T12:42:17.635Z</time>
</trkpt>
<trkpt lat="30.5863300" lon="34.7195900">
<ele>861.650024</ele>
<time>2024-01-03T12:42:17.635Z</time>
</trkpt>
<trkpt lat="30.5863900" lon="34.7195100">
<ele>862.500000</ele>
<time>2024-01-03T12:42:17.635Z</time>
</trkpt>
<trkpt lat="30.5864300" lon="34.7194100">
<ele>861.479980</ele>
<time>2024-01-03T12:42:17.635Z</time>
</trkpt>
<trkpt lat="30.5864900" lon="34.7193200">
<ele>859.319946</ele>
<time>2024-01-03T12:42:17.635Z</time>
</trkpt>
<trkpt lat="30.5865700" lon="34.7192500">
<ele>857.099976</ele>
<time>2024-01-03T12:42:17.635Z</time>
</trkpt>
<trkpt lat="30.5866500" lon="34.7192000">
<ele>855.260010</ele>
<time>2024-01-03T12:42:17.635Z</time>
</trkpt>
<trkpt lat="30.5867300" lon="34.7191200">
<ele>852.960022</ele>
<time>2024-01-03T12:42:17.635Z</time>
</trkpt>
<trkpt lat="30.5867900" lon="34.7190200">
<ele>852.429993</ele>
<time>2024-01-03T12:42:17.635Z</time>
</trkpt>
<trkpt lat="30.5868500" lon="34.7189100">
<ele>852.899963</ele>
<time>2024-01-03T12:42:17.635Z</time>
</trkpt>
<trkpt lat="30.5869000" lon="34.7188200">
<ele>852.989990</ele>
<time>2024-01-03T12:42:17.635Z</time>
</trkpt>
<trkpt lat="30.5870200" lon="34.7187300">
<ele>851.309998</ele>
<time>2024-01-03T12:42:17.635Z</time>
</trkpt>
<trkpt lat="30.5870900" lon="34.7186600">
<ele>850.880005</ele>
<time>2024-01-03T12:42:17.635Z</time>
</trkpt>
<trkpt lat="30.5871500" lon="34.7185700">
<ele>850.669983</ele>
<time>2024-01-03T12:42:17.635Z</time>
</trkpt>
<trkpt lat="30.5872200" lon="34.7184900">
<ele>849.479980</ele>
<time>2024-01-03T12:42:17.635Z</time>
</trkpt>
<trkpt lat="30.5872900" lon="34.7184100">
<ele>848.920044</ele>
<time>2024-01-03T12:42:17.635Z</time>
</trkpt>
<trkpt lat="30.5873500" lon="34.7183000">
<ele>848.739990</ele>
<time>2024-01-03T12:42:17.635Z</time>
</trkpt>
<trkpt lat="30.5874100" lon="34.7181900">
<ele>848.489990</ele>
<time>2024-01-03T12:42:17.635Z</time>
</trkpt>
<trkpt lat="30.5874700" lon="34.7180700">
<ele>848.270020</ele>
<time>2024-01-03T12:42:17.635Z</time>
</trkpt>
<trkpt lat="30.5875500" lon="34.7179600">
<ele>848.760010</ele>
<time>2024-01-03T12:42:17.635Z</time>
</trkpt>
<trkpt lat="30.5876500" lon="34.7178700">
<ele>849.570007</ele>
<time>2024-01-03T12:42:17.635Z</time>
</trkpt>
<trkpt lat="30.5877300" lon="34.7177700">
<ele>849.869995</ele>
<time>2024-01-03T12:42:17.635Z</time>
</trkpt>
<trkpt lat="30.5878000" lon="34.7176400">
<ele>851.550049</ele>
<time>2024-01-03T12:42:17.635Z</time>
</trkpt>
<trkpt lat="30.5878700" lon="34.7175200">
<ele>853.900024</ele>
<time>2024-01-03T12:42:17.635Z</time>
</trkpt>
<trkpt lat="30.5879400" lon="34.7173800">
<ele>857.409973</ele>
<time>2024-01-03T12:42:17.635Z</time>
</trkpt>
<trkpt lat="30.5880200" lon="34.7173000">
<ele>860.200012</ele>
<time>2024-01-03T12:42:17.635Z</time>
</trkpt>
<trkpt lat="30.5881200" lon="34.7172900">
<ele>861.769958</ele>
<time>2024-01-03T12:42:17.635Z</time>
</trkpt>
<trkpt lat="30.5882200" lon="34.7172800">
<ele>862.969971</ele>
<time>2024-01-03T12:42:17.635Z</time>
</trkpt>
<trkpt lat="30.5883300" lon="34.7172700">
<ele>864.140015</ele>
<time>2024-01-03T12:42:17.635Z</time>
</trkpt>
<trkpt lat="30.5884400" lon="34.7172700">
<ele>864.239990</ele>
<time>2024-01-03T12:42:17.635Z</time>
</trkpt>
<trkpt lat="30.5885500" lon="34.7172600">
<ele>864.239990</ele>
<time>2024-01-03T12:42:17.635Z</time>
</trkpt>
<trkpt lat="30.5886300" lon="34.7172400">
<ele>864.000000</ele>
<time>2024-01-03T12:42:17.635Z</time>
</trkpt>
<trkpt lat="30.5886200" lon="34.7171200">
<ele>863.900024</ele>
<time>2024-01-03T12:42:17.635Z</time>
</trkpt>
<trkpt lat="30.5886000" lon="34.7170100">
<ele>864.030029</ele>
<time>2024-01-03T12:42:17.635Z</time>
</trkpt>
<trkpt lat="30.5885700" lon="34.7169200">
<ele>864.030029</ele>
<time>2024-01-03T12:42:17.635Z</time>
</trkpt>
<trkpt lat="30.5885100" lon="34.7168300">
<ele>863.649963</ele>
<time>2024-01-03T12:42:17.635Z</time>
</trkpt>
<trkpt lat="30.5884800" lon="34.7167100">
<ele>862.830017</ele>
<time>2024-01-03T12:42:17.635Z</time>
</trkpt>
<trkpt lat="30.5884600" lon="34.7165700">
<ele>860.750000</ele>
<time>2024-01-03T12:42:17.635Z</time>
</trkpt>
<trkpt lat="30.5884400" lon="34.7164500">
<ele>858.659973</ele>
<time>2024-01-03T12:42:17.635Z</time>
</trkpt>
<trkpt lat="30.5884200" lon="34.7163300">
<ele>856.830017</ele>
<time>2024-01-03T12:42:17.635Z</time>
</trkpt>
<trkpt lat="30.5883800" lon="34.7162100">
<ele>854.939941</ele>
<time>2024-01-03T12:42:17.635Z</time>
</trkpt>
<trkpt lat="30.5883600" lon="34.7160800">
<ele>853.239990</ele>
<time>2024-01-03T12:42:17.635Z</time>
</trkpt>
<trkpt lat="30.5883600" lon="34.7159400">
<ele>853.430054</ele>
<time>2024-01-03T12:42:17.635Z</time>
</trkpt>
<trkpt lat="30.5883700" lon="34.7158300">
<ele>853.809998</ele>
<time>2024-01-03T12:42:17.635Z</time>
</trkpt>
<trkpt lat="30.5884000" lon="34.7157300">
<ele>855.010010</ele>
<time>2024-01-03T12:42:17.635Z</time>
</trkpt>
<trkpt lat="30.5884400" lon="34.7156300">
<ele>856.209961</ele>
<time>2024-01-03T12:42:17.635Z</time>
</trkpt>
<trkpt lat="30.5884800" lon="34.7155300">
<ele>856.880005</ele>
<time>2024-01-03T12:42:17.635Z</time>
</trkpt>
<trkpt lat="30.5885500" lon="34.7154600">
<ele>857.160034</ele>
<time>2024-01-03T12:42:17.635Z</time>
</trkpt>
<trkpt lat="30.5886200" lon="34.7153900">
<ele>857.169983</ele>
<time>2024-01-03T12:42:17.635Z</time>
</trkpt>
<trkpt lat="30.5886900" lon="34.7153100">
<ele>856.250000</ele>
<time>2024-01-03T12:42:17.635Z</time>
</trkpt>
<trkpt lat="30.5887700" lon="34.7152300">
<ele>855.210022</ele>
<time>2024-01-03T12:42:17.635Z</time>
</trkpt>
<trkpt lat="30.5888200" lon="34.7151400">
<ele>853.640015</ele>
<time>2024-01-03T12:42:17.635Z</time>
</trkpt>
<trkpt lat="30.5888900" lon="34.7150500">
<ele>851.890015</ele>
<time>2024-01-03T12:42:17.635Z</time>
</trkpt>
<trkpt lat="30.5889500" lon="34.7149600">
<ele>849.809998</ele>
<time>2024-01-03T12:42:17.635Z</time>
</trkpt>
<trkpt lat="30.5890200" lon="34.7148800">
<ele>847.690002</ele>
<time>2024-01-03T12:42:17.635Z</time>
</trkpt>
<trkpt lat="30.5890900" lon="34.7147900">
<ele>845.219971</ele>
<time>2024-01-03T12:42:17.635Z</time>
</trkpt>
<trkpt lat="30.5891200" lon="34.7146900">
<ele>843.210022</ele>
<time>2024-01-03T12:42:17.635Z</time>
</trkpt>
<trkpt lat="30.5891500" lon="34.7145900">
<ele>842.140015</ele>
<time>2024-01-03T12:42:17.635Z</time>
</trkpt>
<trkpt lat="30.5891800" lon="34.7144400">
<ele>840.899963</ele>
<time>2024-01-03T12:42:17.635Z</time>
</trkpt>
<trkpt lat="30.5891900" lon="34.7143300">
<ele>840.800049</ele>
<time>2024-01-03T12:42:17.635Z</time>
</trkpt>
<trkpt lat="30.5892300" lon="34.7142200">
<ele>840.360046</ele>
<time>2024-01-03T12:42:17.635Z</time>
</trkpt>
<trkpt lat="30.5892400" lon="34.7141100">
<ele>840.659973</ele>
<time>2024-01-03T12:42:17.635Z</time>
</trkpt>
<trkpt lat="30.5892700" lon="34.7140000">
<ele>841.010010</ele>
<time>2024-01-03T12:42:17.635Z</time>
</trkpt>
<trkpt lat="30.5893000" lon="34.7138800">
<ele>841.190002</ele>
<time>2024-01-03T12:42:17.635Z</time>
</trkpt>
<trkpt lat="30.5893100" lon="34.7137700">
<ele>841.750000</ele>
<time>2024-01-03T12:42:17.635Z</time>
</trkpt>
<trkpt lat="30.5893200" lon="34.7136500">
<ele>842.320007</ele>
<time>2024-01-03T12:42:17.635Z</time>
</trkpt>
<trkpt lat="30.5893300" lon="34.7135300">
<ele>842.640015</ele>
<time>2024-01-03T12:42:17.635Z</time>
</trkpt>
<trkpt lat="30.5893500" lon="34.7134200">
<ele>842.630005</ele>
<time>2024-01-03T12:42:17.635Z</time>
</trkpt>
<trkpt lat="30.5893500" lon="34.7132900">
<ele>842.309937</ele>
<time>2024-01-03T12:42:17.635Z</time>
</trkpt>
<trkpt lat="30.5893500" lon="34.7131600">
<ele>840.120056</ele>
<time>2024-01-03T12:42:17.635Z</time>
</trkpt>
<trkpt lat="30.5893600" lon="34.7130200">
<ele>837.640015</ele>
<time>2024-01-03T12:42:17.635Z</time>
</trkpt>
<trkpt lat="30.5893500" lon="34.7128800">
<ele>835.389954</ele>
<time>2024-01-03T12:42:17.635Z</time>
</trkpt>
<trkpt lat="30.5893500" lon="34.7127900">
<ele>833.869995</ele>
<time>2024-01-03T12:42:17.635Z</time>
</trkpt>
<trkpt lat="30.5894000" lon="34.7127500">
<ele>833.190002</ele>
<time>2024-01-03T12:42:17.635Z</time>
</trkpt>
<trkpt lat="30.5894900" lon="34.7127500">
<ele>832.859985</ele>
<time>2024-01-03T12:42:17.635Z</time>
</trkpt>
<trkpt lat="30.5895800" lon="34.7127400">
<ele>831.700012</ele>
<time>2024-01-03T12:42:17.635Z</time>
</trkpt>
<trkpt lat="30.5896900" lon="34.7127400">
<ele>830.490051</ele>
<time>2024-01-03T12:42:17.635Z</time>
</trkpt>
<trkpt lat="30.5897900" lon="34.7127700">
<ele>830.730042</ele>
<time>2024-01-03T12:42:17.635Z</time>
</trkpt>
<trkpt lat="30.5898900" lon="34.7128200">
<ele>832.389954</ele>
<time>2024-01-03T12:42:17.635Z</time>
</trkpt>
<trkpt lat="30.5899900" lon="34.7128200">
<ele>833.639954</ele>
<time>2024-01-03T12:42:17.635Z</time>
</trkpt>
<trkpt lat="30.5900900" lon="34.7128200">
<ele>834.410034</ele>
<time>2024-01-03T12:42:17.635Z</time>
</trkpt>
<trkpt lat="30.5901900" lon="34.7128200">
<ele>835.129944</ele>
<time>2024-01-03T12:42:17.635Z</time>
</trkpt>
<trkpt lat="30.5903100" lon="34.7128000">
<ele>835.500061</ele>
<time>2024-01-03T12:42:17.635Z</time>
</trkpt>
<trkpt lat="30.5904100" lon="34.7127500">
<ele>834.929993</ele>
<time>2024-01-03T12:42:17.635Z</time>
</trkpt>
<trkpt lat="30.5904800" lon="34.7126800">
<ele>833.710022</ele>
<time>2024-01-03T12:42:17.635Z</time>
</trkpt>
<trkpt lat="30.5905500" lon="34.7125900">
<ele>831.940002</ele>
<time>2024-01-03T12:42:17.635Z</time>
</trkpt>
<trkpt lat="30.5906100" lon="34.7124900">
<ele>831.619995</ele>
<time>2024-01-03T12:42:17.635Z</time>
</trkpt>
<trkpt lat="30.5906300" lon="34.7123800">
<ele>830.679993</ele>
<time>2024-01-03T12:42:17.635Z</time>
</trkpt>
<trkpt lat="30.5906500" lon="34.7122700">
<ele>829.750000</ele>
<time>2024-01-03T12:42:17.635Z</time>
</trkpt>
<trkpt lat="30.5906800" lon="34.7121600">
<ele>829.809937</ele>
<time>2024-01-03T12:42:17.635Z</time>
</trkpt>
<trkpt lat="30.5907000" lon="34.7120400">
<ele>830.020020</ele>
<time>2024-01-03T12:42:17.635Z</time>
</trkpt>
<trkpt lat="30.5907100" lon="34.7119200">
<ele>830.000000</ele>
<time>2024-01-03T12:42:17.635Z</time>
</trkpt>
<trkpt lat="30.5907300" lon="34.7118100">
<ele>830.650024</ele>
<time>2024-01-03T12:42:17.635Z</time>
</trkpt>
<trkpt lat="30.5907300" lon="34.7116800">
<ele>830.650024</ele>
<time>2024-01-03T12:42:17.635Z</time>
</trkpt>
<trkpt lat="30.5907300" lon="34.7115600">
<ele>830.309998</ele>
<time>2024-01-03T12:42:17.635Z</time>
</trkpt>
<trkpt lat="30.5907300" lon="34.7114300">
<ele>829.900024</ele>
<time>2024-01-03T12:42:17.635Z</time>
</trkpt>
<trkpt lat="30.5907400" lon="34.7113000">
<ele>829.450012</ele>
<time>2024-01-03T12:42:17.635Z</time>
</trkpt>
<trkpt lat="30.5907400" lon="34.7111700">
<ele>828.679993</ele>
<time>2024-01-03T12:42:17.635Z</time>
</trkpt>
<trkpt lat="30.5907500" lon="34.7110400">
<ele>827.860046</ele>
<time>2024-01-03T12:42:17.635Z</time>
</trkpt>
<trkpt lat="30.5908000" lon="34.7109600">
<ele>827.320007</ele>
<time>2024-01-03T12:42:17.635Z</time>
</trkpt>
<trkpt lat="30.5908900" lon="34.7109200">
<ele>825.839966</ele>
<time>2024-01-03T12:42:17.635Z</time>
</trkpt>
<trkpt lat="30.5909900" lon="34.7109100">
<ele>823.760010</ele>
<time>2024-01-03T12:42:17.635Z</time>
</trkpt>
<trkpt lat="30.5910800" lon="34.7109000">
<ele>821.819946</ele>
<time>2024-01-03T12:42:17.635Z</time>
</trkpt>
<trkpt lat="30.5911700" lon="34.7109000">
<ele>820.459961</ele>
<time>2024-01-03T12:42:17.635Z</time>
</trkpt>
<trkpt lat="30.5912600" lon="34.7108900">
<ele>819.190063</ele>
<time>2024-01-03T12:42:17.635Z</time>
</trkpt>
<trkpt lat="30.5912700" lon="34.7108000">
<ele>817.919983</ele>
<time>2024-01-03T12:42:17.635Z</time>
</trkpt>
<trkpt lat="30.5912700" lon="34.7106500">
<ele>816.299988</ele>
<time>2024-01-03T12:42:17.635Z</time>
</trkpt>
<trkpt lat="30.5912800" lon="34.7105300">
<ele>814.860046</ele>
<time>2024-01-03T12:42:17.635Z</time>
</trkpt>
<trkpt lat="30.5912800" lon="34.7104000">
<ele>813.279968</ele>
<time>2024-01-03T12:42:17.635Z</time>
</trkpt>
<trkpt lat="30.5912900" lon="34.7102700">
<ele>811.669983</ele>
<time>2024-01-03T12:42:17.635Z</time>
</trkpt>
<trkpt lat="30.5913200" lon="34.7101500">
<ele>810.920044</ele>
<time>2024-01-03T12:42:17.635Z</time>
</trkpt>
<trkpt lat="30.5913700" lon="34.7100600">
<ele>810.299988</ele>
<time>2024-01-03T12:42:17.635Z</time>
</trkpt>
<trkpt lat="30.5914100" lon="34.7099600">
<ele>809.410034</ele>
<time>2024-01-03T12:42:17.635Z</time>
</trkpt>
<trkpt lat="30.5914500" lon="34.7098500">
<ele>808.260010</ele>
<time>2024-01-03T12:42:17.635Z</time>
</trkpt>
<trkpt lat="30.5915100" lon="34.7097400">
<ele>806.859985</ele>
<time>2024-01-03T12:42:17.635Z</time>
</trkpt>
<trkpt lat="30.5915700" lon="34.7096400">
<ele>805.730042</ele>
<time>2024-01-03T12:42:17.635Z</time>
</trkpt>
<trkpt lat="30.5916200" lon="34.7095300">
<ele>805.180054</ele>
<time>2024-01-03T12:42:17.635Z</time>
</trkpt>
<trkpt lat="30.5916800" lon="34.7094500">
<ele>805.030029</ele>
<time>2024-01-03T12:42:17.635Z</time>
</trkpt>
<trkpt lat="30.5917100" lon="34.7093900">
<ele>805.320007</ele>
<time>2024-01-03T12:42:17.635Z</time>
</trkpt>
<trkpt lat="30.5923600" lon="34.7095400">
<ele>799.809998</ele>
<time>2024-01-03T12:42:17.635Z</time>
</trkpt>
<trkpt lat="30.5929600" lon="34.7097600">
<ele>793.590027</ele>
<time>2024-01-03T12:42:17.635Z</time>
</trkpt>
<trkpt lat="30.5931400" lon="34.7098700">
<ele>794.200012</ele>
<time>2024-01-03T12:42:17.635Z</time>
</trkpt>
<trkpt lat="30.5932200" lon="34.7099100">
<ele>795.160034</ele>
<time>2024-01-03T12:42:17.635Z</time>
</trkpt>
<trkpt lat="30.5933100" lon="34.7097900">
<ele>797.130005</ele>
<time>2024-01-03T12:42:17.635Z</time>
</trkpt>
<trkpt lat="30.5933600" lon="34.7096200">
<ele>800.440002</ele>
<time>2024-01-03T12:42:17.635Z</time>
</trkpt>
<trkpt lat="30.5934600" lon="34.7097300">
<ele>802.020020</ele>
<time>2024-01-03T12:42:17.635Z</time>
</trkpt>
<trkpt lat="30.5935200" lon="34.7097900">
<ele>803.229980</ele>
<time>2024-01-03T12:42:17.635Z</time>
</trkpt>
<trkpt lat="30.5935400" lon="34.7097300">
<ele>804.599976</ele>
<time>2024-01-03T12:42:17.635Z</time>
</trkpt>
<trkpt lat="30.5936400" lon="34.7097600">
<ele>807.750000</ele>
<time>2024-01-03T12:42:17.635Z</time>
</trkpt>
<trkpt lat="30.5936700" lon="34.7099500">
<ele>805.780029</ele>
<time>2024-01-03T12:42:17.635Z</time>
</trkpt>
<trkpt lat="30.5936500" lon="34.7099800">
<ele>804.589966</ele>
<time>2024-01-03T12:42:17.635Z</time>
</trkpt>
<trkpt lat="30.5936700" lon="34.7099500">
<ele>805.780029</ele>
<time>2024-01-03T12:42:17.635Z</time>
</trkpt>
<trkpt lat="30.5936400" lon="34.7097600">
<ele>807.750000</ele>
<time>2024-01-03T12:42:17.635Z</time>
</trkpt>
<trkpt lat="30.5935400" lon="34.7097300">
<ele>804.599976</ele>
<time>2024-01-03T12:42:17.635Z</time>
</trkpt>
<trkpt lat="30.5935200" lon="34.7097900">
<ele>803.229980</ele>
<time>2024-01-03T12:42:17.635Z</time>
</trkpt>
<trkpt lat="30.5934600" lon="34.7097300">
<ele>802.020020</ele>
<time>2024-01-03T12:42:17.635Z</time>
</trkpt>
<trkpt lat="30.5933600" lon="34.7096200">
<ele>800.440002</ele>
<time>2024-01-03T12:42:17.635Z</time>
</trkpt>
<trkpt lat="30.5933100" lon="34.7097900">
<ele>797.130005</ele>
<time>2024-01-03T12:42:17.635Z</time>
</trkpt>
<trkpt lat="30.5932200" lon="34.7099100">
<ele>795.160034</ele>
<time>2024-01-03T12:42:17.635Z</time>
</trkpt>
<trkpt lat="30.5933900" lon="34.7100700">
<ele>797.220032</ele>
<time>2024-01-03T12:42:17.635Z</time>
</trkpt>
<trkpt lat="30.5935200" lon="34.7104100">
<ele>798.479980</ele>
<time>2024-01-03T12:42:17.635Z</time>
</trkpt>
<trkpt lat="30.5932800" lon="34.7103100">
<ele>796.159973</ele>
<time>2024-01-03T12:42:17.635Z</time>
</trkpt>
<trkpt lat="30.5929700" lon="34.7105200">
<ele>797.880005</ele>
<time>2024-01-03T12:42:17.635Z</time>
</trkpt>
<trkpt lat="30.5928800" lon="34.7108600">
<ele>802.210022</ele>
<time>2024-01-03T12:42:17.635Z</time>
</trkpt>
<trkpt lat="30.5927500" lon="34.7111300">
<ele>807.829956</ele>
<time>2024-01-03T12:42:17.635Z</time>
</trkpt>
<trkpt lat="30.5926500" lon="34.7113300">
<ele>807.829956</ele>
<time>2024-01-03T12:42:17.635Z</time>
</trkpt>
<trkpt lat="30.5924800" lon="34.7116300">
<ele>806.980042</ele>
<time>2024-01-03T12:42:17.635Z</time>
</trkpt>
<trkpt lat="30.5928700" lon="34.7114300">
<ele>810.809998</ele>
<time>2024-01-03T12:42:17.635Z</time>
</trkpt>
<trkpt lat="30.5930500" lon="34.7113400">
<ele>811.089966</ele>
<time>2024-01-03T12:42:17.635Z</time>
</trkpt>
<trkpt lat="30.5930900" lon="34.7116100">
<ele>814.730042</ele>
<time>2024-01-03T12:42:17.635Z</time>
</trkpt>
<trkpt lat="30.5930900" lon="34.7120700">
<ele>819.759949</ele>
<time>2024-01-03T12:42:17.635Z</time>
</trkpt>
<trkpt lat="30.5931000" lon="34.7120700">
<ele>819.900024</ele>
<time>2024-01-03T12:42:17.635Z</time>
</trkpt>
<trkpt lat="30.5930900" lon="34.7120700">
<ele>819.759949</ele>
<time>2024-01-03T12:42:17.635Z</time>
</trkpt>
<trkpt lat="30.5930900" lon="34.7121200">
<ele>820.660034</ele>
<time>2024-01-03T12:42:17.635Z</time>
</trkpt>
<trkpt lat="30.5931200" lon="34.7123100">
<ele>824.360046</ele>
<time>2024-01-03T12:42:17.635Z</time>
</trkpt>
<trkpt lat="30.5931400" lon="34.7125900">
<ele>829.779968</ele>
<time>2024-01-03T12:42:17.635Z</time>
</trkpt>
<trkpt lat="30.5931100" lon="34.7127700">
<ele>834.009949</ele>
<time>2024-01-03T12:42:17.635Z</time>
</trkpt>
<trkpt lat="30.5934600" lon="34.7134600">
<ele>849.100037</ele>
<time>2024-01-03T12:42:17.635Z</time>
</trkpt>
<trkpt lat="30.5938000" lon="34.7137500">
<ele>850.640015</ele>
<time>2024-01-03T12:42:17.635Z</time>
</trkpt>
<trkpt lat="30.5940100" lon="34.7142900">
<ele>842.520020</ele>
<time>2024-01-03T12:42:17.635Z</time>
</trkpt>
<trkpt lat="30.5939000" lon="34.7143400">
<ele>846.260010</ele>
<time>2024-01-03T12:42:17.635Z</time>
</trkpt>
<trkpt lat="30.5932200" lon="34.7146700">
<ele>841.369995</ele>
<time>2024-01-03T12:42:17.635Z</time>
</trkpt>
<trkpt lat="30.5930700" lon="34.7149100">
<ele>840.289978</ele>
<time>2024-01-03T12:42:17.635Z</time>
</trkpt>
<trkpt lat="30.5929400" lon="34.7151000">
<ele>840.269958</ele>
<time>2024-01-03T12:42:17.635Z</time>
</trkpt>
<trkpt lat="30.5928800" lon="34.7151800">
<ele>840.219971</ele>
<time>2024-01-03T12:42:17.635Z</time>
</trkpt>
<trkpt lat="30.5926300" lon="34.7157700">
<ele>832.090027</ele>
<time>2024-01-03T12:42:17.635Z</time>
</trkpt>
<trkpt lat="30.5926200" lon="34.7160600">
<ele>832.849976</ele>
<time>2024-01-03T12:42:17.635Z</time>
</trkpt>
<trkpt lat="30.5926100" lon="34.7169400">
<ele>831.269958</ele>
<time>2024-01-03T12:42:17.635Z</time>
</trkpt>
<trkpt lat="30.5925000" lon="34.7174900">
<ele>819.220032</ele>
<time>2024-01-03T12:42:17.635Z</time>
</trkpt>
<trkpt lat="30.5923700" lon="34.7183300">
<ele>823.479980</ele>
<time>2024-01-03T12:42:17.635Z</time>
</trkpt>
<trkpt lat="30.5924700" lon="34.7184200">
<ele>825.070007</ele>
<time>2024-01-03T12:42:17.635Z</time>
</trkpt>
<trkpt lat="30.5926200" lon="34.7185100">
<ele>828.390015</ele>
<time>2024-01-03T12:42:17.635Z</time>
</trkpt>
<trkpt lat="30.5928100" lon="34.7186300">
<ele>832.900024</ele>
<time>2024-01-03T12:42:17.635Z</time>
</trkpt>
<trkpt lat="30.5930700" lon="34.7186700">
<ele>831.179993</ele>
<time>2024-01-03T12:42:17.635Z</time>
</trkpt>
<trkpt lat="30.5931900" lon="34.7188400">
<ele>832.140015</ele>
<time>2024-01-03T12:42:17.635Z</time>
</trkpt>
<trkpt lat="30.5934100" lon="34.7191400">
<ele>834.339966</ele>
<time>2024-01-03T12:42:17.635Z</time>
</trkpt>
<trkpt lat="30.5935300" lon="34.7200200">
<ele>830.600037</ele>
<time>2024-01-03T12:42:17.635Z</time>
</trkpt>
<trkpt lat="30.5935000" lon="34.7204600">
<ele>831.579956</ele>
<time>2024-01-03T12:42:17.635Z</time>
</trkpt>
<trkpt lat="30.5935100" lon="34.7206800">
<ele>833.780029</ele>
<time>2024-01-03T12:42:17.635Z</time>
</trkpt>
<trkpt lat="30.5936600" lon="34.7207200">
<ele>834.529968</ele>
<time>2024-01-03T12:42:17.635Z</time>
</trkpt>
<trkpt lat="30.5940800" lon="34.7204300">
<ele>827.130005</ele>
<time>2024-01-03T12:42:17.635Z</time>
</trkpt>
<trkpt lat="30.5941200" lon="34.7204200">
<ele>826.550049</ele>
<time>2024-01-03T12:42:17.635Z</time>
</trkpt>
<trkpt lat="30.5941200" lon="34.7204000">
<ele>826.259949</ele>
<time>2024-01-03T12:42:17.635Z</time>
</trkpt>
<trkpt lat="30.5941200" lon="34.7204200">
<ele>826.550049</ele>
<time>2024-01-03T12:42:17.635Z</time>
</trkpt>
<trkpt lat="30.5946700" lon="34.7204100">
<ele>835.409973</ele>
<time>2024-01-03T12:42:17.635Z</time>
</trkpt>
<trkpt lat="30.5951400" lon="34.7205300">
<ele>837.590027</ele>
<time>2024-01-03T12:42:17.635Z</time>
</trkpt>
<trkpt lat="30.5954400" lon="34.7209500">
<ele>835.259949</ele>
<time>2024-01-03T12:42:17.635Z</time>
</trkpt>
<trkpt lat="30.5955000" lon="34.7215100">
<ele>834.109985</ele>
<time>2024-01-03T12:42:17.635Z</time>
</trkpt>
<trkpt lat="30.5958600" lon="34.7220100">
<ele>829.070007</ele>
<time>2024-01-03T12:42:17.635Z</time>
</trkpt>
<trkpt lat="30.5963300" lon="34.7222200">
<ele>830.570007</ele>
<time>2024-01-03T12:42:17.635Z</time>
</trkpt>
<trkpt lat="30.5965100" lon="34.7226200">
<ele>828.720032</ele>
<time>2024-01-03T12:42:17.635Z</time>
</trkpt>
<trkpt lat="30.5969700" lon="34.7229000">
<ele>832.129944</ele>
<time>2024-01-03T12:42:17.635Z</time>
</trkpt>
<trkpt lat="30.5969400" lon="34.7232000">
<ele>828.900024</ele>
<time>2024-01-03T12:42:17.635Z</time>
</trkpt>
<trkpt lat="30.5969200" lon="34.7233900">
<ele>827.789978</ele>
<time>2024-01-03T12:42:17.635Z</time>
</trkpt>
<trkpt lat="30.5969000" lon="34.7235300">
<ele>827.860046</ele>
<time>2024-01-03T12:42:17.635Z</time>
</trkpt>
<trkpt lat="30.5970600" lon="34.7241700">
<ele>828.480042</ele>
<time>2024-01-03T12:42:17.635Z</time>
</trkpt>
<trkpt lat="30.5973500" lon="34.7248300">
<ele>815.179993</ele>
<time>2024-01-03T12:42:17.635Z</time>
</trkpt>
<trkpt lat="30.5974500" lon="34.7253300">
<ele>818.440002</ele>
<time>2024-01-03T12:42:17.635Z</time>
</trkpt>
<trkpt lat="30.5974800" lon="34.7262100">
<ele>833.529968</ele>
<time>2024-01-03T12:42:17.635Z</time>
</trkpt>
<trkpt lat="30.5974900" lon="34.7262100">
<ele>833.549988</ele>
<time>2024-01-03T12:42:17.635Z</time>
</trkpt>
<trkpt lat="30.5974800" lon="34.7262100">
<ele>833.529968</ele>
<time>2024-01-03T12:42:17.635Z</time>
</trkpt>
<trkpt lat="30.5974900" lon="34.7266700">
<ele>826.169983</ele>
<time>2024-01-03T12:42:17.635Z</time>
</trkpt>
<trkpt lat="30.5980000" lon="34.7274500">
<ele>828.570007</ele>
<time>2024-01-03T12:42:17.635Z</time>
</trkpt>
<trkpt lat="30.5982000" lon="34.7279200">
<ele>829.719971</ele>
<time>2024-01-03T12:42:17.635Z</time>
</trkpt>
<trkpt lat="30.5984000" lon="34.7283900">
<ele>828.000000</ele>
<time>2024-01-03T12:42:17.635Z</time>
</trkpt>
<trkpt lat="30.5988300" lon="34.7289000">
<ele>829.959961</ele>
<time>2024-01-03T12:42:17.635Z</time>
</trkpt>
<trkpt lat="30.5991200" lon="34.7292500">
<ele>824.020020</ele>
<time>2024-01-03T12:42:17.635Z</time>
</trkpt>
<trkpt lat="30.5994000" lon="34.7297100">
<ele>823.810059</ele>
<time>2024-01-03T12:42:17.635Z</time>
</trkpt>
<trkpt lat="30.5996700" lon="34.7301700">
<ele>824.580017</ele>
<time>2024-01-03T12:42:17.635Z</time>
</trkpt>
<trkpt lat="30.5999500" lon="34.7306300">
<ele>815.250061</ele>
<time>2024-01-03T12:42:17.635Z</time>
</trkpt>
<trkpt lat="30.6002200" lon="34.7310900">
<ele>810.419983</ele>
<time>2024-01-03T12:42:17.635Z</time>
</trkpt>
<trkpt lat="30.6005300" lon="34.7317600">
<ele>811.190002</ele>
<time>2024-01-03T12:42:17.635Z</time>
</trkpt>
<trkpt lat="30.6005900" lon="34.7318000">
<ele>811.619995</ele>
<time>2024-01-03T12:42:17.635Z</time>
</trkpt>
<trkpt lat="30.6006600" lon="34.7318500">
<ele>812.599976</ele>
<time>2024-01-03T12:42:17.635Z</time>
</trkpt>
<trkpt lat="30.6007500" lon="34.7319300">
<ele>814.210022</ele>
<time>2024-01-03T12:42:17.635Z</time>
</trkpt>
<trkpt lat="30.6008500" lon="34.7320100">
<ele>816.989990</ele>
<time>2024-01-03T12:42:17.635Z</time>
</trkpt>
<trkpt lat="30.6009500" lon="34.7320700">
<ele>821.529968</ele>
<time>2024-01-03T12:42:17.635Z</time>
</trkpt>
<trkpt lat="30.6010600" lon="34.7321100">
<ele>825.759949</ele>
<time>2024-01-03T12:42:17.635Z</time>
</trkpt>
<trkpt lat="30.6011700" lon="34.7321400">
<ele>828.940002</ele>
<time>2024-01-03T12:42:17.635Z</time>
</trkpt>
<trkpt lat="30.6012800" lon="34.7321800">
<ele>831.520020</ele>
<time>2024-01-03T12:42:17.635Z</time>
</trkpt>
<trkpt lat="30.6013800" lon="34.7322000">
<ele>833.600037</ele>
<time>2024-01-03T12:42:17.635Z</time>
</trkpt>
<trkpt lat="30.6014700" lon="34.7322300">
<ele>834.260010</ele>
<time>2024-01-03T12:42:17.635Z</time>
</trkpt>
<trkpt lat="30.6015600" lon="34.7323300">
<ele>834.560059</ele>
<time>2024-01-03T12:42:17.635Z</time>
</trkpt>
<trkpt lat="30.6016200" lon="34.7324100">
<ele>835.169983</ele>
<time>2024-01-03T12:42:17.635Z</time>
</trkpt>
<trkpt lat="30.6016800" lon="34.7324900">
<ele>835.809998</ele>
<time>2024-01-03T12:42:17.635Z</time>
</trkpt>
<trkpt lat="30.6017200" lon="34.7326000">
<ele>834.430054</ele>
<time>2024-01-03T12:42:17.635Z</time>
</trkpt>
<trkpt lat="30.6017800" lon="34.7326900">
<ele>832.290039</ele>
<time>2024-01-03T12:42:17.635Z</time>
</trkpt>
<trkpt lat="30.6018500" lon="34.7327700">
<ele>829.510010</ele>
<time>2024-01-03T12:42:17.635Z</time>
</trkpt>
<trkpt lat="30.6019400" lon="34.7328300">
<ele>828.189941</ele>
<time>2024-01-03T12:42:17.635Z</time>
</trkpt>
<trkpt lat="30.6020200" lon="34.7328900">
<ele>831.859985</ele>
<time>2024-01-03T12:42:17.635Z</time>
</trkpt>
<trkpt lat="30.6021000" lon="34.7329700">
<ele>834.560059</ele>
<time>2024-01-03T12:42:17.635Z</time>
</trkpt>
<trkpt lat="30.6021700" lon="34.7330500">
<ele>835.480042</ele>
<time>2024-01-03T12:42:17.635Z</time>
</trkpt>
<trkpt lat="30.6022600" lon="34.7331100">
<ele>833.539978</ele>
<time>2024-01-03T12:42:17.635Z</time>
</trkpt>
<trkpt lat="30.6023500" lon="34.7331500">
<ele>831.619995</ele>
<time>2024-01-03T12:42:17.635Z</time>
</trkpt>
<trkpt lat="30.6024400" lon="34.7331900">
<ele>829.790039</ele>
<time>2024-01-03T12:42:17.635Z</time>
</trkpt>
<trkpt lat="30.6025100" lon="34.7332500">
<ele>827.399963</ele>
<time>2024-01-03T12:42:17.635Z</time>
</trkpt>
<trkpt lat="30.6026000" lon="34.7333000">
<ele>826.820007</ele>
<time>2024-01-03T12:42:17.635Z</time>
</trkpt>
<trkpt lat="30.6027200" lon="34.7333600">
<ele>827.020020</ele>
<time>2024-01-03T12:42:17.635Z</time>
</trkpt>
<trkpt lat="30.6027900" lon="34.7334200">
<ele>825.830017</ele>
<time>2024-01-03T12:42:17.635Z</time>
</trkpt>
<trkpt lat="30.6028800" lon="34.7334600">
<ele>824.210022</ele>
<time>2024-01-03T12:42:17.635Z</time>
</trkpt>
<trkpt lat="30.6029600" lon="34.7335000">
<ele>822.870056</ele>
<time>2024-01-03T12:42:17.635Z</time>
</trkpt>
<trkpt lat="30.6030600" lon="34.7335900">
<ele>820.530029</ele>
<time>2024-01-03T12:42:17.635Z</time>
</trkpt>
<trkpt lat="30.6030800" lon="34.7337000">
<ele>819.390015</ele>
<time>2024-01-03T12:42:17.635Z</time>
</trkpt>
<trkpt lat="30.6030900" lon="34.7338200">
<ele>818.590027</ele>
<time>2024-01-03T12:42:17.635Z</time>
</trkpt>
<trkpt lat="30.6030900" lon="34.7339400">
<ele>817.089966</ele>
<time>2024-01-03T12:42:17.635Z</time>
</trkpt>
<trkpt lat="30.6030900" lon="34.7340600">
<ele>814.660034</ele>
<time>2024-01-03T12:42:17.635Z</time>
</trkpt>
<trkpt lat="30.6030900" lon="34.7341700">
<ele>812.510010</ele>
<time>2024-01-03T12:42:17.635Z</time>
</trkpt>
<trkpt lat="30.6030900" lon="34.7342700">
<ele>812.819946</ele>
<time>2024-01-03T12:42:17.635Z</time>
</trkpt>
<trkpt lat="30.6030900" lon="34.7344200">
<ele>813.289978</ele>
<time>2024-01-03T12:42:17.635Z</time>
</trkpt>
<trkpt lat="30.6031100" lon="34.7345300">
<ele>813.469971</ele>
<time>2024-01-03T12:42:17.635Z</time>
</trkpt>
<trkpt lat="30.6031500" lon="34.7346300">
<ele>813.570007</ele>
<time>2024-01-03T12:42:17.635Z</time>
</trkpt>
<trkpt lat="30.6032100" lon="34.7347400">
<ele>813.580017</ele>
<time>2024-01-03T12:42:17.635Z</time>
</trkpt>
<trkpt lat="30.6032600" lon="34.7348300">
<ele>813.840027</ele>
<time>2024-01-03T12:42:17.635Z</time>
</trkpt>
<trkpt lat="30.6033100" lon="34.7349200">
<ele>813.979980</ele>
<time>2024-01-03T12:42:17.635Z</time>
</trkpt>
<trkpt lat="30.6033500" lon="34.7350500">
<ele>814.510010</ele>
<time>2024-01-03T12:42:17.635Z</time>
</trkpt>
<trkpt lat="30.6033800" lon="34.7351600">
<ele>815.440002</ele>
<time>2024-01-03T12:42:17.635Z</time>
</trkpt>
<trkpt lat="30.6034100" lon="34.7352800">
<ele>816.190002</ele>
<time>2024-01-03T12:42:17.635Z</time>
</trkpt>
<trkpt lat="30.6034600" lon="34.7354000">
<ele>816.510010</ele>
<time>2024-01-03T12:42:17.635Z</time>
</trkpt>
<trkpt lat="30.6035100" lon="34.7354900">
<ele>816.619995</ele>
<time>2024-01-03T12:42:17.635Z</time>
</trkpt>
<trkpt lat="30.6035700" lon="34.7355700">
<ele>816.510010</ele>
<time>2024-01-03T12:42:17.635Z</time>
</trkpt>
<trkpt lat="30.6036200" lon="34.7356900">
<ele>816.400024</ele>
<time>2024-01-03T12:42:17.635Z</time>
</trkpt>
<trkpt lat="30.6036700" lon="34.7357800">
<ele>816.469971</ele>
<time>2024-01-03T12:42:17.635Z</time>
</trkpt>
<trkpt lat="30.6037400" lon="34.7358900">
<ele>816.660034</ele>
<time>2024-01-03T12:42:17.635Z</time>
</trkpt>
<trkpt lat="30.6037700" lon="34.7360000">
<ele>816.599976</ele>
<time>2024-01-03T12:42:17.635Z</time>
</trkpt>
<trkpt lat="30.6038300" lon="34.7361000">
<ele>815.859985</ele>
<time>2024-01-03T12:42:17.635Z</time>
</trkpt>
<trkpt lat="30.6039100" lon="34.7361900">
<ele>815.260010</ele>
<time>2024-01-03T12:42:17.635Z</time>
</trkpt>
<trkpt lat="30.6040000" lon="34.7363000">
<ele>814.760010</ele>
<time>2024-01-03T12:42:17.635Z</time>
</trkpt>
<trkpt lat="30.6040900" lon="34.7363800">
<ele>814.039978</ele>
<time>2024-01-03T12:42:17.635Z</time>
</trkpt>
<trkpt lat="30.6041800" lon="34.7364400">
<ele>812.809998</ele>
<time>2024-01-03T12:42:17.635Z</time>
</trkpt>
<trkpt lat="30.6042900" lon="34.7365100">
<ele>812.369995</ele>
<time>2024-01-03T12:42:17.635Z</time>
</trkpt>
<trkpt lat="30.6043800" lon="34.7366200">
<ele>811.530029</ele>
<time>2024-01-03T12:42:17.635Z</time>
</trkpt>
<trkpt lat="30.6045000" lon="34.7366900">
<ele>811.109985</ele>
<time>2024-01-03T12:42:17.635Z</time>
</trkpt>
<trkpt lat="30.6045800" lon="34.7367400">
<ele>811.310059</ele>
<time>2024-01-03T12:42:17.635Z</time>
</trkpt>
<trkpt lat="30.6046500" lon="34.7368200">
<ele>811.500000</ele>
<time>2024-01-03T12:42:17.635Z</time>
</trkpt>
<trkpt lat="30.6047000" lon="34.7369100">
<ele>811.749939</ele>
<time>2024-01-03T12:42:17.635Z</time>
</trkpt>
<trkpt lat="30.6047300" lon="34.7370100">
<ele>811.890015</ele>
<time>2024-01-03T12:42:17.635Z</time>
</trkpt>
<trkpt lat="30.6047600" lon="34.7371300">
<ele>812.059998</ele>
<time>2024-01-03T12:42:17.635Z</time>
</trkpt>
<trkpt lat="30.6047700" lon="34.7372600">
<ele>811.899963</ele>
<time>2024-01-03T12:42:17.635Z</time>
</trkpt>
<trkpt lat="30.6047900" lon="34.7374100">
<ele>811.789978</ele>
<time>2024-01-03T12:42:17.635Z</time>
</trkpt>
<trkpt lat="30.6048000" lon="34.7375500">
<ele>811.270020</ele>
<time>2024-01-03T12:42:17.635Z</time>
</trkpt>
<trkpt lat="30.6048300" lon="34.7376800">
<ele>810.779968</ele>
<time>2024-01-03T12:42:17.635Z</time>
</trkpt>
<trkpt lat="30.6048600" lon="34.7377900">
<ele>810.370056</ele>
<time>2024-01-03T12:42:17.635Z</time>
</trkpt>
<trkpt lat="30.6048800" lon="34.7379000">
<ele>809.709961</ele>
<time>2024-01-03T12:42:17.635Z</time>
</trkpt>
<trkpt lat="30.6049000" lon="34.7380000">
<ele>809.089966</ele>
<time>2024-01-03T12:42:17.635Z</time>
</trkpt>
<trkpt lat="30.6049600" lon="34.7381200">
<ele>809.029968</ele>
<time>2024-01-03T12:42:17.635Z</time>
</trkpt>
<trkpt lat="30.6050400" lon="34.7382100">
<ele>809.020020</ele>
<time>2024-01-03T12:42:17.635Z</time>
</trkpt>
<trkpt lat="30.6051100" lon="34.7383100">
<ele>808.230042</ele>
<time>2024-01-03T12:42:17.635Z</time>
</trkpt>
<trkpt lat="30.6051800" lon="34.7384100">
<ele>808.000000</ele>
<time>2024-01-03T12:42:17.635Z</time>
</trkpt>
<trkpt lat="30.6052400" lon="34.7385200">
<ele>808.000000</ele>
<time>2024-01-03T12:42:17.635Z</time>
</trkpt>
<trkpt lat="30.6053100" lon="34.7386100">
<ele>808.349976</ele>
<time>2024-01-03T12:42:17.635Z</time>
</trkpt>
<trkpt lat="30.6053500" lon="34.7387200">
<ele>809.670044</ele>
<time>2024-01-03T12:42:17.635Z</time>
</trkpt>
<trkpt lat="30.6053700" lon="34.7388400">
<ele>810.920044</ele>
<time>2024-01-03T12:42:17.635Z</time>
</trkpt>
<trkpt lat="30.6053900" lon="34.7389600">
<ele>811.869995</ele>
<time>2024-01-03T12:42:17.635Z</time>
</trkpt>
<trkpt lat="30.6054000" lon="34.7390900">
<ele>812.479980</ele>
<time>2024-01-03T12:42:17.635Z</time>
</trkpt>
<trkpt lat="30.6054100" lon="34.7392200">
<ele>813.110046</ele>
<time>2024-01-03T12:42:17.635Z</time>
</trkpt>
<trkpt lat="30.6054100" lon="34.7393500">
<ele>813.599976</ele>
<time>2024-01-03T12:42:17.635Z</time>
</trkpt>
<trkpt lat="30.6054100" lon="34.7394800">
<ele>814.279968</ele>
<time>2024-01-03T12:42:17.635Z</time>
</trkpt>
<trkpt lat="30.6054200" lon="34.7396100">
<ele>815.510010</ele>
<time>2024-01-03T12:42:17.635Z</time>
</trkpt>
<trkpt lat="30.6054200" lon="34.7397300">
<ele>816.599976</ele>
<time>2024-01-03T12:42:17.635Z</time>
</trkpt>
<trkpt lat="30.6054200" lon="34.7398500">
<ele>817.880005</ele>
<time>2024-01-03T12:42:17.635Z</time>
</trkpt>
<trkpt lat="30.6054300" lon="34.7399800">
<ele>819.239990</ele>
<time>2024-01-03T12:42:17.635Z</time>
</trkpt>
<trkpt lat="30.6054500" lon="34.7401000">
<ele>819.380005</ele>
<time>2024-01-03T12:42:17.635Z</time>
</trkpt>
<trkpt lat="30.6054700" lon="34.7402200">
<ele>819.309998</ele>
<time>2024-01-03T12:42:17.635Z</time>
</trkpt>
<trkpt lat="30.6055100" lon="34.7403500">
<ele>819.029968</ele>
<time>2024-01-03T12:42:17.635Z</time>
</trkpt>
<trkpt lat="30.6055600" lon="34.7404800">
<ele>818.210022</ele>
<time>2024-01-03T12:42:17.635Z</time>
</trkpt>
<trkpt lat="30.6056100" lon="34.7406100">
<ele>817.690002</ele>
<time>2024-01-03T12:42:17.635Z</time>
</trkpt>
<trkpt lat="30.6056500" lon="34.7407100">
<ele>817.739990</ele>
<time>2024-01-03T12:42:17.635Z</time>
</trkpt>
<trkpt lat="30.6057200" lon="34.7408000">
<ele>816.709961</ele>
<time>2024-01-03T12:42:17.635Z</time>
</trkpt>
<trkpt lat="30.6057700" lon="34.7409000">
<ele>815.599976</ele>
<time>2024-01-03T12:42:17.635Z</time>
</trkpt>
<trkpt lat="30.6058200" lon="34.7410000">
<ele>814.340027</ele>
<time>2024-01-03T12:42:17.635Z</time>
</trkpt>
<trkpt lat="30.6059000" lon="34.7411000">
<ele>812.070007</ele>
<time>2024-01-03T12:42:17.635Z</time>
</trkpt>
<trkpt lat="30.6059500" lon="34.7412100">
<ele>810.729980</ele>
<time>2024-01-03T12:42:17.635Z</time>
</trkpt>
<trkpt lat="30.6060100" lon="34.7413200">
<ele>809.590027</ele>
<time>2024-01-03T12:42:17.635Z</time>
</trkpt>
<trkpt lat="30.6060800" lon="34.7414300">
<ele>808.840027</ele>
<time>2024-01-03T12:42:17.635Z</time>
</trkpt>
<trkpt lat="30.6061100" lon="34.7415600">
<ele>809.250000</ele>
<time>2024-01-03T12:42:17.635Z</time>
</trkpt>
<trkpt lat="30.6061400" lon="34.7416900">
<ele>809.570007</ele>
<time>2024-01-03T12:42:17.635Z</time>
</trkpt>
<trkpt lat="30.6061700" lon="34.7418200">
<ele>809.609985</ele>
<time>2024-01-03T12:42:17.635Z</time>
</trkpt>
<trkpt lat="30.6061800" lon="34.7419700">
<ele>810.079956</ele>
<time>2024-01-03T12:42:17.635Z</time>
</trkpt>
<trkpt lat="30.6062000" lon="34.7421000">
<ele>810.099976</ele>
<time>2024-01-03T12:42:17.635Z</time>
</trkpt>
<trkpt lat="30.6062300" lon="34.7422300">
<ele>809.850037</ele>
<time>2024-01-03T12:42:17.635Z</time>
</trkpt>
<trkpt lat="30.6062400" lon="34.7423700">
<ele>809.430054</ele>
<time>2024-01-03T12:42:17.635Z</time>
</trkpt>
<trkpt lat="30.6062700" lon="34.7425000">
<ele>808.570007</ele>
<time>2024-01-03T12:42:17.635Z</time>
</trkpt>
<trkpt lat="30.6063000" lon="34.7426400">
<ele>807.250000</ele>
<time>2024-01-03T12:42:17.635Z</time>
</trkpt>
<trkpt lat="30.6063000" lon="34.7427900">
<ele>806.650024</ele>
<time>2024-01-03T12:42:17.635Z</time>
</trkpt>
<trkpt lat="30.6062300" lon="34.7428300">
<ele>807.779968</ele>
<time>2024-01-03T12:42:17.635Z</time>
</trkpt>
<trkpt lat="30.6061400" lon="34.7428300">
<ele>809.029968</ele>
<time>2024-01-03T12:42:17.635Z</time>
</trkpt>
<trkpt lat="30.6060500" lon="34.7428300">
<ele>809.309998</ele>
<time>2024-01-03T12:42:17.635Z</time>
</trkpt>
<trkpt lat="30.6060400" lon="34.7429500">
<ele>807.660034</ele>
<time>2024-01-03T12:42:17.635Z</time>
</trkpt>
<trkpt lat="30.6060500" lon="34.7430600">
<ele>806.239990</ele>
<time>2024-01-03T12:42:17.635Z</time>
</trkpt>
<trkpt lat="30.6060700" lon="34.7431600">
<ele>804.039978</ele>
<time>2024-01-03T12:42:17.635Z</time>
</trkpt>
<trkpt lat="30.6061300" lon="34.7433000">
<ele>801.090027</ele>
<time>2024-01-03T12:42:17.635Z</time>
</trkpt>
<trkpt lat="30.6061900" lon="34.7434300">
<ele>800.390015</ele>
<time>2024-01-03T12:42:17.635Z</time>
</trkpt>
<trkpt lat="30.6062400" lon="34.7435600">
<ele>799.529968</ele>
<time>2024-01-03T12:42:17.635Z</time>
</trkpt>
<trkpt lat="30.6062800" lon="34.7437000">
<ele>799.179993</ele>
<time>2024-01-03T12:42:17.635Z</time>
</trkpt>
<trkpt lat="30.6063200" lon="34.7438400">
<ele>798.989990</ele>
<time>2024-01-03T12:42:17.635Z</time>
</trkpt>
<trkpt lat="30.6063900" lon="34.7439600">
<ele>797.740051</ele>
<time>2024-01-03T12:42:17.635Z</time>
</trkpt>
<trkpt lat="30.6064800" lon="34.7440700">
<ele>797.659973</ele>
<time>2024-01-03T12:42:17.635Z</time>
</trkpt>
<trkpt lat="30.6065500" lon="34.7441400">
<ele>798.090027</ele>
<time>2024-01-03T12:42:17.635Z</time>
</trkpt>
<trkpt lat="30.6066200" lon="34.7442100">
<ele>798.250000</ele>
<time>2024-01-03T12:42:17.635Z</time>
</trkpt>
<trkpt lat="30.6067000" lon="34.7442800">
<ele>798.090027</ele>
<time>2024-01-03T12:42:17.635Z</time>
</trkpt>
<trkpt lat="30.6067800" lon="34.7443500">
<ele>797.969971</ele>
<time>2024-01-03T12:42:17.635Z</time>
</trkpt>
<trkpt lat="30.6068500" lon="34.7444200">
<ele>797.640015</ele>
<time>2024-01-03T12:42:17.635Z</time>
</trkpt>
<trkpt lat="30.6069300" lon="34.7444900">
<ele>797.900024</ele>
<time>2024-01-03T12:42:17.635Z</time>
</trkpt>
<trkpt lat="30.6070100" lon="34.7445600">
<ele>798.710022</ele>
<time>2024-01-03T12:42:17.635Z</time>
</trkpt>
<trkpt lat="30.6070800" lon="34.7446200">
<ele>799.459961</ele>
<time>2024-01-03T12:42:17.635Z</time>
</trkpt>
<trkpt lat="30.6071600" lon="34.7446800">
<ele>800.330017</ele>
<time>2024-01-03T12:42:17.635Z</time>
</trkpt>
<trkpt lat="30.6072400" lon="34.7447300">
<ele>801.259949</ele>
<time>2024-01-03T12:42:17.635Z</time>
</trkpt>
<trkpt lat="30.6073200" lon="34.7447900">
<ele>802.580017</ele>
<time>2024-01-03T12:42:17.635Z</time>
</trkpt>
<trkpt lat="30.6074300" lon="34.7448500">
<ele>803.419983</ele>
<time>2024-01-03T12:42:17.635Z</time>
</trkpt>
<trkpt lat="30.6075400" lon="34.7449000">
<ele>803.480042</ele>
<time>2024-01-03T12:42:17.635Z</time>
</trkpt>
<trkpt lat="30.6076500" lon="34.7449700">
<ele>803.720032</ele>
<time>2024-01-03T12:42:17.635Z</time>
</trkpt>
<trkpt lat="30.6077500" lon="34.7450700">
<ele>804.480042</ele>
<time>2024-01-03T12:42:17.635Z</time>
</trkpt>
<trkpt lat="30.6078300" lon="34.7451300">
<ele>804.450012</ele>
<time>2024-01-03T12:42:17.635Z</time>
</trkpt>
<trkpt lat="30.6079000" lon="34.7451800">
<ele>804.389954</ele>
<time>2024-01-03T12:42:17.635Z</time>
</trkpt>
<trkpt lat="30.6079900" lon="34.7452300">
<ele>804.500000</ele>
<time>2024-01-03T12:42:17.635Z</time>
</trkpt>
<trkpt lat="30.6080700" lon="34.7452800">
<ele>804.939941</ele>
<time>2024-01-03T12:42:17.635Z</time>
</trkpt>
<trkpt lat="30.6081500" lon="34.7453300">
<ele>805.509949</ele>
<time>2024-01-03T12:42:17.635Z</time>
</trkpt>
<trkpt lat="30.6082200" lon="34.7454000">
<ele>806.720032</ele>
<time>2024-01-03T12:42:17.635Z</time>
</trkpt>
<trkpt lat="30.6083400" lon="34.7454700">
<ele>807.739990</ele>
<time>2024-01-03T12:42:17.635Z</time>
</trkpt>
<trkpt lat="30.6084300" lon="34.7455100">
<ele>807.049988</ele>
<time>2024-01-03T12:42:17.635Z</time>
</trkpt>
<trkpt lat="30.6085200" lon="34.7455600">
<ele>806.000000</ele>
<time>2024-01-03T12:42:17.635Z</time>
</trkpt>
<trkpt lat="30.6086400" lon="34.7456200">
<ele>804.420044</ele>
<time>2024-01-03T12:42:17.635Z</time>
</trkpt>
<trkpt lat="30.6087200" lon="34.7456800">
<ele>804.030029</ele>
<time>2024-01-03T12:42:17.635Z</time>
</trkpt>
<trkpt lat="30.6088100" lon="34.7457500">
<ele>803.159973</ele>
<time>2024-01-03T12:42:17.635Z</time>
</trkpt>
<trkpt lat="30.6089000" lon="34.7458100">
<ele>801.849976</ele>
<time>2024-01-03T12:42:17.635Z</time>
</trkpt>
<trkpt lat="30.6089900" lon="34.7458600">
<ele>800.669983</ele>
<time>2024-01-03T12:42:17.635Z</time>
</trkpt>
<trkpt lat="30.6090900" lon="34.7459100">
<ele>799.260010</ele>
<time>2024-01-03T12:42:17.635Z</time>
</trkpt>
<trkpt lat="30.6091800" lon="34.7459400">
<ele>798.000061</ele>
<time>2024-01-03T12:42:17.635Z</time>
</trkpt>
<trkpt lat="30.6092700" lon="34.7459600">
<ele>798.000061</ele>
<time>2024-01-03T12:42:17.635Z</time>
</trkpt>
<trkpt lat="30.6094000" lon="34.7459800">
<ele>798.000061</ele>
<time>2024-01-03T12:42:17.635Z</time>
</trkpt>
<trkpt lat="30.6095300" lon="34.7460100">
<ele>797.889954</ele>
<time>2024-01-03T12:42:17.635Z</time>
</trkpt>
<trkpt lat="30.6096000" lon="34.7460900">
<ele>797.960022</ele>
<time>2024-01-03T12:42:17.635Z</time>
</trkpt>
<trkpt lat="30.6096400" lon="34.7461900">
<ele>798.369995</ele>
<time>2024-01-03T12:42:17.635Z</time>
</trkpt>
<trkpt lat="30.6096500" lon="34.7462300">
<ele>798.539978</ele>
<time>2024-01-03T12:42:17.635Z</time>
</trkpt>
<trkpt lat="30.6096700" lon="34.7463800">
<ele>799.150024</ele>
<time>2024-01-03T12:42:17.635Z</time>
</trkpt>
<trkpt lat="30.6096900" lon="34.7464900">
<ele>800.170044</ele>
<time>2024-01-03T12:42:17.635Z</time>
</trkpt>
<trkpt lat="30.6097100" lon="34.7466200">
<ele>801.500000</ele>
<time>2024-01-03T12:42:17.635Z</time>
</trkpt>
<trkpt lat="30.6097300" lon="34.7467600">
<ele>801.699951</ele>
<time>2024-01-03T12:42:17.635Z</time>
</trkpt>
<trkpt lat="30.6097700" lon="34.7469000">
<ele>801.479980</ele>
<time>2024-01-03T12:42:17.635Z</time>
</trkpt>
<trkpt lat="30.6098200" lon="34.7470500">
<ele>801.680054</ele>
<time>2024-01-03T12:42:17.635Z</time>
</trkpt>
<trkpt lat="30.6098700" lon="34.7472100">
<ele>801.489990</ele>
<time>2024-01-03T12:42:17.635Z</time>
</trkpt>
<trkpt lat="30.6099000" lon="34.7473000">
<ele>801.440002</ele>
<time>2024-01-03T12:42:17.635Z</time>
</trkpt>
<trkpt lat="30.6099400" lon="34.7473900">
<ele>801.559998</ele>
<time>2024-01-03T12:42:17.635Z</time>
</trkpt>
<trkpt lat="30.6099700" lon="34.7474800">
<ele>801.840027</ele>
<time>2024-01-03T12:42:17.635Z</time>
</trkpt>
<trkpt lat="30.6100200" lon="34.7476400">
<ele>802.609985</ele>
<time>2024-01-03T12:42:17.635Z</time>
</trkpt>
<trkpt lat="30.6100500" lon="34.7477900">
<ele>803.280029</ele>
<time>2024-01-03T12:42:17.635Z</time>
</trkpt>
<trkpt lat="30.6100900" lon="34.7479400">
<ele>804.680054</ele>
<time>2024-01-03T12:42:17.635Z</time>
</trkpt>
<trkpt lat="30.6101100" lon="34.7480900">
<ele>805.069946</ele>
<time>2024-01-03T12:42:17.635Z</time>
</trkpt>
<trkpt lat="30.6101200" lon="34.7482300">
<ele>802.280029</ele>
<time>2024-01-03T12:42:17.635Z</time>
</trkpt>
<trkpt lat="30.6101300" lon="34.7483800">
<ele>800.070007</ele>
<time>2024-01-03T12:42:17.635Z</time>
</trkpt>
<trkpt lat="30.6101400" lon="34.7485200">
<ele>799.520020</ele>
<time>2024-01-03T12:42:17.635Z</time>
</trkpt>
<trkpt lat="30.6101400" lon="34.7486700">
<ele>799.249939</ele>
<time>2024-01-03T12:42:17.635Z</time>
</trkpt>
<trkpt lat="30.6101500" lon="34.7488200">
<ele>800.189941</ele>
<time>2024-01-03T12:42:17.635Z</time>
</trkpt>
<trkpt lat="30.6101500" lon="34.7489300">
<ele>800.839966</ele>
<time>2024-01-03T12:42:17.635Z</time>
</trkpt>
<trkpt lat="30.6101600" lon="34.7490500">
<ele>802.320007</ele>
<time>2024-01-03T12:42:17.635Z</time>
</trkpt>
<trkpt lat="30.6101700" lon="34.7491600">
<ele>803.670044</ele>
<time>2024-01-03T12:42:17.635Z</time>
</trkpt>
<trkpt lat="30.6101900" lon="34.7492700">
<ele>805.739990</ele>
<time>2024-01-03T12:42:17.635Z</time>
</trkpt>
<trkpt lat="30.6102100" lon="34.7493700">
<ele>807.489990</ele>
<time>2024-01-03T12:42:17.635Z</time>
</trkpt>
<trkpt lat="30.6102500" lon="34.7495200">
<ele>810.419983</ele>
<time>2024-01-03T12:42:17.635Z</time>
</trkpt>
<trkpt lat="30.6103100" lon="34.7496400">
<ele>813.159973</ele>
<time>2024-01-03T12:42:17.635Z</time>
</trkpt>
<trkpt lat="30.6103800" lon="34.7497100">
<ele>815.549988</ele>
<time>2024-01-03T12:42:17.635Z</time>
</trkpt>
<trkpt lat="30.6104600" lon="34.7497800">
<ele>818.320007</ele>
<time>2024-01-03T12:42:17.635Z</time>
</trkpt>
<trkpt lat="30.6105600" lon="34.7498500">
<ele>821.210022</ele>
<time>2024-01-03T12:42:17.635Z</time>
</trkpt>
<trkpt lat="30.6106700" lon="34.7499200">
<ele>819.909973</ele>
<time>2024-01-03T12:42:17.635Z</time>
</trkpt>
<trkpt lat="30.6107500" lon="34.7499700">
<ele>818.709961</ele>
<time>2024-01-03T12:42:17.635Z</time>
</trkpt>
<trkpt lat="30.6108400" lon="34.7500300">
<ele>817.030029</ele>
<time>2024-01-03T12:42:17.635Z</time>
</trkpt>
<trkpt lat="30.6109200" lon="34.7500900">
<ele>816.079956</ele>
<time>2024-01-03T12:42:17.635Z</time>
</trkpt>
<trkpt lat="30.6110000" lon="34.7501600">
<ele>814.739990</ele>
<time>2024-01-03T12:42:17.635Z</time>
</trkpt>
<trkpt lat="30.6110700" lon="34.7502300">
<ele>813.159973</ele>
<time>2024-01-03T12:42:17.635Z</time>
</trkpt>
<trkpt lat="30.6111500" lon="34.7502900">
<ele>810.849976</ele>
<time>2024-01-03T12:42:17.635Z</time>
</trkpt>
<trkpt lat="30.6112300" lon="34.7503500">
<ele>808.539978</ele>
<time>2024-01-03T12:42:17.635Z</time>
</trkpt>
<trkpt lat="30.6113100" lon="34.7504300">
<ele>806.510010</ele>
<time>2024-01-03T12:42:17.635Z</time>
</trkpt>
<trkpt lat="30.6113800" lon="34.7505100">
<ele>805.039978</ele>
<time>2024-01-03T12:42:17.635Z</time>
</trkpt>
<trkpt lat="30.6114600" lon="34.7506000">
<ele>804.350037</ele>
<time>2024-01-03T12:42:17.635Z</time>
</trkpt>
<trkpt lat="30.6115300" lon="34.7506900">
<ele>803.709961</ele>
<time>2024-01-03T12:42:17.635Z</time>
</trkpt>
<trkpt lat="30.6116000" lon="34.7507800">
<ele>802.910034</ele>
<time>2024-01-03T12:42:17.635Z</time>
</trkpt>
<trkpt lat="30.6116600" lon="34.7508600">
<ele>802.000000</ele>
<time>2024-01-03T12:42:17.635Z</time>
</trkpt>
<trkpt lat="30.6117300" lon="34.7509500">
<ele>801.710022</ele>
<time>2024-01-03T12:42:17.635Z</time>
</trkpt>
<trkpt lat="30.6118000" lon="34.7510400">
<ele>801.380005</ele>
<time>2024-01-03T12:42:17.635Z</time>
</trkpt>
<trkpt lat="30.6118500" lon="34.7511400">
<ele>800.999939</ele>
<time>2024-01-03T12:42:17.635Z</time>
</trkpt>
<trkpt lat="30.6119000" lon="34.7512400">
<ele>801.240051</ele>
<time>2024-01-03T12:42:17.635Z</time>
</trkpt>
<trkpt lat="30.6119600" lon="34.7513500">
<ele>802.080017</ele>
<time>2024-01-03T12:42:17.635Z</time>
</trkpt>
<trkpt lat="30.6120500" lon="34.7514200">
<ele>803.969971</ele>
<time>2024-01-03T12:42:17.635Z</time>
</trkpt>
<trkpt lat="30.6121200" lon="34.7515100">
<ele>806.269958</ele>
<time>2024-01-03T12:42:17.635Z</time>
</trkpt>
<trkpt lat="30.6122000" lon="34.7515700">
<ele>808.290039</ele>
<time>2024-01-03T12:42:17.635Z</time>
</trkpt>
<trkpt lat="30.6123100" lon="34.7516200">
<ele>808.910034</ele>
<time>2024-01-03T12:42:17.635Z</time>
</trkpt>
<trkpt lat="30.6124000" lon="34.7517100">
<ele>808.600037</ele>
<time>2024-01-03T12:42:17.635Z</time>
</trkpt>
<trkpt lat="30.6125000" lon="34.7518100">
<ele>808.520020</ele>
<time>2024-01-03T12:42:17.635Z</time>
</trkpt>
<trkpt lat="30.6125900" lon="34.7519100">
<ele>807.660034</ele>
<time>2024-01-03T12:42:17.635Z</time>
</trkpt>
<trkpt lat="30.6126900" lon="34.7520200">
<ele>805.809998</ele>
<time>2024-01-03T12:42:17.635Z</time>
</trkpt>
<trkpt lat="30.6127500" lon="34.7521000">
<ele>804.339966</ele>
<time>2024-01-03T12:42:17.635Z</time>
</trkpt>
<trkpt lat="30.6127700" lon="34.7521200">
<ele>803.869995</ele>
<time>2024-01-03T12:42:17.635Z</time>
</trkpt>
<trkpt lat="30.6127700" lon="34.7521100">
<ele>803.940002</ele>
<time>2024-01-03T12:42:17.635Z</time>
</trkpt>
<trkpt lat="30.6129800" lon="34.7523200">
<ele>798.580017</ele>
<time>2024-01-03T12:42:17.635Z</time>
</trkpt>
<trkpt lat="30.6132000" lon="34.7526100">
<ele>792.929993</ele>
<time>2024-01-03T12:42:17.635Z</time>
</trkpt>
<trkpt lat="30.6131900" lon="34.7527900">
<ele>790.520020</ele>
<time>2024-01-03T12:42:17.635Z</time>
</trkpt>
<trkpt lat="30.6131700" lon="34.7529800">
<ele>791.260010</ele>
<time>2024-01-03T12:42:17.635Z</time>
</trkpt>
<trkpt lat="30.6131900" lon="34.7530300">
<ele>791.799988</ele>
<time>2024-01-03T12:42:17.635Z</time>
</trkpt>
<trkpt lat="30.6132300" lon="34.7531000">
<ele>792.829956</ele>
<time>2024-01-03T12:42:17.635Z</time>
</trkpt>
<trkpt lat="30.6133200" lon="34.7530200">
<ele>793.559998</ele>
<time>2024-01-03T12:42:17.635Z</time>
</trkpt>
<trkpt lat="30.6134700" lon="34.7529200">
<ele>797.189941</ele>
<time>2024-01-03T12:42:17.635Z</time>
</trkpt>
<trkpt lat="30.6137000" lon="34.7529400">
<ele>803.020020</ele>
<time>2024-01-03T12:42:17.635Z</time>
</trkpt>
<trkpt lat="30.6139800" lon="34.7530300">
<ele>805.109985</ele>
<time>2024-01-03T12:42:17.635Z</time>
</trkpt>
<trkpt lat="30.6140500" lon="34.7531100">
<ele>804.409973</ele>
<time>2024-01-03T12:42:17.635Z</time>
</trkpt>
<trkpt lat="30.6140600" lon="34.7531000">
<ele>804.290039</ele>
<time>2024-01-03T12:42:17.635Z</time>
</trkpt>
<trkpt lat="30.6140500" lon="34.7531100">
<ele>804.409973</ele>
<time>2024-01-03T12:42:17.635Z</time>
</trkpt>
<trkpt lat="30.6142300" lon="34.7532800">
<ele>803.610046</ele>
<time>2024-01-03T12:42:17.635Z</time>
</trkpt>
<trkpt lat="30.6144800" lon="34.7535500">
<ele>799.520020</ele>
<time>2024-01-03T12:42:17.635Z</time>
</trkpt>
<trkpt lat="30.6146100" lon="34.7539400">
<ele>796.369995</ele>
<time>2024-01-03T12:42:17.635Z</time>
</trkpt>
<trkpt lat="30.6146900" lon="34.7541000">
<ele>794.619995</ele>
<time>2024-01-03T12:42:17.635Z</time>
</trkpt>
<trkpt lat="30.6146200" lon="34.7543000">
<ele>793.230042</ele>
<time>2024-01-03T12:42:17.635Z</time>
</trkpt>
<trkpt lat="30.6147700" lon="34.7544300">
<ele>792.089966</ele>
<time>2024-01-03T12:42:17.635Z</time>
</trkpt>
<trkpt lat="30.6150200" lon="34.7544700">
<ele>791.770020</ele>
<time>2024-01-03T12:42:17.635Z</time>
</trkpt>
<trkpt lat="30.6153100" lon="34.7544800">
<ele>789.650024</ele>
<time>2024-01-03T12:42:17.635Z</time>
</trkpt>
<trkpt lat="30.6154500" lon="34.7547300">
<ele>788.070007</ele>
<time>2024-01-03T12:42:17.635Z</time>
</trkpt>
<trkpt lat="30.6156300" lon="34.7548600">
<ele>786.409973</ele>
<time>2024-01-03T12:42:17.635Z</time>
</trkpt>
<trkpt lat="30.6156600" lon="34.7548900">
<ele>786.400024</ele>
<time>2024-01-03T12:42:17.635Z</time>
</trkpt>
<trkpt lat="30.6158600" lon="34.7551300">
<ele>786.349976</ele>
<time>2024-01-03T12:42:17.635Z</time>
</trkpt>
<trkpt lat="30.6159500" lon="34.7552700">
<ele>786.320007</ele>
<time>2024-01-03T12:42:17.635Z</time>
</trkpt>
<trkpt lat="30.6160100" lon="34.7553400">
<ele>785.889954</ele>
<time>2024-01-03T12:42:17.635Z</time>
</trkpt>
<trkpt lat="30.6161100" lon="34.7554700">
<ele>783.849976</ele>
<time>2024-01-03T12:42:17.635Z</time>
</trkpt>
<trkpt lat="30.6163800" lon="34.7557600">
<ele>783.279968</ele>
<time>2024-01-03T12:42:17.635Z</time>
</trkpt>
<trkpt lat="30.6165100" lon="34.7559900">
<ele>784.560059</ele>
<time>2024-01-03T12:42:17.635Z</time>
</trkpt>
<trkpt lat="30.6165800" lon="34.7562700">
<ele>784.830017</ele>
<time>2024-01-03T12:42:17.635Z</time>
</trkpt>
<trkpt lat="30.6165000" lon="34.7564700">
<ele>785.440002</ele>
<time>2024-01-03T12:42:17.635Z</time>
</trkpt>
<trkpt lat="30.6164200" lon="34.7567600">
<ele>790.039978</ele>
<time>2024-01-03T12:42:17.635Z</time>
</trkpt>
<trkpt lat="30.6164500" lon="34.7569000">
<ele>791.369995</ele>
<time>2024-01-03T12:42:17.635Z</time>
</trkpt>
<trkpt lat="30.6165900" lon="34.7568300">
<ele>790.639954</ele>
<time>2024-01-03T12:42:17.635Z</time>
</trkpt>
<trkpt lat="30.6167900" lon="34.7569300">
<ele>790.529968</ele>
<time>2024-01-03T12:42:17.635Z</time>
</trkpt>
<trkpt lat="30.6168800" lon="34.7572700">
<ele>787.619995</ele>
<time>2024-01-03T12:42:17.635Z</time>
</trkpt>
<trkpt lat="30.6168600" lon="34.7575100">
<ele>786.400024</ele>
<time>2024-01-03T12:42:17.635Z</time>
</trkpt>
<trkpt lat="30.6169000" lon="34.7578300">
<ele>781.839966</ele>
<time>2024-01-03T12:42:17.635Z</time>
</trkpt>
<trkpt lat="30.6171000" lon="34.7581300">
<ele>782.929993</ele>
<time>2024-01-03T12:42:17.635Z</time>
</trkpt>
<trkpt lat="30.6173100" lon="34.7583100">
<ele>787.089966</ele>
<time>2024-01-03T12:42:17.635Z</time>
</trkpt>
<trkpt lat="30.6174800" lon="34.7583500">
<ele>788.220032</ele>
<time>2024-01-03T12:42:17.635Z</time>
</trkpt>
<trkpt lat="30.6174800" lon="34.7583300">
<ele>787.899963</ele>
<time>2024-01-03T12:42:17.635Z</time>
</trkpt>
<trkpt lat="30.6174800" lon="34.7583500">
<ele>788.220032</ele>
<time>2024-01-03T12:42:17.635Z</time>
</trkpt>
<trkpt lat="30.6176300" lon="34.7583900">
<ele>790.230042</ele>
<time>2024-01-03T12:42:17.635Z</time>
</trkpt>
<trkpt lat="30.6177200" lon="34.7585700">
<ele>793.289978</ele>
<time>2024-01-03T12:42:17.635Z</time>
</trkpt>
<trkpt lat="30.6177500" lon="34.7588400">
<ele>794.060059</ele>
<time>2024-01-03T12:42:17.635Z</time>
</trkpt>
<trkpt lat="30.6176200" lon="34.7588900">
<ele>794.579956</ele>
<time>2024-01-03T12:42:17.635Z</time>
</trkpt>
<trkpt lat="30.6175200" lon="34.7590400">
<ele>794.660034</ele>
<time>2024-01-03T12:42:17.635Z</time>
</trkpt>
<trkpt lat="30.6177800" lon="34.7590900">
<ele>798.340027</ele>
<time>2024-01-03T12:42:17.635Z</time>
</trkpt>
<trkpt lat="30.6183900" lon="34.7592800">
<ele>793.239990</ele>
<time>2024-01-03T12:42:17.635Z</time>
</trkpt>
<trkpt lat="30.6189200" lon="34.7593200">
<ele>789.860046</ele>
<time>2024-01-03T12:42:17.635Z</time>
</trkpt>
<trkpt lat="30.6192600" lon="34.7592300">
<ele>789.710022</ele>
<time>2024-01-03T12:42:17.635Z</time>
</trkpt>
<trkpt lat="30.6198200" lon="34.7590600">
<ele>782.480042</ele>
<time>2024-01-03T12:42:17.635Z</time>
</trkpt>
<trkpt lat="30.6203900" lon="34.7590200">
<ele>780.820007</ele>
<time>2024-01-03T12:42:17.635Z</time>
</trkpt>
<trkpt lat="30.6210600" lon="34.7591100">
<ele>782.320007</ele>
<time>2024-01-03T12:42:17.635Z</time>
</trkpt>
<trkpt lat="30.6218900" lon="34.7596400">
<ele>797.989990</ele>
<time>2024-01-03T12:42:17.635Z</time>
</trkpt>
<trkpt lat="30.6222400" lon="34.7597300">
<ele>794.740051</ele>
<time>2024-01-03T12:42:17.635Z</time>
</trkpt>
<trkpt lat="30.6224200" lon="34.7599200">
<ele>791.140015</ele>
<time>2024-01-03T12:42:17.635Z</time>
</trkpt>
<trkpt lat="30.6226000" lon="34.7599900">
<ele>789.409973</ele>
<time>2024-01-03T12:42:17.635Z</time>
</trkpt>
<trkpt lat="30.6227500" lon="34.7600500">
<ele>790.120056</ele>
<time>2024-01-03T12:42:17.635Z</time>
</trkpt>
<trkpt lat="30.6230600" lon="34.7602100">
<ele>795.940002</ele>
<time>2024-01-03T12:42:17.635Z</time>
</trkpt>
<trkpt lat="30.6234100" lon="34.7603900">
<ele>790.169983</ele>
<time>2024-01-03T12:42:17.635Z</time>
</trkpt>
<trkpt lat="30.6236200" lon="34.7604700">
<ele>786.809998</ele>
<time>2024-01-03T12:42:17.635Z</time>
</trkpt>
<trkpt lat="30.6237200" lon="34.7607300">
<ele>783.500000</ele>
<time>2024-01-03T12:42:17.635Z</time>
</trkpt>
<trkpt lat="30.6238400" lon="34.7608900">
<ele>780.100037</ele>
<time>2024-01-03T12:42:17.635Z</time>
</trkpt>
<trkpt lat="30.6240300" lon="34.7609800">
<ele>776.880005</ele>
<time>2024-01-03T12:42:17.635Z</time>
</trkpt>
<trkpt lat="30.6241700" lon="34.7614400">
<ele>776.779968</ele>
<time>2024-01-03T12:42:17.635Z</time>
</trkpt>
<trkpt lat="30.6240500" lon="34.7614800">
<ele>775.909973</ele>
<time>2024-01-03T12:42:17.635Z</time>
</trkpt>
<trkpt lat="30.6235600" lon="34.7617200">
<ele>771.010010</ele>
<time>2024-01-03T12:42:17.635Z</time>
</trkpt>
<trkpt lat="30.6230600" lon="34.7619100">
<ele>772.839966</ele>
<time>2024-01-03T12:42:17.635Z</time>
</trkpt>
<trkpt lat="30.6229800" lon="34.7620700">
<ele>771.780029</ele>
<time>2024-01-03T12:42:17.635Z</time>
</trkpt>
<trkpt lat="30.6228400" lon="34.7623500">
<ele>770.559998</ele>
<time>2024-01-03T12:42:17.635Z</time>
</trkpt>
<trkpt lat="30.6223900" lon="34.7622300">
<ele>769.929993</ele>
<time>2024-01-03T12:42:17.635Z</time>
</trkpt>
<trkpt lat="30.6219400" lon="34.7622600">
<ele>772.559998</ele>
<time>2024-01-03T12:42:17.635Z</time>
</trkpt>
<trkpt lat="30.6219300" lon="34.7622200">
<ele>772.020020</ele>
<time>2024-01-03T12:42:17.635Z</time>
</trkpt>
<trkpt lat="30.6219400" lon="34.7622600">
<ele>772.559998</ele>
<time>2024-01-03T12:42:17.635Z</time>
</trkpt>
<trkpt lat="30.6218400" lon="34.7622600">
<ele>772.850037</ele>
<time>2024-01-03T12:42:17.635Z</time>
</trkpt>
<trkpt lat="30.6215100" lon="34.7624500">
<ele>781.839966</ele>
<time>2024-01-03T12:42:17.635Z</time>
</trkpt>
<trkpt lat="30.6213800" lon="34.7625900">
<ele>786.429993</ele>
<time>2024-01-03T12:42:17.635Z</time>
</trkpt>
<trkpt lat="30.6210900" lon="34.7628400">
<ele>785.469971</ele>
<time>2024-01-03T12:42:17.635Z</time>
</trkpt>
<trkpt lat="30.6206100" lon="34.7633000">
<ele>785.240051</ele>
<time>2024-01-03T12:42:17.635Z</time>
</trkpt>
<trkpt lat="30.6204700" lon="34.7637200">
<ele>792.270020</ele>
<time>2024-01-03T12:42:17.635Z</time>
</trkpt>
<trkpt lat="30.6202800" lon="34.7644800">
<ele>798.569946</ele>
<time>2024-01-03T12:42:17.635Z</time>
</trkpt>
<trkpt lat="30.6201800" lon="34.7648900">
<ele>802.910034</ele>
<time>2024-01-03T12:42:17.635Z</time>
</trkpt>
<trkpt lat="30.6200000" lon="34.7651900">
<ele>803.739990</ele>
<time>2024-01-03T12:42:17.635Z</time>
</trkpt>
<trkpt lat="30.6195400" lon="34.7656100">
<ele>806.750000</ele>
<time>2024-01-03T12:42:17.635Z</time>
</trkpt>
<trkpt lat="30.6192800" lon="34.7658600">
<ele>809.549988</ele>
<time>2024-01-03T12:42:17.635Z</time>
</trkpt>
<trkpt lat="30.6190300" lon="34.7664400">
<ele>815.599976</ele>
<time>2024-01-03T12:42:17.635Z</time>
</trkpt>
<trkpt lat="30.6189400" lon="34.7667400">
<ele>817.739990</ele>
<time>2024-01-03T12:42:17.635Z</time>
</trkpt>
<trkpt lat="30.6188700" lon="34.7668500">
<ele>818.299988</ele>
<time>2024-01-03T12:42:17.635Z</time>
</trkpt>
<trkpt lat="30.6187500" lon="34.7670500">
<ele>818.260010</ele>
<time>2024-01-03T12:42:17.635Z</time>
</trkpt>
<trkpt lat="30.6185600" lon="34.7673200">
<ele>816.950012</ele>
<time>2024-01-03T12:42:17.635Z</time>
</trkpt>
<trkpt lat="30.6183300" lon="34.7674700">
<ele>817.710022</ele>
<time>2024-01-03T12:42:17.635Z</time>
</trkpt>
<trkpt lat="30.6180800" lon="34.7674300">
<ele>812.020020</ele>
<time>2024-01-03T12:42:17.635Z</time>
</trkpt>
<trkpt lat="30.6179000" lon="34.7675500">
<ele>810.279968</ele>
<time>2024-01-03T12:42:17.635Z</time>
</trkpt>
<trkpt lat="30.6177000" lon="34.7678700">
<ele>809.689941</ele>
<time>2024-01-03T12:42:17.635Z</time>
</trkpt>
<trkpt lat="30.6174800" lon="34.7684000">
<ele>816.270020</ele>
<time>2024-01-03T12:42:17.635Z</time>
</trkpt>
<trkpt lat="30.6171000" lon="34.7689000">
<ele>818.139954</ele>
<time>2024-01-03T12:42:17.635Z</time>
</trkpt>
<trkpt lat="30.6166900" lon="34.7692300">
<ele>819.079956</ele>
<time>2024-01-03T12:42:17.635Z</time>
</trkpt>
<trkpt lat="30.6165900" lon="34.7695000">
<ele>821.630005</ele>
<time>2024-01-03T12:42:17.635Z</time>
</trkpt>
<trkpt lat="30.6166100" lon="34.7697200">
<ele>823.569946</ele>
<time>2024-01-03T12:42:17.635Z</time>
</trkpt>
<trkpt lat="30.6166800" lon="34.7698000">
<ele>825.189941</ele>
<time>2024-01-03T12:42:17.635Z</time>
</trkpt>
<trkpt lat="30.6168100" lon="34.7698700">
<ele>826.609985</ele>
<time>2024-01-03T12:42:17.635Z</time>
</trkpt>
<trkpt lat="30.6171100" lon="34.7699400">
<ele>829.739990</ele>
<time>2024-01-03T12:42:17.635Z</time>
</trkpt>
<trkpt lat="30.6173300" lon="34.7699900">
<ele>833.749939</ele>
<time>2024-01-03T12:42:17.635Z</time>
</trkpt>
<trkpt lat="30.6177000" lon="34.7702400">
<ele>839.340027</ele>
<time>2024-01-03T12:42:17.635Z</time>
</trkpt>
<trkpt lat="30.6177900" lon="34.7702400">
<ele>840.899963</ele>
<time>2024-01-03T12:42:17.635Z</time>
</trkpt>
<trkpt lat="30.6179900" lon="34.7701900">
<ele>840.969971</ele>
<time>2024-01-03T12:42:17.635Z</time>
</trkpt>
<trkpt lat="30.6180700" lon="34.7701900">
<ele>841.000000</ele>
<time>2024-01-03T12:42:17.635Z</time>
</trkpt>
<trkpt lat="30.6180700" lon="34.7702000">
<ele>841.119995</ele>
<time>2024-01-03T12:42:17.635Z</time>
</trkpt>
<trkpt lat="30.6181200" lon="34.7702000">
<ele>840.969971</ele>
<time>2024-01-03T12:42:17.635Z</time>
</trkpt>
<trkpt lat="30.6182200" lon="34.7701900">
<ele>840.489990</ele>
<time>2024-01-03T12:42:17.635Z</time>
</trkpt>
<trkpt lat="30.6182800" lon="34.7702100">
<ele>840.679993</ele>
<time>2024-01-03T12:42:17.635Z</time>
</trkpt>
<trkpt lat="30.6182900" lon="34.7702400">
<ele>841.250000</ele>
<time>2024-01-03T12:42:17.635Z</time>
</trkpt>
<trkpt lat="30.6183500" lon="34.7702500">
<ele>841.179993</ele>
<time>2024-01-03T12:42:17.635Z</time>
</trkpt>
<trkpt lat="30.6184200" lon="34.7702700">
<ele>840.609985</ele>
<time>2024-01-03T12:42:17.635Z</time>
</trkpt>
<trkpt lat="30.6184500" lon="34.7702900">
<ele>840.219971</ele>
<time>2024-01-03T12:42:17.635Z</time>
</trkpt>
<trkpt lat="30.6185100" lon="34.7703600">
<ele>838.940002</ele>
<time>2024-01-03T12:42:17.635Z</time>
</trkpt>
<trkpt lat="30.6185900" lon="34.7703900">
<ele>837.839966</ele>
<time>2024-01-03T12:42:17.635Z</time>
</trkpt>
<trkpt lat="30.6186800" lon="34.7703800">
<ele>836.349976</ele>
<time>2024-01-03T12:42:17.635Z</time>
</trkpt>
<trkpt lat="30.6187800" lon="34.7703600">
<ele>834.349976</ele>
<time>2024-01-03T12:42:17.635Z</time>
</trkpt>
<trkpt lat="30.6188800" lon="34.7703200">
<ele>831.809998</ele>
<time>2024-01-03T12:42:17.635Z</time>
</trkpt>
<trkpt lat="30.6189900" lon="34.7702800">
<ele>830.309998</ele>
<time>2024-01-03T12:42:17.635Z</time>
</trkpt>
<trkpt lat="30.6190700" lon="34.7702400">
<ele>829.339966</ele>
<time>2024-01-03T12:42:17.635Z</time>
</trkpt>
<trkpt lat="30.6191600" lon="34.7701500">
<ele>827.250000</ele>
<time>2024-01-03T12:42:17.635Z</time>
</trkpt>
<trkpt lat="30.6192600" lon="34.7701300">
<ele>828.390015</ele>
<time>2024-01-03T12:42:17.635Z</time>
</trkpt>
<trkpt lat="30.6193600" lon="34.7701200">
<ele>829.909973</ele>
<time>2024-01-03T12:42:17.635Z</time>
</trkpt>
<trkpt lat="30.6194800" lon="34.7701200">
<ele>831.130005</ele>
<time>2024-01-03T12:42:17.635Z</time>
</trkpt>
<trkpt lat="30.6195600" lon="34.7701200">
<ele>830.760010</ele>
<time>2024-01-03T12:42:17.635Z</time>
</trkpt>
<trkpt lat="30.6196600" lon="34.7701900">
<ele>830.459961</ele>
<time>2024-01-03T12:42:17.635Z</time>
</trkpt>
<trkpt lat="30.6197300" lon="34.7702900">
<ele>829.729980</ele>
<time>2024-01-03T12:42:17.635Z</time>
</trkpt>
<trkpt lat="30.6197800" lon="34.7704100">
<ele>827.989990</ele>
<time>2024-01-03T12:42:17.635Z</time>
</trkpt>
<trkpt lat="30.6198100" lon="34.7705400">
<ele>826.869995</ele>
<time>2024-01-03T12:42:17.635Z</time>
</trkpt>
<trkpt lat="30.6198400" lon="34.7706400">
<ele>825.779968</ele>
<time>2024-01-03T12:42:17.635Z</time>
</trkpt>
<trkpt lat="30.6198700" lon="34.7707600">
<ele>825.350037</ele>
<time>2024-01-03T12:42:17.635Z</time>
</trkpt>
<trkpt lat="30.6199300" lon="34.7708900">
<ele>825.280029</ele>
<time>2024-01-03T12:42:17.635Z</time>
</trkpt>
<trkpt lat="30.6199900" lon="34.7709800">
<ele>825.309998</ele>
<time>2024-01-03T12:42:17.635Z</time>
</trkpt>
<trkpt lat="30.6200500" lon="34.7710900">
<ele>826.169983</ele>
<time>2024-01-03T12:42:17.635Z</time>
</trkpt>
<trkpt lat="30.6201000" lon="34.7711800">
<ele>826.799988</ele>
<time>2024-01-03T12:42:17.635Z</time>
</trkpt>
<trkpt lat="30.6201600" lon="34.7713000">
<ele>827.109985</ele>
<time>2024-01-03T12:42:17.635Z</time>
</trkpt>
<trkpt lat="30.6201900" lon="34.7714200">
<ele>827.140015</ele>
<time>2024-01-03T12:42:17.635Z</time>
</trkpt>
<trkpt lat="30.6202100" lon="34.7715400">
<ele>826.299988</ele>
<time>2024-01-03T12:42:17.635Z</time>
</trkpt>
<trkpt lat="30.6202100" lon="34.7716700">
<ele>825.889954</ele>
<time>2024-01-03T12:42:17.635Z</time>
</trkpt>
<trkpt lat="30.6202100" lon="34.7717900">
<ele>823.730042</ele>
<time>2024-01-03T12:42:17.635Z</time>
</trkpt>
<trkpt lat="30.6202100" lon="34.7719000">
<ele>821.750000</ele>
<time>2024-01-03T12:42:17.635Z</time>
</trkpt>
<trkpt lat="30.6201700" lon="34.7720200">
<ele>822.159973</ele>
<time>2024-01-03T12:42:17.635Z</time>
</trkpt>
<trkpt lat="30.6201200" lon="34.7721300">
<ele>823.450012</ele>
<time>2024-01-03T12:42:17.635Z</time>
</trkpt>
<trkpt lat="30.6200800" lon="34.7722400">
<ele>824.639954</ele>
<time>2024-01-03T12:42:17.635Z</time>
</trkpt>
<trkpt lat="30.6200700" lon="34.7723500">
<ele>827.130005</ele>
<time>2024-01-03T12:42:17.635Z</time>
</trkpt>
<trkpt lat="30.6200600" lon="34.7724700">
<ele>829.859985</ele>
<time>2024-01-03T12:42:17.635Z</time>
</trkpt>
<trkpt lat="30.6200700" lon="34.7725900">
<ele>832.019958</ele>
<time>2024-01-03T12:42:17.635Z</time>
</trkpt>
<trkpt lat="30.6200800" lon="34.7727100">
<ele>834.200012</ele>
<time>2024-01-03T12:42:17.635Z</time>
</trkpt>
<trkpt lat="30.6201100" lon="34.7728100">
<ele>835.389954</ele>
<time>2024-01-03T12:42:17.635Z</time>
</trkpt>
<trkpt lat="30.6201600" lon="34.7729000">
<ele>835.370056</ele>
<time>2024-01-03T12:42:17.635Z</time>
</trkpt>
<trkpt lat="30.6202100" lon="34.7729900">
<ele>835.119995</ele>
<time>2024-01-03T12:42:17.635Z</time>
</trkpt>
<trkpt lat="30.6202800" lon="34.7730700">
<ele>833.520020</ele>
<time>2024-01-03T12:42:17.635Z</time>
</trkpt>
<trkpt lat="30.6203600" lon="34.7731400">
<ele>829.380005</ele>
<time>2024-01-03T12:42:17.635Z</time>
</trkpt>
<trkpt lat="30.6204400" lon="34.7732000">
<ele>825.779968</ele>
<time>2024-01-03T12:42:17.635Z</time>
</trkpt>
<trkpt lat="30.6205300" lon="34.7732500">
<ele>822.410034</ele>
<time>2024-01-03T12:42:17.635Z</time>
</trkpt>
<trkpt lat="30.6206500" lon="34.7732900">
<ele>820.900024</ele>
<time>2024-01-03T12:42:17.635Z</time>
</trkpt>
<trkpt lat="30.6207900" lon="34.7733400">
<ele>820.869995</ele>
<time>2024-01-03T12:42:17.635Z</time>
</trkpt>
<trkpt lat="30.6208600" lon="34.7733900">
<ele>820.710022</ele>
<time>2024-01-03T12:42:17.635Z</time>
</trkpt>
<trkpt lat="30.6209000" lon="34.7734700">
<ele>820.279968</ele>
<time>2024-01-03T12:42:17.635Z</time>
</trkpt>
<trkpt lat="30.6209100" lon="34.7736300">
<ele>820.299988</ele>
<time>2024-01-03T12:42:17.635Z</time>
</trkpt>
<trkpt lat="30.6209100" lon="34.7737300">
<ele>820.979980</ele>
<time>2024-01-03T12:42:17.635Z</time>
</trkpt>
<trkpt lat="30.6208900" lon="34.7738700">
<ele>822.419983</ele>
<time>2024-01-03T12:42:17.635Z</time>
</trkpt>
<trkpt lat="30.6207900" lon="34.7739600">
<ele>824.979980</ele>
<time>2024-01-03T12:42:17.635Z</time>
</trkpt>
<trkpt lat="30.6207500" lon="34.7740800">
<ele>826.259949</ele>
<time>2024-01-03T12:42:17.635Z</time>
</trkpt>
<trkpt lat="30.6207400" lon="34.7742200">
<ele>826.959961</ele>
<time>2024-01-03T12:42:17.635Z</time>
</trkpt>
<trkpt lat="30.6207200" lon="34.7743200">
<ele>828.489990</ele>
<time>2024-01-03T12:42:17.635Z</time>
</trkpt>
<trkpt lat="30.6207200" lon="34.7744400">
<ele>829.099976</ele>
<time>2024-01-03T12:42:17.635Z</time>
</trkpt>
<trkpt lat="30.6207100" lon="34.7745700">
<ele>830.869995</ele>
<time>2024-01-03T12:42:17.635Z</time>
</trkpt>
<trkpt lat="30.6206900" lon="34.7747000">
<ele>833.000000</ele>
<time>2024-01-03T12:42:17.635Z</time>
</trkpt>
<trkpt lat="30.6206900" lon="34.7748300">
<ele>833.919983</ele>
<time>2024-01-03T12:42:17.635Z</time>
</trkpt>
<trkpt lat="30.6206900" lon="34.7749600">
<ele>834.789978</ele>
<time>2024-01-03T12:42:17.635Z</time>
</trkpt>
<trkpt lat="30.6207000" lon="34.7750800">
<ele>833.630005</ele>
<time>2024-01-03T12:42:17.635Z</time>
</trkpt>
<trkpt lat="30.6207200" lon="34.7752100">
<ele>831.300049</ele>
<time>2024-01-03T12:42:17.635Z</time>
</trkpt>
<trkpt lat="30.6207900" lon="34.7752700">
<ele>829.580017</ele>
<time>2024-01-03T12:42:17.635Z</time>
</trkpt>
<trkpt lat="30.6208700" lon="34.7752800">
<ele>828.709961</ele>
<time>2024-01-03T12:42:17.635Z</time>
</trkpt>
<trkpt lat="30.6209700" lon="34.7752900">
<ele>827.840027</ele>
<time>2024-01-03T12:42:17.635Z</time>
</trkpt>
<trkpt lat="30.6210600" lon="34.7752800">
<ele>827.329956</ele>
<time>2024-01-03T12:42:17.635Z</time>
</trkpt>
<trkpt lat="30.6211500" lon="34.7752300">
<ele>825.540039</ele>
<time>2024-01-03T12:42:17.635Z</time>
</trkpt>
<trkpt lat="30.6212300" lon="34.7751700">
<ele>823.369995</ele>
<time>2024-01-03T12:42:17.635Z</time>
</trkpt>
<trkpt lat="30.6213300" lon="34.7751500">
<ele>821.159973</ele>
<time>2024-01-03T12:42:17.635Z</time>
</trkpt>
<trkpt lat="30.6214400" lon="34.7751500">
<ele>818.269958</ele>
<time>2024-01-03T12:42:17.635Z</time>
</trkpt>
<trkpt lat="30.6215300" lon="34.7751400">
<ele>815.659973</ele>
<time>2024-01-03T12:42:17.635Z</time>
</trkpt>
<trkpt lat="30.6216300" lon="34.7751300">
<ele>812.780029</ele>
<time>2024-01-03T12:42:17.635Z</time>
</trkpt>
<trkpt lat="30.6217200" lon="34.7751300">
<ele>812.419983</ele>
<time>2024-01-03T12:42:17.635Z</time>
</trkpt>
<trkpt lat="30.6218100" lon="34.7751100">
<ele>813.979980</ele>
<time>2024-01-03T12:42:17.635Z</time>
</trkpt>
<trkpt lat="30.6219100" lon="34.7751100">
<ele>815.340027</ele>
<time>2024-01-03T12:42:17.635Z</time>
</trkpt>
<trkpt lat="30.6220000" lon="34.7750900">
<ele>816.429993</ele>
<time>2024-01-03T12:42:17.635Z</time>
</trkpt>
<trkpt lat="30.6220900" lon="34.7750800">
<ele>817.260010</ele>
<time>2024-01-03T12:42:17.635Z</time>
</trkpt>
<trkpt lat="30.6221700" lon="34.7751000">
<ele>817.479980</ele>
<time>2024-01-03T12:42:17.635Z</time>
</trkpt>
<trkpt lat="30.6223000" lon="34.7750900">
<ele>818.899963</ele>
<time>2024-01-03T12:42:17.635Z</time>
</trkpt>
<trkpt lat="30.6223900" lon="34.7750900">
<ele>819.880005</ele>
<time>2024-01-03T12:42:17.635Z</time>
</trkpt>
<trkpt lat="30.6224800" lon="34.7751200">
<ele>819.920044</ele>
<time>2024-01-03T12:42:17.635Z</time>
</trkpt>
<trkpt lat="30.6225600" lon="34.7751600">
<ele>818.419983</ele>
<time>2024-01-03T12:42:17.635Z</time>
</trkpt>
<trkpt lat="30.6226300" lon="34.7752200">
<ele>816.929993</ele>
<time>2024-01-03T12:42:17.635Z</time>
</trkpt>
<trkpt lat="30.6227000" lon="34.7753000">
<ele>816.510010</ele>
<time>2024-01-03T12:42:17.635Z</time>
</trkpt>
<trkpt lat="30.6227700" lon="34.7754000">
<ele>817.770020</ele>
<time>2024-01-03T12:42:17.635Z</time>
</trkpt>
<trkpt lat="30.6228100" lon="34.7755200">
<ele>819.759949</ele>
<time>2024-01-03T12:42:17.635Z</time>
</trkpt>
<trkpt lat="30.6228300" lon="34.7756500">
<ele>822.669983</ele>
<time>2024-01-03T12:42:17.635Z</time>
</trkpt>
<trkpt lat="30.6228300" lon="34.7757900">
<ele>825.599976</ele>
<time>2024-01-03T12:42:17.635Z</time>
</trkpt>
<trkpt lat="30.6228200" lon="34.7759400">
<ele>828.020020</ele>
<time>2024-01-03T12:42:17.635Z</time>
</trkpt>
<trkpt lat="30.6228100" lon="34.7760800">
<ele>830.160034</ele>
<time>2024-01-03T12:42:17.635Z</time>
</trkpt>
<trkpt lat="30.6227900" lon="34.7762500">
<ele>831.239990</ele>
<time>2024-01-03T12:42:17.635Z</time>
</trkpt>
<trkpt lat="30.6227200" lon="34.7763600">
<ele>831.309998</ele>
<time>2024-01-03T12:42:17.635Z</time>
</trkpt>
<trkpt lat="30.6226100" lon="34.7764500">
<ele>830.609985</ele>
<time>2024-01-03T12:42:17.635Z</time>
</trkpt>
<trkpt lat="30.6225000" lon="34.7765400">
<ele>828.909973</ele>
<time>2024-01-03T12:42:17.635Z</time>
</trkpt>
<trkpt lat="30.6224100" lon="34.7766700">
<ele>827.020020</ele>
<time>2024-01-03T12:42:17.635Z</time>
</trkpt>
<trkpt lat="30.6223400" lon="34.7768100">
<ele>825.599976</ele>
<time>2024-01-03T12:42:17.635Z</time>
</trkpt>
<trkpt lat="30.6222700" lon="34.7769600">
<ele>823.149963</ele>
<time>2024-01-03T12:42:17.635Z</time>
</trkpt>
<trkpt lat="30.6222000" lon="34.7771000">
<ele>820.849976</ele>
<time>2024-01-03T12:42:17.635Z</time>
</trkpt>
<trkpt lat="30.6221500" lon="34.7772400">
<ele>819.339966</ele>
<time>2024-01-03T12:42:17.635Z</time>
</trkpt>
<trkpt lat="30.6221300" lon="34.7774000">
<ele>817.940002</ele>
<time>2024-01-03T12:42:17.635Z</time>
</trkpt>
<trkpt lat="30.6221200" lon="34.7775500">
<ele>816.309998</ele>
<time>2024-01-03T12:42:17.635Z</time>
</trkpt>
<trkpt lat="30.6221200" lon="34.7777100">
<ele>813.909973</ele>
<time>2024-01-03T12:42:17.635Z</time>
</trkpt>
<trkpt lat="30.6221400" lon="34.7778600">
<ele>812.399963</ele>
<time>2024-01-03T12:42:17.635Z</time>
</trkpt>
<trkpt lat="30.6222000" lon="34.7780000">
<ele>811.489990</ele>
<time>2024-01-03T12:42:17.635Z</time>
</trkpt>
<trkpt lat="30.6222600" lon="34.7781300">
<ele>810.869995</ele>
<time>2024-01-03T12:42:17.635Z</time>
</trkpt>
<trkpt lat="30.6223300" lon="34.7782500">
<ele>810.140015</ele>
<time>2024-01-03T12:42:17.635Z</time>
</trkpt>
<trkpt lat="30.6224000" lon="34.7783700">
<ele>809.179993</ele>
<time>2024-01-03T12:42:17.635Z</time>
</trkpt>
<trkpt lat="30.6224900" lon="34.7784700">
<ele>809.890015</ele>
<time>2024-01-03T12:42:17.635Z</time>
</trkpt>
<trkpt lat="30.6226000" lon="34.7785200">
<ele>813.590027</ele>
<time>2024-01-03T12:42:17.635Z</time>
</trkpt>
<trkpt lat="30.6227100" lon="34.7785800">
<ele>817.059998</ele>
<time>2024-01-03T12:42:17.635Z</time>
</trkpt>
<trkpt lat="30.6228000" lon="34.7786700">
<ele>818.299988</ele>
<time>2024-01-03T12:42:17.635Z</time>
</trkpt>
<trkpt lat="30.6228400" lon="34.7788100">
<ele>816.429993</ele>
<time>2024-01-03T12:42:17.635Z</time>
</trkpt>
<trkpt lat="30.6228800" lon="34.7789400">
<ele>814.840027</ele>
<time>2024-01-03T12:42:17.635Z</time>
</trkpt>
<trkpt lat="30.6229100" lon="34.7790900">
<ele>812.460022</ele>
<time>2024-01-03T12:42:17.635Z</time>
</trkpt>
<trkpt lat="30.6229400" lon="34.7792400">
<ele>809.930054</ele>
<time>2024-01-03T12:42:17.635Z</time>
</trkpt>
<trkpt lat="30.6229900" lon="34.7793800">
<ele>807.920044</ele>
<time>2024-01-03T12:42:17.635Z</time>
</trkpt>
<trkpt lat="30.6230300" lon="34.7795300">
<ele>806.489990</ele>
<time>2024-01-03T12:42:17.635Z</time>
</trkpt>
<trkpt lat="30.6230600" lon="34.7796800">
<ele>805.630005</ele>
<time>2024-01-03T12:42:17.635Z</time>
</trkpt>
<trkpt lat="30.6231100" lon="34.7798300">
<ele>805.639954</ele>
<time>2024-01-03T12:42:17.635Z</time>
</trkpt>
<trkpt lat="30.6231900" lon="34.7799700">
<ele>806.300049</ele>
<time>2024-01-03T12:42:17.635Z</time>
</trkpt>
<trkpt lat="30.6232800" lon="34.7800900">
<ele>807.480042</ele>
<time>2024-01-03T12:42:17.635Z</time>
</trkpt>
<trkpt lat="30.6233800" lon="34.7801900">
<ele>808.100037</ele>
<time>2024-01-03T12:42:17.635Z</time>
</trkpt>
<trkpt lat="30.6234800" lon="34.7802800">
<ele>808.080017</ele>
<time>2024-01-03T12:42:17.635Z</time>
</trkpt>
<trkpt lat="30.6235700" lon="34.7803700">
<ele>807.849976</ele>
<time>2024-01-03T12:42:17.635Z</time>
</trkpt>
<trkpt lat="30.6236700" lon="34.7804600">
<ele>808.059998</ele>
<time>2024-01-03T12:42:17.635Z</time>
</trkpt>
<trkpt lat="30.6237600" lon="34.7805500">
<ele>808.329956</ele>
<time>2024-01-03T12:42:17.635Z</time>
</trkpt>
<trkpt lat="30.6238600" lon="34.7806500">
<ele>807.799988</ele>
<time>2024-01-03T12:42:17.635Z</time>
</trkpt>
<trkpt lat="30.6239500" lon="34.7807500">
<ele>805.690002</ele>
<time>2024-01-03T12:42:17.635Z</time>
</trkpt>
<trkpt lat="30.6240300" lon="34.7808600">
<ele>803.220032</ele>
<time>2024-01-03T12:42:17.635Z</time>
</trkpt>
<trkpt lat="30.6241000" lon="34.7809800">
<ele>802.450012</ele>
<time>2024-01-03T12:42:17.635Z</time>
</trkpt>
<trkpt lat="30.6241600" lon="34.7811000">
<ele>802.010010</ele>
<time>2024-01-03T12:42:17.635Z</time>
</trkpt>
<trkpt lat="30.6241800" lon="34.7812300">
<ele>800.779968</ele>
<time>2024-01-03T12:42:17.635Z</time>
</trkpt>
<trkpt lat="30.6241900" lon="34.7813600">
<ele>799.470032</ele>
<time>2024-01-03T12:42:17.635Z</time>
</trkpt>
<trkpt lat="30.6241900" lon="34.7814700">
<ele>799.089966</ele>
<time>2024-01-03T12:42:17.635Z</time>
</trkpt>
<trkpt lat="30.6242100" lon="34.7815900">
<ele>798.970032</ele>
<time>2024-01-03T12:42:17.635Z</time>
</trkpt>
<trkpt lat="30.6242300" lon="34.7816900">
<ele>798.750000</ele>
<time>2024-01-03T12:42:17.635Z</time>
</trkpt>
<trkpt lat="30.6242500" lon="34.7817300">
<ele>798.630005</ele>
<time>2024-01-03T12:42:17.635Z</time>
</trkpt>
<trkpt lat="30.6243500" lon="34.7819200">
<ele>797.740051</ele>
<time>2024-01-03T12:42:17.635Z</time>
</trkpt>
<trkpt lat="30.6243900" lon="34.7822200">
<ele>796.399963</ele>
<time>2024-01-03T12:42:17.635Z</time>
</trkpt>
<trkpt lat="30.6243500" lon="34.7824500">
<ele>796.399963</ele>
<time>2024-01-03T12:42:17.635Z</time>
</trkpt>
<trkpt lat="30.6245400" lon="34.7827800">
<ele>794.679993</ele>
<time>2024-01-03T12:42:17.635Z</time>
</trkpt>
<trkpt lat="30.6245800" lon="34.7829000">
<ele>796.039978</ele>
<time>2024-01-03T12:42:17.635Z</time>
</trkpt>
<trkpt lat="30.6245800" lon="34.7832900">
<ele>798.389954</ele>
<time>2024-01-03T12:42:17.635Z</time>
</trkpt>
<trkpt lat="30.6246100" lon="34.7832700">
<ele>798.649963</ele>
<time>2024-01-03T12:42:17.635Z</time>
</trkpt>
<trkpt lat="30.6247100" lon="34.7831800">
<ele>799.340027</ele>
<time>2024-01-03T12:42:17.635Z</time>
</trkpt>
<trkpt lat="30.6247700" lon="34.7830200">
<ele>798.400024</ele>
<time>2024-01-03T12:42:17.635Z</time>
</trkpt>
<trkpt lat="30.6248600" lon="34.7829100">
<ele>796.899963</ele>
<time>2024-01-03T12:42:17.635Z</time>
</trkpt>
<trkpt lat="30.6249800" lon="34.7828600">
<ele>796.789978</ele>
<time>2024-01-03T12:42:17.635Z</time>
</trkpt>
<trkpt lat="30.6251300" lon="34.7829000">
<ele>799.979980</ele>
<time>2024-01-03T12:42:17.635Z</time>
</trkpt>
<trkpt lat="30.6252400" lon="34.7829900">
<ele>802.360046</ele>
<time>2024-01-03T12:42:17.635Z</time>
</trkpt>
<trkpt lat="30.6254000" lon="34.7831200">
<ele>802.309998</ele>
<time>2024-01-03T12:42:17.635Z</time>
</trkpt>
<trkpt lat="30.6256200" lon="34.7831800">
<ele>800.579956</ele>
<time>2024-01-03T12:42:17.635Z</time>
</trkpt>
<trkpt lat="30.6258200" lon="34.7831000">
<ele>801.160034</ele>
<time>2024-01-03T12:42:17.635Z</time>
</trkpt>
<trkpt lat="30.6260800" lon="34.7830400">
<ele>800.799988</ele>
<time>2024-01-03T12:42:17.635Z</time>
</trkpt>
<trkpt lat="30.6260800" lon="34.7830600">
<ele>800.200012</ele>
<time>2024-01-03T12:42:17.635Z</time>
</trkpt>
<trkpt lat="30.6261400" lon="34.7830500">
<ele>800.709961</ele>
<time>2024-01-03T12:42:17.635Z</time>
</trkpt>
<trkpt lat="30.6262400" lon="34.7830400">
<ele>802.700012</ele>
<time>2024-01-03T12:42:17.635Z</time>
</trkpt>
<trkpt lat="30.6263400" lon="34.7830400">
<ele>804.359985</ele>
<time>2024-01-03T12:42:17.635Z</time>
</trkpt>
<trkpt lat="30.6264600" lon="34.7830600">
<ele>805.970032</ele>
<time>2024-01-03T12:42:17.635Z</time>
</trkpt>
<trkpt lat="30.6265000" lon="34.7831400">
<ele>805.750061</ele>
<time>2024-01-03T12:42:17.635Z</time>
</trkpt>
<trkpt lat="30.6265100" lon="34.7832500">
<ele>804.859985</ele>
<time>2024-01-03T12:42:17.635Z</time>
</trkpt>
<trkpt lat="30.6265200" lon="34.7833600">
<ele>803.989990</ele>
<time>2024-01-03T12:42:17.635Z</time>
</trkpt>
<trkpt lat="30.6265400" lon="34.7834600">
<ele>803.029968</ele>
<time>2024-01-03T12:42:17.635Z</time>
</trkpt>
<trkpt lat="30.6266300" lon="34.7835000">
<ele>802.989990</ele>
<time>2024-01-03T12:42:17.635Z</time>
</trkpt>
<trkpt lat="30.6267400" lon="34.7835000">
<ele>804.200012</ele>
<time>2024-01-03T12:42:17.635Z</time>
</trkpt>
<trkpt lat="30.6268300" lon="34.7835100">
<ele>805.100037</ele>
<time>2024-01-03T12:42:17.635Z</time>
</trkpt>
<trkpt lat="30.6269300" lon="34.7835100">
<ele>806.449951</ele>
<time>2024-01-03T12:42:17.635Z</time>
</trkpt>
<trkpt lat="30.6270300" lon="34.7835100">
<ele>810.059998</ele>
<time>2024-01-03T12:42:17.635Z</time>
</trkpt>
<trkpt lat="30.6270300" lon="34.7834800">
<ele>811.239990</ele>
<time>2024-01-03T12:42:17.635Z</time>
</trkpt>
<trkpt lat="30.6270500" lon="34.7834800">
<ele>812.059998</ele>
<time>2024-01-03T12:42:17.635Z</time>
</trkpt>
<trkpt lat="30.6271700" lon="34.7835500">
<ele>813.859985</ele>
<time>2024-01-03T12:42:17.635Z</time>
</trkpt>
<trkpt lat="30.6271900" lon="34.7837200">
<ele>809.319946</ele>
<time>2024-01-03T12:42:17.635Z</time>
</trkpt>
<trkpt lat="30.6271900" lon="34.7839100">
<ele>804.710022</ele>
<time>2024-01-03T12:42:17.635Z</time>
</trkpt>
<trkpt lat="30.6272900" lon="34.7840100">
<ele>804.250000</ele>
<time>2024-01-03T12:42:17.635Z</time>
</trkpt>
<trkpt lat="30.6275400" lon="34.7839800">
<ele>814.550049</ele>
<time>2024-01-03T12:42:17.635Z</time>
</trkpt>
<trkpt lat="30.6276400" lon="34.7840200">
<ele>814.860046</ele>
<time>2024-01-03T12:42:17.635Z</time>
</trkpt>
<trkpt lat="30.6278600" lon="34.7842300">
<ele>813.959961</ele>
<time>2024-01-03T12:42:17.635Z</time>
</trkpt>
<trkpt lat="30.6279500" lon="34.7842600">
<ele>817.089966</ele>
<time>2024-01-03T12:42:17.635Z</time>
</trkpt>
<trkpt lat="30.6280000" lon="34.7843500">
<ele>816.980042</ele>
<time>2024-01-03T12:42:17.635Z</time>
</trkpt>
<trkpt lat="30.6280100" lon="34.7844700">
<ele>814.279968</ele>
<time>2024-01-03T12:42:17.635Z</time>
</trkpt>
<trkpt lat="30.6279300" lon="34.7846200">
<ele>807.320007</ele>
<time>2024-01-03T12:42:17.635Z</time>
</trkpt>
<trkpt lat="30.6279300" lon="34.7847400">
<ele>804.400024</ele>
<time>2024-01-03T12:42:17.635Z</time>
</trkpt>
<trkpt lat="30.6280100" lon="34.7848200">
<ele>803.969971</ele>
<time>2024-01-03T12:42:17.635Z</time>
</trkpt>
<trkpt lat="30.6281600" lon="34.7848500">
<ele>808.140015</ele>
<time>2024-01-03T12:42:17.635Z</time>
</trkpt>
<trkpt lat="30.6281900" lon="34.7848500">
<ele>809.369995</ele>
<time>2024-01-03T12:42:17.635Z</time>
</trkpt>
<trkpt lat="30.6284800" lon="34.7849900">
<ele>815.850037</ele>
<time>2024-01-03T12:42:17.635Z</time>
</trkpt>
<trkpt lat="30.6285800" lon="34.7850700">
<ele>817.099976</ele>
<time>2024-01-03T12:42:17.635Z</time>
</trkpt>
<trkpt lat="30.6287100" lon="34.7850900">
<ele>816.750000</ele>
<time>2024-01-03T12:42:17.635Z</time>
</trkpt>
<trkpt lat="30.6288800" lon="34.7851800">
<ele>814.130005</ele>
<time>2024-01-03T12:42:17.635Z</time>
</trkpt>
<trkpt lat="30.6289700" lon="34.7851600">
<ele>812.599976</ele>
<time>2024-01-03T12:42:17.635Z</time>
</trkpt>
<trkpt lat="30.6290400" lon="34.7850800">
<ele>812.489990</ele>
<time>2024-01-03T12:42:17.635Z</time>
</trkpt>
<trkpt lat="30.6290700" lon="34.7849800">
<ele>813.580017</ele>
<time>2024-01-03T12:42:17.635Z</time>
</trkpt>
<trkpt lat="30.6292000" lon="34.7842600">
<ele>813.809998</ele>
<time>2024-01-03T12:42:17.635Z</time>
</trkpt>
<trkpt lat="30.6293400" lon="34.7839400">
<ele>812.980042</ele>
<time>2024-01-03T12:42:17.635Z</time>
</trkpt>
<trkpt lat="30.6294800" lon="34.7838000">
<ele>813.380005</ele>
<time>2024-01-03T12:42:17.635Z</time>
</trkpt>
<trkpt lat="30.6295400" lon="34.7837900">
<ele>813.049988</ele>
<time>2024-01-03T12:42:17.635Z</time>
</trkpt>
<trkpt lat="30.6295300" lon="34.7837700">
<ele>813.330017</ele>
<time>2024-01-03T12:42:17.635Z</time>
</trkpt>
<trkpt lat="30.6295400" lon="34.7837700">
<ele>813.270020</ele>
<time>2024-01-03T12:42:17.635Z</time>
</trkpt>
<trkpt lat="30.6296300" lon="34.7837700">
<ele>812.709961</ele>
<time>2024-01-03T12:42:17.635Z</time>
</trkpt>
<trkpt lat="30.6297300" lon="34.7837700">
<ele>812.200012</ele>
<time>2024-01-03T12:42:17.635Z</time>
</trkpt>
<trkpt lat="30.6298200" lon="34.7837700">
<ele>812.899963</ele>
<time>2024-01-03T12:42:17.635Z</time>
</trkpt>
<trkpt lat="30.6299200" lon="34.7837900">
<ele>813.770020</ele>
<time>2024-01-03T12:42:17.635Z</time>
</trkpt>
<trkpt lat="30.6300100" lon="34.7838000">
<ele>814.710022</ele>
<time>2024-01-03T12:42:17.635Z</time>
</trkpt>
<trkpt lat="30.6301100" lon="34.7838100">
<ele>814.809998</ele>
<time>2024-01-03T12:42:17.635Z</time>
</trkpt>
<trkpt lat="30.6301300" lon="34.7838500">
<ele>815.650024</ele>
<time>2024-01-03T12:42:17.635Z</time>
</trkpt>
<trkpt lat="30.6301500" lon="34.7838700">
<ele>816.119995</ele>
<time>2024-01-03T12:42:17.635Z</time>
</trkpt>
<trkpt lat="30.6302200" lon="34.7839100">
<ele>817.219971</ele>
<time>2024-01-03T12:42:17.635Z</time>
</trkpt>
<trkpt lat="30.6302400" lon="34.7840300">
<ele>819.770020</ele>
<time>2024-01-03T12:42:17.635Z</time>
</trkpt>
<trkpt lat="30.6302500" lon="34.7841400">
<ele>822.140015</ele>
<time>2024-01-03T12:42:17.635Z</time>
</trkpt>
<trkpt lat="30.6302800" lon="34.7842600">
<ele>823.369995</ele>
<time>2024-01-03T12:42:17.635Z</time>
</trkpt>
<trkpt lat="30.6303200" lon="34.7843600">
<ele>824.630005</ele>
<time>2024-01-03T12:42:17.635Z</time>
</trkpt>
<trkpt lat="30.6303700" lon="34.7844600">
<ele>826.429993</ele>
<time>2024-01-03T12:42:17.635Z</time>
</trkpt>
<trkpt lat="30.6304200" lon="34.7845700">
<ele>826.290039</ele>
<time>2024-01-03T12:42:17.635Z</time>
</trkpt>
<trkpt lat="30.6304600" lon="34.7847100">
<ele>825.419983</ele>
<time>2024-01-03T12:42:17.635Z</time>
</trkpt>
<trkpt lat="30.6305000" lon="34.7848200">
<ele>824.429993</ele>
<time>2024-01-03T12:42:17.635Z</time>
</trkpt>
<trkpt lat="30.6305600" lon="34.7849100">
<ele>824.690002</ele>
<time>2024-01-03T12:42:17.635Z</time>
</trkpt>
<trkpt lat="30.6306100" lon="34.7850000">
<ele>823.979980</ele>
<time>2024-01-03T12:42:17.635Z</time>
</trkpt>
<trkpt lat="30.6306700" lon="34.7851200">
<ele>822.669983</ele>
<time>2024-01-03T12:42:17.635Z</time>
</trkpt>
<trkpt lat="30.6307100" lon="34.7852200">
<ele>822.090027</ele>
<time>2024-01-03T12:42:17.635Z</time>
</trkpt>
<trkpt lat="30.6307500" lon="34.7853300">
<ele>821.800049</ele>
<time>2024-01-03T12:42:17.635Z</time>
</trkpt>
<trkpt lat="30.6308100" lon="34.7854200">
<ele>822.179993</ele>
<time>2024-01-03T12:42:17.635Z</time>
</trkpt>
<trkpt lat="30.6308600" lon="34.7855400">
<ele>821.479980</ele>
<time>2024-01-03T12:42:17.635Z</time>
</trkpt>
<trkpt lat="30.6309500" lon="34.7855900">
<ele>824.369995</ele>
<time>2024-01-03T12:42:17.635Z</time>
</trkpt>
<trkpt lat="30.6310400" lon="34.7855900">
<ele>828.220032</ele>
<time>2024-01-03T12:42:17.635Z</time>
</trkpt>
<trkpt lat="30.6311400" lon="34.7856000">
<ele>831.679993</ele>
<time>2024-01-03T12:42:17.635Z</time>
</trkpt>
<trkpt lat="30.6312200" lon="34.7856000">
<ele>833.450012</ele>
<time>2024-01-03T12:42:17.635Z</time>
</trkpt>
<trkpt lat="30.6312500" lon="34.7856000">
<ele>834.120056</ele>
<time>2024-01-03T12:42:17.635Z</time>
</trkpt>
<trkpt lat="30.6312800" lon="34.7856100">
<ele>834.590027</ele>
<time>2024-01-03T12:42:17.635Z</time>
</trkpt>
<trkpt lat="30.6313600" lon="34.7856600">
<ele>835.460022</ele>
<time>2024-01-03T12:42:17.635Z</time>
</trkpt>
<trkpt lat="30.6314500" lon="34.7857300">
<ele>835.169983</ele>
<time>2024-01-03T12:42:17.635Z</time>
</trkpt>
<trkpt lat="30.6315100" lon="34.7858100">
<ele>834.910034</ele>
<time>2024-01-03T12:42:17.635Z</time>
</trkpt>
<trkpt lat="30.6315800" lon="34.7859100">
<ele>834.029968</ele>
<time>2024-01-03T12:42:17.635Z</time>
</trkpt>
<trkpt lat="30.6316300" lon="34.7860200">
<ele>832.760010</ele>
<time>2024-01-03T12:42:17.635Z</time>
</trkpt>
<trkpt lat="30.6316900" lon="34.7861300">
<ele>831.760010</ele>
<time>2024-01-03T12:42:17.635Z</time>
</trkpt>
<trkpt lat="30.6317500" lon="34.7862400">
<ele>830.399963</ele>
<time>2024-01-03T12:42:17.635Z</time>
</trkpt>
<trkpt lat="30.6317700" lon="34.7863400">
<ele>829.169983</ele>
<time>2024-01-03T12:42:17.635Z</time>
</trkpt>
<trkpt lat="30.6318000" lon="34.7864700">
<ele>828.179993</ele>
<time>2024-01-03T12:42:17.635Z</time>
</trkpt>
<trkpt lat="30.6318200" lon="34.7865900">
<ele>827.440002</ele>
<time>2024-01-03T12:42:17.635Z</time>
</trkpt>
<trkpt lat="30.6318300" lon="34.7867200">
<ele>826.279968</ele>
<time>2024-01-03T12:42:17.635Z</time>
</trkpt>
<trkpt lat="30.6318500" lon="34.7868400">
<ele>825.220032</ele>
<time>2024-01-03T12:42:17.635Z</time>
</trkpt>
<trkpt lat="30.6318800" lon="34.7869700">
<ele>824.150024</ele>
<time>2024-01-03T12:42:17.635Z</time>
</trkpt>
<trkpt lat="30.6319300" lon="34.7870900">
<ele>823.070007</ele>
<time>2024-01-03T12:42:17.635Z</time>
</trkpt>
<trkpt lat="30.6319800" lon="34.7872200">
<ele>821.679993</ele>
<time>2024-01-03T12:42:17.635Z</time>
</trkpt>
<trkpt lat="30.6320100" lon="34.7873200">
<ele>819.380005</ele>
<time>2024-01-03T12:42:17.635Z</time>
</trkpt>
<trkpt lat="30.6320400" lon="34.7874300">
<ele>816.450012</ele>
<time>2024-01-03T12:42:17.635Z</time>
</trkpt>
<trkpt lat="30.6320900" lon="34.7875600">
<ele>812.930054</ele>
<time>2024-01-03T12:42:17.635Z</time>
</trkpt>
<trkpt lat="30.6322100" lon="34.7876200">
<ele>812.700012</ele>
<time>2024-01-03T12:42:17.635Z</time>
</trkpt>
<trkpt lat="30.6323000" lon="34.7876400">
<ele>812.200012</ele>
<time>2024-01-03T12:42:17.635Z</time>
</trkpt>
<trkpt lat="30.6323900" lon="34.7876600">
<ele>811.420044</ele>
<time>2024-01-03T12:42:17.635Z</time>
</trkpt>
<trkpt lat="30.6324800" lon="34.7876900">
<ele>810.309998</ele>
<time>2024-01-03T12:42:17.635Z</time>
</trkpt>
<trkpt lat="30.6325900" lon="34.7877600">
<ele>807.090027</ele>
<time>2024-01-03T12:42:17.635Z</time>
</trkpt>
<trkpt lat="30.6327100" lon="34.7877900">
<ele>804.779968</ele>
<time>2024-01-03T12:42:17.635Z</time>
</trkpt>
<trkpt lat="30.6328200" lon="34.7877800">
<ele>804.119995</ele>
<time>2024-01-03T12:42:17.635Z</time>
</trkpt>
<trkpt lat="30.6328800" lon="34.7877400">
<ele>805.109985</ele>
<time>2024-01-03T12:42:17.635Z</time>
</trkpt>
<trkpt lat="30.6329500" lon="34.7876500">
<ele>807.599976</ele>
<time>2024-01-03T12:42:17.635Z</time>
</trkpt>
<trkpt lat="30.6330100" lon="34.7875700">
<ele>810.330017</ele>
<time>2024-01-03T12:42:17.635Z</time>
</trkpt>
<trkpt lat="30.6330600" lon="34.7874600">
<ele>814.440063</ele>
<time>2024-01-03T12:42:17.635Z</time>
</trkpt>
<trkpt lat="30.6331400" lon="34.7873900">
<ele>817.080017</ele>
<time>2024-01-03T12:42:17.635Z</time>
</trkpt>
<trkpt lat="30.6332500" lon="34.7873700">
<ele>818.009949</ele>
<time>2024-01-03T12:42:17.635Z</time>
</trkpt>
<trkpt lat="30.6333400" lon="34.7873300">
<ele>819.690002</ele>
<time>2024-01-03T12:42:17.635Z</time>
</trkpt>
<trkpt lat="30.6334300" lon="34.7873000">
<ele>819.960022</ele>
<time>2024-01-03T12:42:17.635Z</time>
</trkpt>
<trkpt lat="30.6335500" lon="34.7873000">
<ele>818.769958</ele>
<time>2024-01-03T12:42:17.635Z</time>
</trkpt>
<trkpt lat="30.6336600" lon="34.7873000">
<ele>816.700012</ele>
<time>2024-01-03T12:42:17.635Z</time>
</trkpt>
<trkpt lat="30.6337800" lon="34.7873200">
<ele>813.150024</ele>
<time>2024-01-03T12:42:17.635Z</time>
</trkpt>
<trkpt lat="30.6338500" lon="34.7874100">
<ele>811.860046</ele>
<time>2024-01-03T12:42:17.635Z</time>
</trkpt>
<trkpt lat="30.6338900" lon="34.7875300">
<ele>812.200012</ele>
<time>2024-01-03T12:42:17.635Z</time>
</trkpt>
<trkpt lat="30.6339500" lon="34.7876100">
<ele>812.040039</ele>
<time>2024-01-03T12:42:17.635Z</time>
</trkpt>
<trkpt lat="30.6340500" lon="34.7876900">
<ele>811.230042</ele>
<time>2024-01-03T12:42:17.635Z</time>
</trkpt>
<trkpt lat="30.6341100" lon="34.7877800">
<ele>810.820007</ele>
<time>2024-01-03T12:42:17.635Z</time>
</trkpt>
<trkpt lat="30.6341200" lon="34.7879000">
<ele>811.039978</ele>
<time>2024-01-03T12:42:17.635Z</time>
</trkpt>
<trkpt lat="30.6341200" lon="34.7880400">
<ele>811.459961</ele>
<time>2024-01-03T12:42:17.635Z</time>
</trkpt>
<trkpt lat="30.6341000" lon="34.7881800">
<ele>812.619995</ele>
<time>2024-01-03T12:42:17.635Z</time>
</trkpt>
<trkpt lat="30.6340300" lon="34.7883100">
<ele>814.310059</ele>
<time>2024-01-03T12:42:17.635Z</time>
</trkpt>
<trkpt lat="30.6339500" lon="34.7884100">
<ele>815.520020</ele>
<time>2024-01-03T12:42:17.635Z</time>
</trkpt>
<trkpt lat="30.6339300" lon="34.7885300">
<ele>815.869995</ele>
<time>2024-01-03T12:42:17.635Z</time>
</trkpt>
<trkpt lat="30.6339300" lon="34.7886700">
<ele>815.789978</ele>
<time>2024-01-03T12:42:17.635Z</time>
</trkpt>
<trkpt lat="30.6339500" lon="34.7887800">
<ele>815.390015</ele>
<time>2024-01-03T12:42:17.635Z</time>
</trkpt>
<trkpt lat="30.6340000" lon="34.7888700">
<ele>815.070007</ele>
<time>2024-01-03T12:42:17.635Z</time>
</trkpt>
<trkpt lat="30.6340300" lon="34.7889800">
<ele>814.840027</ele>
<time>2024-01-03T12:42:17.635Z</time>
</trkpt>
<trkpt lat="30.6340800" lon="34.7890900">
<ele>814.769958</ele>
<time>2024-01-03T12:42:17.635Z</time>
</trkpt>
<trkpt lat="30.6341600" lon="34.7891700">
<ele>814.950012</ele>
<time>2024-01-03T12:42:17.635Z</time>
</trkpt>
<trkpt lat="30.6342500" lon="34.7892200">
<ele>812.930054</ele>
<time>2024-01-03T12:42:17.635Z</time>
</trkpt>
<trkpt lat="30.6343600" lon="34.7892600">
<ele>810.619995</ele>
<time>2024-01-03T12:42:17.635Z</time>
</trkpt>
<trkpt lat="30.6344600" lon="34.7893400">
<ele>808.679993</ele>
<time>2024-01-03T12:42:17.635Z</time>
</trkpt>
<trkpt lat="30.6345200" lon="34.7894300">
<ele>808.080017</ele>
<time>2024-01-03T12:42:17.635Z</time>
</trkpt>
<trkpt lat="30.6346100" lon="34.7894900">
<ele>807.079956</ele>
<time>2024-01-03T12:42:17.635Z</time>
</trkpt>
<trkpt lat="30.6347200" lon="34.7895000">
<ele>806.020020</ele>
<time>2024-01-03T12:42:17.635Z</time>
</trkpt>
<trkpt lat="30.6348400" lon="34.7894900">
<ele>804.229980</ele>
<time>2024-01-03T12:42:17.635Z</time>
</trkpt>
<trkpt lat="30.6349200" lon="34.7894000">
<ele>801.210022</ele>
<time>2024-01-03T12:42:17.635Z</time>
</trkpt>
<trkpt lat="30.6350200" lon="34.7893400">
<ele>797.989990</ele>
<time>2024-01-03T12:42:17.635Z</time>
</trkpt>
<trkpt lat="30.6351400" lon="34.7893300">
<ele>797.700012</ele>
<time>2024-01-03T12:42:17.635Z</time>
</trkpt>
<trkpt lat="30.6352700" lon="34.7893300">
<ele>797.700012</ele>
<time>2024-01-03T12:42:17.635Z</time>
</trkpt>
<trkpt lat="30.6353700" lon="34.7893300">
<ele>795.950012</ele>
<time>2024-01-03T12:42:17.635Z</time>
</trkpt>
<trkpt lat="30.6354600" lon="34.7893300">
<ele>794.229980</ele>
<time>2024-01-03T12:42:17.635Z</time>
</trkpt>
<trkpt lat="30.6356000" lon="34.7893400">
<ele>792.420044</ele>
<time>2024-01-03T12:42:17.635Z</time>
</trkpt>
<trkpt lat="30.6357200" lon="34.7893400">
<ele>790.910034</ele>
<time>2024-01-03T12:42:17.635Z</time>
</trkpt>
<trkpt lat="30.6358500" lon="34.7893500">
<ele>789.539978</ele>
<time>2024-01-03T12:42:17.635Z</time>
</trkpt>
<trkpt lat="30.6359600" lon="34.7893900">
<ele>788.629944</ele>
<time>2024-01-03T12:42:17.635Z</time>
</trkpt>
<trkpt lat="30.6360500" lon="34.7894500">
<ele>788.669983</ele>
<time>2024-01-03T12:42:17.635Z</time>
</trkpt>
<trkpt lat="30.6361800" lon="34.7894800">
<ele>788.079956</ele>
<time>2024-01-03T12:42:17.635Z</time>
</trkpt>
<trkpt lat="30.6363000" lon="34.7895000">
<ele>788.809998</ele>
<time>2024-01-03T12:42:17.635Z</time>
</trkpt>
<trkpt lat="30.6364400" lon="34.7895200">
<ele>790.179993</ele>
<time>2024-01-03T12:42:17.635Z</time>
</trkpt>
<trkpt lat="30.6365300" lon="34.7896000">
<ele>792.770020</ele>
<time>2024-01-03T12:42:17.635Z</time>
</trkpt>
<trkpt lat="30.6365900" lon="34.7896800">
<ele>794.629944</ele>
<time>2024-01-03T12:42:17.635Z</time>
</trkpt>
<trkpt lat="30.6366200" lon="34.7898100">
<ele>796.289978</ele>
<time>2024-01-03T12:42:17.635Z</time>
</trkpt>
<trkpt lat="30.6366500" lon="34.7899200">
<ele>797.369995</ele>
<time>2024-01-03T12:42:17.635Z</time>
</trkpt>
<trkpt lat="30.6367000" lon="34.7900400">
<ele>798.239990</ele>
<time>2024-01-03T12:42:17.635Z</time>
</trkpt>
<trkpt lat="30.6367600" lon="34.7901400">
<ele>798.500000</ele>
<time>2024-01-03T12:42:17.635Z</time>
</trkpt>
<trkpt lat="30.6368200" lon="34.7902400">
<ele>798.299988</ele>
<time>2024-01-03T12:42:17.635Z</time>
</trkpt>
<trkpt lat="30.6368900" lon="34.7903300">
<ele>798.489990</ele>
<time>2024-01-03T12:42:17.635Z</time>
</trkpt>
<trkpt lat="30.6369700" lon="34.7903900">
<ele>798.909973</ele>
<time>2024-01-03T12:42:17.635Z</time>
</trkpt>
<trkpt lat="30.6370500" lon="34.7904600">
<ele>799.529968</ele>
<time>2024-01-03T12:42:17.635Z</time>
</trkpt>
<trkpt lat="30.6371100" lon="34.7905500">
<ele>800.150024</ele>
<time>2024-01-03T12:42:17.635Z</time>
</trkpt>
<trkpt lat="30.6371600" lon="34.7906500">
<ele>800.430054</ele>
<time>2024-01-03T12:42:17.635Z</time>
</trkpt>
<trkpt lat="30.6372300" lon="34.7907300">
<ele>800.020020</ele>
<time>2024-01-03T12:42:17.635Z</time>
</trkpt>
<trkpt lat="30.6373200" lon="34.7907900">
<ele>797.629944</ele>
<time>2024-01-03T12:42:17.635Z</time>
</trkpt>
<trkpt lat="30.6374200" lon="34.7908400">
<ele>794.619995</ele>
<time>2024-01-03T12:42:17.635Z</time>
</trkpt>
<trkpt lat="30.6375200" lon="34.7908500">
<ele>792.140015</ele>
<time>2024-01-03T12:42:17.635Z</time>
</trkpt>
<trkpt lat="30.6376300" lon="34.7908800">
<ele>792.710022</ele>
<time>2024-01-03T12:42:17.635Z</time>
</trkpt>
<trkpt lat="30.6377300" lon="34.7909400">
<ele>793.529968</ele>
<time>2024-01-03T12:42:17.635Z</time>
</trkpt>
<trkpt lat="30.6378100" lon="34.7910400">
<ele>794.400024</ele>
<time>2024-01-03T12:42:17.635Z</time>
</trkpt>
<trkpt lat="30.6378700" lon="34.7911400">
<ele>795.030029</ele>
<time>2024-01-03T12:42:17.635Z</time>
</trkpt>
<trkpt lat="30.6379600" lon="34.7912000">
<ele>794.900024</ele>
<time>2024-01-03T12:42:17.635Z</time>
</trkpt>
<trkpt lat="30.6380800" lon="34.7912100">
<ele>793.709961</ele>
<time>2024-01-03T12:42:17.635Z</time>
</trkpt>
<trkpt lat="30.6382000" lon="34.7912100">
<ele>789.140015</ele>
<time>2024-01-03T12:42:17.635Z</time>
</trkpt>
<trkpt lat="30.6382900" lon="34.7911800">
<ele>785.460022</ele>
<time>2024-01-03T12:42:17.635Z</time>
</trkpt>
<trkpt lat="30.6383700" lon="34.7911400">
<ele>782.890015</ele>
<time>2024-01-03T12:42:17.635Z</time>
</trkpt>
<trkpt lat="30.6384700" lon="34.7911400">
<ele>781.729980</ele>
<time>2024-01-03T12:42:17.635Z</time>
</trkpt>
<trkpt lat="30.6385700" lon="34.7911400">
<ele>780.580017</ele>
<time>2024-01-03T12:42:17.635Z</time>
</trkpt>
<trkpt lat="30.6386500" lon="34.7911500">
<ele>779.760010</ele>
<time>2024-01-03T12:42:17.635Z</time>
</trkpt>
<trkpt lat="30.6387700" lon="34.7912100">
<ele>779.049988</ele>
<time>2024-01-03T12:42:17.635Z</time>
</trkpt>
<trkpt lat="30.6388500" lon="34.7912900">
<ele>779.169983</ele>
<time>2024-01-03T12:42:17.635Z</time>
</trkpt>
<trkpt lat="30.6389000" lon="34.7913800">
<ele>779.739990</ele>
<time>2024-01-03T12:42:17.635Z</time>
</trkpt>
<trkpt lat="30.6389500" lon="34.7914800">
<ele>781.700012</ele>
<time>2024-01-03T12:42:17.635Z</time>
</trkpt>
<trkpt lat="30.6390400" lon="34.7915900">
<ele>784.469971</ele>
<time>2024-01-03T12:42:17.635Z</time>
</trkpt>
<trkpt lat="30.6391400" lon="34.7916700">
<ele>787.049988</ele>
<time>2024-01-03T12:42:17.635Z</time>
</trkpt>
<trkpt lat="30.6391700" lon="34.7917800">
<ele>788.629944</ele>
<time>2024-01-03T12:42:17.635Z</time>
</trkpt>
<trkpt lat="30.6391700" lon="34.7919200">
<ele>790.639954</ele>
<time>2024-01-03T12:42:17.635Z</time>
</trkpt>
<trkpt lat="30.6391500" lon="34.7920400">
<ele>792.459961</ele>
<time>2024-01-03T12:42:17.635Z</time>
</trkpt>
<trkpt lat="30.6391000" lon="34.7921200">
<ele>793.919983</ele>
<time>2024-01-03T12:42:17.635Z</time>
</trkpt>
<trkpt lat="30.6390500" lon="34.7922100">
<ele>795.649963</ele>
<time>2024-01-03T12:42:17.635Z</time>
</trkpt>
<trkpt lat="30.6390200" lon="34.7923200">
<ele>796.039978</ele>
<time>2024-01-03T12:42:17.635Z</time>
</trkpt>
<trkpt lat="30.6390100" lon="34.7924300">
<ele>796.029968</ele>
<time>2024-01-03T12:42:17.635Z</time>
</trkpt>
<trkpt lat="30.6390100" lon="34.7925600">
<ele>795.470032</ele>
<time>2024-01-03T12:42:17.635Z</time>
</trkpt>
<trkpt lat="30.6390300" lon="34.7927000">
<ele>794.190063</ele>
<time>2024-01-03T12:42:17.635Z</time>
</trkpt>
<trkpt lat="30.6391000" lon="34.7927800">
<ele>793.219971</ele>
<time>2024-01-03T12:42:17.635Z</time>
</trkpt>
<trkpt lat="30.6391700" lon="34.7928800">
<ele>792.160034</ele>
<time>2024-01-03T12:42:17.635Z</time>
</trkpt>
<trkpt lat="30.6392100" lon="34.7929900">
<ele>790.100037</ele>
<time>2024-01-03T12:42:17.635Z</time>
</trkpt>
<trkpt lat="30.6392500" lon="34.7930900">
<ele>788.289978</ele>
<time>2024-01-03T12:42:17.635Z</time>
</trkpt>
<trkpt lat="30.6393000" lon="34.7931600">
<ele>786.849976</ele>
<time>2024-01-03T12:42:17.635Z</time>
</trkpt>
<trkpt lat="30.6393800" lon="34.7932000">
<ele>784.770020</ele>
<time>2024-01-03T12:42:17.635Z</time>
</trkpt>
<trkpt lat="30.6394600" lon="34.7931900">
<ele>782.829956</ele>
<time>2024-01-03T12:42:17.635Z</time>
</trkpt>
<trkpt lat="30.6394800" lon="34.7931100">
<ele>782.190002</ele>
<time>2024-01-03T12:42:17.635Z</time>
</trkpt>
<trkpt lat="30.6394800" lon="34.7929800">
<ele>782.719971</ele>
<time>2024-01-03T12:42:17.635Z</time>
</trkpt>
<trkpt lat="30.6394900" lon="34.7928400">
<ele>784.289978</ele>
<time>2024-01-03T12:42:17.635Z</time>
</trkpt>
<trkpt lat="30.6395100" lon="34.7927000">
<ele>785.359985</ele>
<time>2024-01-03T12:42:17.635Z</time>
</trkpt>
<trkpt lat="30.6395800" lon="34.7926000">
<ele>785.339966</ele>
<time>2024-01-03T12:42:17.635Z</time>
</trkpt>
<trkpt lat="30.6396400" lon="34.7925200">
<ele>784.900024</ele>
<time>2024-01-03T12:42:17.635Z</time>
</trkpt>
<trkpt lat="30.6396800" lon="34.7924100">
<ele>784.599976</ele>
<time>2024-01-03T12:42:17.635Z</time>
</trkpt>
<trkpt lat="30.6397400" lon="34.7923100">
<ele>783.679993</ele>
<time>2024-01-03T12:42:17.635Z</time>
</trkpt>
<trkpt lat="30.6398300" lon="34.7922600">
<ele>781.830017</ele>
<time>2024-01-03T12:42:17.635Z</time>
</trkpt>
<trkpt lat="30.6399200" lon="34.7922600">
<ele>780.020020</ele>
<time>2024-01-03T12:42:17.635Z</time>
</trkpt>
<trkpt lat="30.6400200" lon="34.7922600">
<ele>778.109985</ele>
<time>2024-01-03T12:42:17.635Z</time>
</trkpt>
<trkpt lat="30.6401200" lon="34.7922600">
<ele>776.619995</ele>
<time>2024-01-03T12:42:17.635Z</time>
</trkpt>
<trkpt lat="30.6402300" lon="34.7922600">
<ele>774.979980</ele>
<time>2024-01-03T12:42:17.635Z</time>
</trkpt>
<trkpt lat="30.6403500" lon="34.7922600">
<ele>773.210022</ele>
<time>2024-01-03T12:42:17.635Z</time>
</trkpt>
<trkpt lat="30.6404600" lon="34.7922400">
<ele>771.820007</ele>
<time>2024-01-03T12:42:17.635Z</time>
</trkpt>
<trkpt lat="30.6405700" lon="34.7922300">
<ele>770.730042</ele>
<time>2024-01-03T12:42:17.635Z</time>
</trkpt>
<trkpt lat="30.6406800" lon="34.7922200">
<ele>770.099976</ele>
<time>2024-01-03T12:42:17.635Z</time>
</trkpt>
<trkpt lat="30.6408000" lon="34.7922100">
<ele>769.270020</ele>
<time>2024-01-03T12:42:17.635Z</time>
</trkpt>
<trkpt lat="30.6409100" lon="34.7922100">
<ele>768.789978</ele>
<time>2024-01-03T12:42:17.635Z</time>
</trkpt>
<trkpt lat="30.6410200" lon="34.7922200">
<ele>768.349976</ele>
<time>2024-01-03T12:42:17.635Z</time>
</trkpt>
<trkpt lat="30.6411200" lon="34.7922400">
<ele>768.000000</ele>
<time>2024-01-03T12:42:17.635Z</time>
</trkpt>
<trkpt lat="30.6412300" lon="34.7923200">
<ele>768.650024</ele>
<time>2024-01-03T12:42:17.635Z</time>
</trkpt>
<trkpt lat="30.6413400" lon="34.7923400">
<ele>769.570007</ele>
<time>2024-01-03T12:42:17.635Z</time>
</trkpt>
<trkpt lat="30.6414500" lon="34.7923400">
<ele>769.909973</ele>
<time>2024-01-03T12:42:17.635Z</time>
</trkpt>
<trkpt lat="30.6415500" lon="34.7923400">
<ele>769.750000</ele>
<time>2024-01-03T12:42:17.635Z</time>
</trkpt>
<trkpt lat="30.6416500" lon="34.7923300">
<ele>769.640015</ele>
<time>2024-01-03T12:42:17.635Z</time>
</trkpt>
<trkpt lat="30.6417400" lon="34.7923100">
<ele>769.599976</ele>
<time>2024-01-03T12:42:17.635Z</time>
</trkpt>
<trkpt lat="30.6418300" lon="34.7923100">
<ele>769.500000</ele>
<time>2024-01-03T12:42:17.635Z</time>
</trkpt>
<trkpt lat="30.6419400" lon="34.7923600">
<ele>769.020020</ele>
<time>2024-01-03T12:42:17.635Z</time>
</trkpt>
<trkpt lat="30.6420300" lon="34.7924500">
<ele>768.700012</ele>
<time>2024-01-03T12:42:17.635Z</time>
</trkpt>
<trkpt lat="30.6421400" lon="34.7925100">
<ele>769.369995</ele>
<time>2024-01-03T12:42:17.635Z</time>
</trkpt>
<trkpt lat="30.6422300" lon="34.7925400">
<ele>769.480042</ele>
<time>2024-01-03T12:42:17.635Z</time>
</trkpt>
<trkpt lat="30.6423100" lon="34.7926000">
<ele>766.889954</ele>
<time>2024-01-03T12:42:17.635Z</time>
</trkpt>
<trkpt lat="30.6424100" lon="34.7926400">
<ele>764.270020</ele>
<time>2024-01-03T12:42:17.635Z</time>
</trkpt>
<trkpt lat="30.6425100" lon="34.7926500">
<ele>761.899963</ele>
<time>2024-01-03T12:42:17.635Z</time>
</trkpt>
<trkpt lat="30.6426200" lon="34.7926600">
<ele>759.989990</ele>
<time>2024-01-03T12:42:17.635Z</time>
</trkpt>
<trkpt lat="30.6427200" lon="34.7926700">
<ele>758.260010</ele>
<time>2024-01-03T12:42:17.635Z</time>
</trkpt>
<trkpt lat="30.6428100" lon="34.7927100">
<ele>757.049988</ele>
<time>2024-01-03T12:42:17.635Z</time>
</trkpt>
<trkpt lat="30.6428800" lon="34.7928000">
<ele>755.979980</ele>
<time>2024-01-03T12:42:17.635Z</time>
</trkpt>
<trkpt lat="30.6429500" lon="34.7928800">
<ele>754.250000</ele>
<time>2024-01-03T12:42:17.635Z</time>
</trkpt>
<trkpt lat="30.6430400" lon="34.7929400">
<ele>752.630005</ele>
<time>2024-01-03T12:42:17.635Z</time>
</trkpt>
<trkpt lat="30.6431400" lon="34.7929800">
<ele>752.880066</ele>
<time>2024-01-03T12:42:17.635Z</time>
</trkpt>
<trkpt lat="30.6432100" lon="34.7930300">
<ele>753.200012</ele>
<time>2024-01-03T12:42:17.635Z</time>
</trkpt>
<trkpt lat="30.6432900" lon="34.7930900">
<ele>754.030029</ele>
<time>2024-01-03T12:42:17.635Z</time>
</trkpt>
<trkpt lat="30.6433200" lon="34.7930900">
<ele>754.179993</ele>
<time>2024-01-03T12:42:17.635Z</time>
</trkpt>
<trkpt lat="30.6434100" lon="34.7930600">
<ele>753.469971</ele>
<time>2024-01-03T12:42:17.635Z</time>
</trkpt>
<trkpt lat="30.6435100" lon="34.7930000">
<ele>753.440002</ele>
<time>2024-01-03T12:42:17.635Z</time>
</trkpt>
<trkpt lat="30.6436000" lon="34.7929300">
<ele>754.270020</ele>
<time>2024-01-03T12:42:17.635Z</time>
</trkpt>
<trkpt lat="30.6436800" lon="34.7928400">
<ele>755.500000</ele>
<time>2024-01-03T12:42:17.635Z</time>
</trkpt>
<trkpt lat="30.6437900" lon="34.7927600">
<ele>755.459961</ele>
<time>2024-01-03T12:42:17.635Z</time>
</trkpt>
<trkpt lat="30.6439000" lon="34.7926900">
<ele>753.739990</ele>
<time>2024-01-03T12:42:17.635Z</time>
</trkpt>
<trkpt lat="30.6440100" lon="34.7926300">
<ele>753.619995</ele>
<time>2024-01-03T12:42:17.635Z</time>
</trkpt>
<trkpt lat="30.6441300" lon="34.7925800">
<ele>754.739990</ele>
<time>2024-01-03T12:42:17.635Z</time>
</trkpt>
<trkpt lat="30.6442400" lon="34.7925300">
<ele>755.820007</ele>
<time>2024-01-03T12:42:17.635Z</time>
</trkpt>
<trkpt lat="30.6443500" lon="34.7924900">
<ele>755.890015</ele>
<time>2024-01-03T12:42:17.635Z</time>
</trkpt>
<trkpt lat="30.6444600" lon="34.7924300">
<ele>755.230042</ele>
<time>2024-01-03T12:42:17.635Z</time>
</trkpt>
<trkpt lat="30.6445800" lon="34.7923800">
<ele>752.910034</ele>
<time>2024-01-03T12:42:17.635Z</time>
</trkpt>
<trkpt lat="30.6446900" lon="34.7923400">
<ele>750.940002</ele>
<time>2024-01-03T12:42:17.635Z</time>
</trkpt>
<trkpt lat="30.6448000" lon="34.7923100">
<ele>750.489990</ele>
<time>2024-01-03T12:42:17.635Z</time>
</trkpt>
<trkpt lat="30.6449200" lon="34.7922900">
<ele>750.590027</ele>
<time>2024-01-03T12:42:17.635Z</time>
</trkpt>
<trkpt lat="30.6450400" lon="34.7922900">
<ele>750.339966</ele>
<time>2024-01-03T12:42:17.635Z</time>
</trkpt>
<trkpt lat="30.6451700" lon="34.7922900">
<ele>749.050049</ele>
<time>2024-01-03T12:42:17.635Z</time>
</trkpt>
<trkpt lat="30.6452900" lon="34.7923000">
<ele>748.149963</ele>
<time>2024-01-03T12:42:17.635Z</time>
</trkpt>
<trkpt lat="30.6454100" lon="34.7923300">
<ele>748.580017</ele>
<time>2024-01-03T12:42:17.635Z</time>
</trkpt>
<trkpt lat="30.6455300" lon="34.7923600">
<ele>748.550049</ele>
<time>2024-01-03T12:42:17.635Z</time>
</trkpt>
<trkpt lat="30.6456600" lon="34.7923900">
<ele>750.350037</ele>
<time>2024-01-03T12:42:17.635Z</time>
</trkpt>
<trkpt lat="30.6457400" lon="34.7924100">
<ele>751.880005</ele>
<time>2024-01-03T12:42:17.635Z</time>
</trkpt>
<trkpt lat="30.6458300" lon="34.7924200">
<ele>753.650024</ele>
<time>2024-01-03T12:42:17.635Z</time>
</trkpt>
<trkpt lat="30.6459600" lon="34.7924200">
<ele>754.760010</ele>
<time>2024-01-03T12:42:17.635Z</time>
</trkpt>
<trkpt lat="30.6460800" lon="34.7924200">
<ele>755.739990</ele>
<time>2024-01-03T12:42:17.635Z</time>
</trkpt>
<trkpt lat="30.6461600" lon="34.7923600">
<ele>756.440002</ele>
<time>2024-01-03T12:42:17.635Z</time>
</trkpt>
<trkpt lat="30.6462200" lon="34.7922300">
<ele>757.539978</ele>
<time>2024-01-03T12:42:17.635Z</time>
</trkpt>
<trkpt lat="30.6462600" lon="34.7921300">
<ele>758.630005</ele>
<time>2024-01-03T12:42:17.635Z</time>
</trkpt>
<trkpt lat="30.6463100" lon="34.7920400">
<ele>759.709961</ele>
<time>2024-01-03T12:42:17.635Z</time>
</trkpt>
<trkpt lat="30.6463600" lon="34.7919500">
<ele>760.669983</ele>
<time>2024-01-03T12:42:17.635Z</time>
</trkpt>
<trkpt lat="30.6464100" lon="34.7918600">
<ele>760.190002</ele>
<time>2024-01-03T12:42:17.635Z</time>
</trkpt>
<trkpt lat="30.6464600" lon="34.7917700">
<ele>759.529968</ele>
<time>2024-01-03T12:42:17.635Z</time>
</trkpt>
<trkpt lat="30.6465200" lon="34.7916700">
<ele>758.970032</ele>
<time>2024-01-03T12:42:17.635Z</time>
</trkpt>
<trkpt lat="30.6465700" lon="34.7915700">
<ele>758.239990</ele>
<time>2024-01-03T12:42:17.635Z</time>
</trkpt>
<trkpt lat="30.6466300" lon="34.7914700">
<ele>758.039978</ele>
<time>2024-01-03T12:42:17.635Z</time>
</trkpt>
<trkpt lat="30.6466900" lon="34.7913700">
<ele>758.149963</ele>
<time>2024-01-03T12:42:17.635Z</time>
</trkpt>
<trkpt lat="30.6467500" lon="34.7912700">
<ele>757.790039</ele>
<time>2024-01-03T12:42:17.635Z</time>
</trkpt>
<trkpt lat="30.6468100" lon="34.7911600">
<ele>757.279968</ele>
<time>2024-01-03T12:42:17.635Z</time>
</trkpt>
<trkpt lat="30.6468700" lon="34.7910600">
<ele>757.160034</ele>
<time>2024-01-03T12:42:17.635Z</time>
</trkpt>
<trkpt lat="30.6469400" lon="34.7909500">
<ele>757.190002</ele>
<time>2024-01-03T12:42:17.635Z</time>
</trkpt>
<trkpt lat="30.6470000" lon="34.7908500">
<ele>756.399963</ele>
<time>2024-01-03T12:42:17.635Z</time>
</trkpt>
<trkpt lat="30.6470600" lon="34.7907500">
<ele>755.570007</ele>
<time>2024-01-03T12:42:17.635Z</time>
</trkpt>
<trkpt lat="30.6471200" lon="34.7906500">
<ele>754.480042</ele>
<time>2024-01-03T12:42:17.635Z</time>
</trkpt>
<trkpt lat="30.6471900" lon="34.7905700">
<ele>753.309998</ele>
<time>2024-01-03T12:42:17.635Z</time>
</trkpt>
<trkpt lat="30.6472700" lon="34.7905000">
<ele>753.630005</ele>
<time>2024-01-03T12:42:17.635Z</time>
</trkpt>
<trkpt lat="30.6473600" lon="34.7904600">
<ele>754.970032</ele>
<time>2024-01-03T12:42:17.635Z</time>
</trkpt>
<trkpt lat="30.6474600" lon="34.7904500">
<ele>756.570007</ele>
<time>2024-01-03T12:42:17.635Z</time>
</trkpt>
<trkpt lat="30.6475600" lon="34.7904400">
<ele>757.350037</ele>
<time>2024-01-03T12:42:17.635Z</time>
</trkpt>
<trkpt lat="30.6476600" lon="34.7904300">
<ele>757.619995</ele>
<time>2024-01-03T12:42:17.635Z</time>
</trkpt>
<trkpt lat="30.6477600" lon="34.7904300">
<ele>757.939941</ele>
<time>2024-01-03T12:42:17.635Z</time>
</trkpt>
<trkpt lat="30.6478600" lon="34.7904300">
<ele>757.110046</ele>
<time>2024-01-03T12:42:17.635Z</time>
</trkpt>
<trkpt lat="30.6479600" lon="34.7904300">
<ele>756.029968</ele>
<time>2024-01-03T12:42:17.635Z</time>
</trkpt>
<trkpt lat="30.6480600" lon="34.7904300">
<ele>755.010010</ele>
<time>2024-01-03T12:42:17.635Z</time>
</trkpt>
<trkpt lat="30.6481500" lon="34.7904300">
<ele>755.270020</ele>
<time>2024-01-03T12:42:17.635Z</time>
</trkpt>
<trkpt lat="30.6482500" lon="34.7904300">
<ele>755.570007</ele>
<time>2024-01-03T12:42:17.635Z</time>
</trkpt>
<trkpt lat="30.6483400" lon="34.7904300">
<ele>755.849976</ele>
<time>2024-01-03T12:42:17.635Z</time>
</trkpt>
<trkpt lat="30.6484300" lon="34.7904300">
<ele>756.380005</ele>
<time>2024-01-03T12:42:17.635Z</time>
</trkpt>
<trkpt lat="30.6485200" lon="34.7904300">
<ele>756.910034</ele>
<time>2024-01-03T12:42:17.635Z</time>
</trkpt>
<trkpt lat="30.6486100" lon="34.7904300">
<ele>757.450012</ele>
<time>2024-01-03T12:42:17.635Z</time>
</trkpt>
<trkpt lat="30.6487100" lon="34.7904200">
<ele>758.369995</ele>
<time>2024-01-03T12:42:17.635Z</time>
</trkpt>
<trkpt lat="30.6488000" lon="34.7904200">
<ele>759.179993</ele>
<time>2024-01-03T12:42:17.635Z</time>
</trkpt>
<trkpt lat="30.6489000" lon="34.7904200">
<ele>760.039978</ele>
<time>2024-01-03T12:42:17.635Z</time>
</trkpt>
<trkpt lat="30.6489900" lon="34.7904200">
<ele>760.530029</ele>
<time>2024-01-03T12:42:17.635Z</time>
</trkpt>
<trkpt lat="30.6492500" lon="34.7904200">
<ele>761.780029</ele>
<time>2024-01-03T12:42:17.635Z</time>
</trkpt>
<trkpt lat="30.6495500" lon="34.7912600">
<ele>761.140015</ele>
<time>2024-01-03T12:42:17.635Z</time>
</trkpt>
<trkpt lat="30.6498200" lon="34.7918900">
<ele>763.350037</ele>
<time>2024-01-03T12:42:17.635Z</time>
</trkpt>
<trkpt lat="30.6500800" lon="34.7925300">
<ele>767.050049</ele>
<time>2024-01-03T12:42:17.635Z</time>
</trkpt>
<trkpt lat="30.6504600" lon="34.7932900">
<ele>777.979980</ele>
<time>2024-01-03T12:42:17.635Z</time>
</trkpt>
<trkpt lat="30.6508400" lon="34.7936900">
<ele>780.419983</ele>
<time>2024-01-03T12:42:17.635Z</time>
</trkpt>
<trkpt lat="30.6510700" lon="34.7939300">
<ele>773.950012</ele>
<time>2024-01-03T12:42:17.635Z</time>
</trkpt>
<trkpt lat="30.6514600" lon="34.7944600">
<ele>758.630005</ele>
<time>2024-01-03T12:42:17.635Z</time>
</trkpt>
<trkpt lat="30.6517400" lon="34.7945000">
<ele>762.479980</ele>
<time>2024-01-03T12:42:17.635Z</time>
</trkpt>
<trkpt lat="30.6518300" lon="34.7945100">
<ele>764.429993</ele>
<time>2024-01-03T12:42:17.635Z</time>
</trkpt>
<trkpt lat="30.6525500" lon="34.7946700">
<ele>779.350037</ele>
<time>2024-01-03T12:42:17.635Z</time>
</trkpt>
<trkpt lat="30.6528900" lon="34.7949700">
<ele>778.469971</ele>
<time>2024-01-03T12:42:17.635Z</time>
</trkpt>
<trkpt lat="30.6533200" lon="34.7958300">
<ele>770.119995</ele>
<time>2024-01-03T12:42:17.635Z</time>
</trkpt>
<trkpt lat="30.6534100" lon="34.7960100">
<ele>768.280029</ele>
<time>2024-01-03T12:42:17.635Z</time>
</trkpt>
<trkpt lat="30.6539000" lon="34.7969200">
<ele>765.930054</ele>
<time>2024-01-03T12:42:17.635Z</time>
</trkpt>
<trkpt lat="30.6539300" lon="34.7972800">
<ele>767.320007</ele>
<time>2024-01-03T12:42:17.635Z</time>
</trkpt>
<trkpt lat="30.6540500" lon="34.7974700">
<ele>765.410034</ele>
<time>2024-01-03T12:42:17.635Z</time>
</trkpt>
<trkpt lat="30.6540700" lon="34.7974600">
<ele>764.940002</ele>
<time>2024-01-03T12:42:17.635Z</time>
</trkpt>
<trkpt lat="30.6540900" lon="34.7975300">
<ele>765.039978</ele>
<time>2024-01-03T12:42:17.635Z</time>
</trkpt>
<trkpt lat="30.6541500" lon="34.7976200">
<ele>764.710022</ele>
<time>2024-01-03T12:42:17.635Z</time>
</trkpt>
<trkpt lat="30.6542000" lon="34.7977200">
<ele>764.849976</ele>
<time>2024-01-03T12:42:17.635Z</time>
</trkpt>
<trkpt lat="30.6542200" lon="34.7978400">
<ele>764.950012</ele>
<time>2024-01-03T12:42:17.635Z</time>
</trkpt>
<trkpt lat="30.6542300" lon="34.7979700">
<ele>764.539978</ele>
<time>2024-01-03T12:42:17.635Z</time>
</trkpt>
<trkpt lat="30.6542400" lon="34.7980900">
<ele>764.059998</ele>
<time>2024-01-03T12:42:17.635Z</time>
</trkpt>
<trkpt lat="30.6542400" lon="34.7982100">
<ele>763.740051</ele>
<time>2024-01-03T12:42:17.635Z</time>
</trkpt>
<trkpt lat="30.6542500" lon="34.7983200">
<ele>763.229980</ele>
<time>2024-01-03T12:42:17.635Z</time>
</trkpt>
<trkpt lat="30.6542900" lon="34.7984300">
<ele>761.520020</ele>
<time>2024-01-03T12:42:17.635Z</time>
</trkpt>
<trkpt lat="30.6543500" lon="34.7985400">
<ele>760.270020</ele>
<time>2024-01-03T12:42:17.635Z</time>
</trkpt>
<trkpt lat="30.6544200" lon="34.7986400">
<ele>759.789978</ele>
<time>2024-01-03T12:42:17.635Z</time>
</trkpt>
<trkpt lat="30.6545000" lon="34.7987400">
<ele>758.840027</ele>
<time>2024-01-03T12:42:17.635Z</time>
</trkpt>
<trkpt lat="30.6545700" lon="34.7988500">
<ele>758.479980</ele>
<time>2024-01-03T12:42:17.635Z</time>
</trkpt>
<trkpt lat="30.6546500" lon="34.7989600">
<ele>758.420044</ele>
<time>2024-01-03T12:42:17.635Z</time>
</trkpt>
<trkpt lat="30.6547400" lon="34.7990800">
<ele>758.420044</ele>
<time>2024-01-03T12:42:17.635Z</time>
</trkpt>
<trkpt lat="30.6548100" lon="34.7991900">
<ele>758.549988</ele>
<time>2024-01-03T12:42:17.635Z</time>
</trkpt>
<trkpt lat="30.6548900" lon="34.7993000">
<ele>758.730042</ele>
<time>2024-01-03T12:42:17.635Z</time>
</trkpt>
<trkpt lat="30.6549700" lon="34.7994200">
<ele>758.869995</ele>
<time>2024-01-03T12:42:17.635Z</time>
</trkpt>
<trkpt lat="30.6550300" lon="34.7995300">
<ele>759.029968</ele>
<time>2024-01-03T12:42:17.635Z</time>
</trkpt>
<trkpt lat="30.6551100" lon="34.7996400">
<ele>759.280029</ele>
<time>2024-01-03T12:42:17.635Z</time>
</trkpt>
<trkpt lat="30.6551800" lon="34.7997400">
<ele>759.670044</ele>
<time>2024-01-03T12:42:17.635Z</time>
</trkpt>
<trkpt lat="30.6552500" lon="34.7998500">
<ele>760.270020</ele>
<time>2024-01-03T12:42:17.635Z</time>
</trkpt>
<trkpt lat="30.6553200" lon="34.7999400">
<ele>760.630066</ele>
<time>2024-01-03T12:42:17.635Z</time>
</trkpt>
<trkpt lat="30.6553900" lon="34.8000400">
<ele>760.370056</ele>
<time>2024-01-03T12:42:17.635Z</time>
</trkpt>
<trkpt lat="30.6554600" lon="34.8001400">
<ele>759.670044</ele>
<time>2024-01-03T12:42:17.635Z</time>
</trkpt>
<trkpt lat="30.6555300" lon="34.8002400">
<ele>759.150024</ele>
<time>2024-01-03T12:42:17.635Z</time>
</trkpt>
<trkpt lat="30.6556000" lon="34.8003300">
<ele>758.580017</ele>
<time>2024-01-03T12:42:17.635Z</time>
</trkpt>
<trkpt lat="30.6556700" lon="34.8004300">
<ele>758.400024</ele>
<time>2024-01-03T12:42:17.635Z</time>
</trkpt>
<trkpt lat="30.6557400" lon="34.8005300">
<ele>758.929993</ele>
<time>2024-01-03T12:42:17.635Z</time>
</trkpt>
<trkpt lat="30.6558100" lon="34.8006200">
<ele>759.479980</ele>
<time>2024-01-03T12:42:17.635Z</time>
</trkpt>
<trkpt lat="30.6558800" lon="34.8007200">
<ele>759.170044</ele>
<time>2024-01-03T12:42:17.635Z</time>
</trkpt>
<trkpt lat="30.6559400" lon="34.8008200">
<ele>758.650024</ele>
<time>2024-01-03T12:42:17.635Z</time>
</trkpt>
<trkpt lat="30.6560100" lon="34.8009100">
<ele>758.059998</ele>
<time>2024-01-03T12:42:17.635Z</time>
</trkpt>
<trkpt lat="30.6560800" lon="34.8010000">
<ele>757.909973</ele>
<time>2024-01-03T12:42:17.635Z</time>
</trkpt>
<trkpt lat="30.6561500" lon="34.8011000">
<ele>757.859985</ele>
<time>2024-01-03T12:42:17.635Z</time>
</trkpt>
<trkpt lat="30.6562200" lon="34.8011900">
<ele>757.719971</ele>
<time>2024-01-03T12:42:17.635Z</time>
</trkpt>
<trkpt lat="30.6562800" lon="34.8012900">
<ele>757.779968</ele>
<time>2024-01-03T12:42:17.635Z</time>
</trkpt>
<trkpt lat="30.6563500" lon="34.8013800">
<ele>757.970032</ele>
<time>2024-01-03T12:42:17.635Z</time>
</trkpt>
<trkpt lat="30.6564200" lon="34.8014700">
<ele>757.890015</ele>
<time>2024-01-03T12:42:17.635Z</time>
</trkpt>
<trkpt lat="30.6564800" lon="34.8015600">
<ele>757.669983</ele>
<time>2024-01-03T12:42:17.635Z</time>
</trkpt>
<trkpt lat="30.6565400" lon="34.8016500">
<ele>757.460022</ele>
<time>2024-01-03T12:42:17.635Z</time>
</trkpt>
<trkpt lat="30.6566100" lon="34.8017300">
<ele>757.339966</ele>
<time>2024-01-03T12:42:17.635Z</time>
</trkpt>
<trkpt lat="30.6566700" lon="34.8018200">
<ele>757.559998</ele>
<time>2024-01-03T12:42:17.635Z</time>
</trkpt>
<trkpt lat="30.6567400" lon="34.8019100">
<ele>758.109985</ele>
<time>2024-01-03T12:42:17.635Z</time>
</trkpt>
<trkpt lat="30.6568000" lon="34.8020000">
<ele>758.669983</ele>
<time>2024-01-03T12:42:17.635Z</time>
</trkpt>
<trkpt lat="30.6568600" lon="34.8020900">
<ele>759.430054</ele>
<time>2024-01-03T12:42:17.635Z</time>
</trkpt>
<trkpt lat="30.6569200" lon="34.8021800">
<ele>760.460022</ele>
<time>2024-01-03T12:42:17.635Z</time>
</trkpt>
<trkpt lat="30.6569900" lon="34.8022600">
<ele>760.849976</ele>
<time>2024-01-03T12:42:17.635Z</time>
</trkpt>
<trkpt lat="30.6570500" lon="34.8023500">
<ele>761.299988</ele>
<time>2024-01-03T12:42:17.635Z</time>
</trkpt>
<trkpt lat="30.6571100" lon="34.8024300">
<ele>762.049988</ele>
<time>2024-01-03T12:42:17.635Z</time>
</trkpt>
<trkpt lat="30.6571700" lon="34.8025200">
<ele>763.029968</ele>
<time>2024-01-03T12:42:17.635Z</time>
</trkpt>
<trkpt lat="30.6572300" lon="34.8026000">
<ele>762.960022</ele>
<time>2024-01-03T12:42:17.635Z</time>
</trkpt>
<trkpt lat="30.6572900" lon="34.8026800">
<ele>762.899963</ele>
<time>2024-01-03T12:42:17.635Z</time>
</trkpt>
<trkpt lat="30.6573500" lon="34.8027600">
<ele>763.339966</ele>
<time>2024-01-03T12:42:17.635Z</time>
</trkpt>
<trkpt lat="30.6574000" lon="34.8028400">
<ele>764.169983</ele>
<time>2024-01-03T12:42:17.635Z</time>
</trkpt>
<trkpt lat="30.6574900" lon="34.8029600">
<ele>765.299988</ele>
<time>2024-01-03T12:42:17.635Z</time>
</trkpt>
<trkpt lat="30.6575500" lon="34.8030400">
<ele>765.349976</ele>
<time>2024-01-03T12:42:17.635Z</time>
</trkpt>
<trkpt lat="30.6576000" lon="34.8031200">
<ele>765.150024</ele>
<time>2024-01-03T12:42:17.635Z</time>
</trkpt>
<trkpt lat="30.6576600" lon="34.8032000">
<ele>764.789978</ele>
<time>2024-01-03T12:42:17.635Z</time>
</trkpt>
<trkpt lat="30.6577200" lon="34.8032900">
<ele>764.470032</ele>
<time>2024-01-03T12:42:17.635Z</time>
</trkpt>
<trkpt lat="30.6577800" lon="34.8033700">
<ele>764.119995</ele>
<time>2024-01-03T12:42:17.635Z</time>
</trkpt>
<trkpt lat="30.6578400" lon="34.8034500">
<ele>764.069946</ele>
<time>2024-01-03T12:42:17.635Z</time>
</trkpt>
<trkpt lat="30.6579000" lon="34.8035400">
<ele>764.190002</ele>
<time>2024-01-03T12:42:17.635Z</time>
</trkpt>
<trkpt lat="30.6579600" lon="34.8036200">
<ele>764.390015</ele>
<time>2024-01-03T12:42:17.635Z</time>
</trkpt>
<trkpt lat="30.6580200" lon="34.8037000">
<ele>764.489990</ele>
<time>2024-01-03T12:42:17.635Z</time>
</trkpt>
<trkpt lat="30.6580800" lon="34.8037900">
<ele>764.380005</ele>
<time>2024-01-03T12:42:17.635Z</time>
</trkpt>
<trkpt lat="30.6581400" lon="34.8038700">
<ele>764.019958</ele>
<time>2024-01-03T12:42:17.635Z</time>
</trkpt>
<trkpt lat="30.6582000" lon="34.8039500">
<ele>763.779968</ele>
<time>2024-01-03T12:42:17.635Z</time>
</trkpt>
<trkpt lat="30.6582600" lon="34.8040400">
<ele>763.989990</ele>
<time>2024-01-03T12:42:17.635Z</time>
</trkpt>
<trkpt lat="30.6583100" lon="34.8041200">
<ele>764.539978</ele>
<time>2024-01-03T12:42:17.635Z</time>
</trkpt>
<trkpt lat="30.6583700" lon="34.8042100">
<ele>764.580017</ele>
<time>2024-01-03T12:42:17.635Z</time>
</trkpt>
<trkpt lat="30.6584200" lon="34.8043000">
<ele>763.880005</ele>
<time>2024-01-03T12:42:17.635Z</time>
</trkpt>
<trkpt lat="30.6584800" lon="34.8043800">
<ele>763.339966</ele>
<time>2024-01-03T12:42:17.635Z</time>
</trkpt>
<trkpt lat="30.6585300" lon="34.8044700">
<ele>763.000000</ele>
<time>2024-01-03T12:42:17.635Z</time>
</trkpt>
<trkpt lat="30.6585800" lon="34.8045600">
<ele>763.000000</ele>
<time>2024-01-03T12:42:17.635Z</time>
</trkpt>
<trkpt lat="30.6586600" lon="34.8046900">
<ele>763.369934</ele>
<time>2024-01-03T12:42:17.635Z</time>
</trkpt>
<trkpt lat="30.6587100" lon="34.8047700">
<ele>763.539978</ele>
<time>2024-01-03T12:42:17.635Z</time>
</trkpt>
<trkpt lat="30.6587600" lon="34.8048600">
<ele>763.580017</ele>
<time>2024-01-03T12:42:17.635Z</time>
</trkpt>
<trkpt lat="30.6588100" lon="34.8049600">
<ele>763.580017</ele>
<time>2024-01-03T12:42:17.635Z</time>
</trkpt>
<trkpt lat="30.6588600" lon="34.8050500">
<ele>763.309998</ele>
<time>2024-01-03T12:42:17.635Z</time>
</trkpt>
<trkpt lat="30.6589100" lon="34.8051400">
<ele>762.489990</ele>
<time>2024-01-03T12:42:17.635Z</time>
</trkpt>
<trkpt lat="30.6589500" lon="34.8052300">
<ele>761.520020</ele>
<time>2024-01-03T12:42:17.635Z</time>
</trkpt>
<trkpt lat="30.6590000" lon="34.8053200">
<ele>760.849976</ele>
<time>2024-01-03T12:42:17.635Z</time>
</trkpt>
<trkpt lat="30.6590600" lon="34.8054500">
<ele>760.380005</ele>
<time>2024-01-03T12:42:17.635Z</time>
</trkpt>
<trkpt lat="30.6591300" lon="34.8055800">
<ele>759.900024</ele>
<time>2024-01-03T12:42:17.635Z</time>
</trkpt>
<trkpt lat="30.6591900" lon="34.8057100">
<ele>759.330017</ele>
<time>2024-01-03T12:42:17.635Z</time>
</trkpt>
<trkpt lat="30.6592500" lon="34.8058500">
<ele>759.000000</ele>
<time>2024-01-03T12:42:17.635Z</time>
</trkpt>
<trkpt lat="30.6593000" lon="34.8059400">
<ele>759.000000</ele>
<time>2024-01-03T12:42:17.635Z</time>
</trkpt>
<trkpt lat="30.6593400" lon="34.8060400">
<ele>759.000000</ele>
<time>2024-01-03T12:42:17.635Z</time>
</trkpt>
<trkpt lat="30.6594000" lon="34.8061800">
<ele>758.960022</ele>
<time>2024-01-03T12:42:17.635Z</time>
</trkpt>
<trkpt lat="30.6594600" lon="34.8063100">
<ele>759.109985</ele>
<time>2024-01-03T12:42:17.635Z</time>
</trkpt>
<trkpt lat="30.6595100" lon="34.8064500">
<ele>759.419983</ele>
<time>2024-01-03T12:42:17.635Z</time>
</trkpt>
<trkpt lat="30.6595700" lon="34.8065900">
<ele>759.579956</ele>
<time>2024-01-03T12:42:17.635Z</time>
</trkpt>
<trkpt lat="30.6596200" lon="34.8067300">
<ele>759.940002</ele>
<time>2024-01-03T12:42:17.635Z</time>
</trkpt>
<trkpt lat="30.6596700" lon="34.8068500">
<ele>760.599976</ele>
<time>2024-01-03T12:42:17.635Z</time>
</trkpt>
<trkpt lat="30.6597200" lon="34.8069800">
<ele>761.130005</ele>
<time>2024-01-03T12:42:17.635Z</time>
</trkpt>
<trkpt lat="30.6597600" lon="34.8070900">
<ele>761.719971</ele>
<time>2024-01-03T12:42:17.635Z</time>
</trkpt>
<trkpt lat="30.6598000" lon="34.8072100">
<ele>762.250061</ele>
<time>2024-01-03T12:42:17.635Z</time>
</trkpt>
<trkpt lat="30.6598300" lon="34.8073200">
<ele>762.520020</ele>
<time>2024-01-03T12:42:17.635Z</time>
</trkpt>
<trkpt lat="30.6598700" lon="34.8074200">
<ele>762.910034</ele>
<time>2024-01-03T12:42:17.635Z</time>
</trkpt>
<trkpt lat="30.6599000" lon="34.8075300">
<ele>763.279968</ele>
<time>2024-01-03T12:42:17.635Z</time>
</trkpt>
<trkpt lat="30.6599300" lon="34.8076300">
<ele>763.499939</ele>
<time>2024-01-03T12:42:17.635Z</time>
</trkpt>
<trkpt lat="30.6599600" lon="34.8077300">
<ele>763.710022</ele>
<time>2024-01-03T12:42:17.635Z</time>
</trkpt>
<trkpt lat="30.6599900" lon="34.8078300">
<ele>763.929993</ele>
<time>2024-01-03T12:42:17.635Z</time>
</trkpt>
<trkpt lat="30.6600200" lon="34.8079400">
<ele>764.130005</ele>
<time>2024-01-03T12:42:17.635Z</time>
</trkpt>
<trkpt lat="30.6600500" lon="34.8080400">
<ele>764.199951</ele>
<time>2024-01-03T12:42:17.635Z</time>
</trkpt>
<trkpt lat="30.6600800" lon="34.8081400">
<ele>763.770020</ele>
<time>2024-01-03T12:42:17.635Z</time>
</trkpt>
<trkpt lat="30.6601000" lon="34.8082500">
<ele>763.209961</ele>
<time>2024-01-03T12:42:17.635Z</time>
</trkpt>
<trkpt lat="30.6601300" lon="34.8083500">
<ele>762.850037</ele>
<time>2024-01-03T12:42:17.635Z</time>
</trkpt>
<trkpt lat="30.6601600" lon="34.8084600">
<ele>762.429993</ele>
<time>2024-01-03T12:42:17.635Z</time>
</trkpt>
<trkpt lat="30.6601900" lon="34.8085800">
<ele>761.869995</ele>
<time>2024-01-03T12:42:17.635Z</time>
</trkpt>
<trkpt lat="30.6602100" lon="34.8086900">
<ele>760.409973</ele>
<time>2024-01-03T12:42:17.635Z</time>
</trkpt>
<trkpt lat="30.6602400" lon="34.8088000">
<ele>758.559998</ele>
<time>2024-01-03T12:42:17.635Z</time>
</trkpt>
<trkpt lat="30.6602700" lon="34.8089100">
<ele>756.619995</ele>
<time>2024-01-03T12:42:17.635Z</time>
</trkpt>
<trkpt lat="30.6602900" lon="34.8090200">
<ele>754.460022</ele>
<time>2024-01-03T12:42:17.635Z</time>
</trkpt>
<trkpt lat="30.6603200" lon="34.8091200">
<ele>752.230042</ele>
<time>2024-01-03T12:42:17.635Z</time>
</trkpt>
<trkpt lat="30.6603500" lon="34.8092500">
<ele>748.909973</ele>
<time>2024-01-03T12:42:17.635Z</time>
</trkpt>
<trkpt lat="30.6603800" lon="34.8093700">
<ele>744.980042</ele>
<time>2024-01-03T12:42:17.635Z</time>
</trkpt>
<trkpt lat="30.6604000" lon="34.8094800">
<ele>741.499939</ele>
<time>2024-01-03T12:42:17.635Z</time>
</trkpt>
<trkpt lat="30.6604200" lon="34.8095900">
<ele>739.080017</ele>
<time>2024-01-03T12:42:17.635Z</time>
</trkpt>
<trkpt lat="30.6604500" lon="34.8095800">
<ele>738.629944</ele>
<time>2024-01-03T12:42:17.635Z</time>
</trkpt>
<trkpt lat="30.6604800" lon="34.8097000">
<ele>737.159973</ele>
<time>2024-01-03T12:42:17.635Z</time>
</trkpt>
<trkpt lat="30.6616300" lon="34.8093100">
<ele>726.729980</ele>
<time>2024-01-03T12:42:17.635Z</time>
</trkpt>
<trkpt lat="30.6619300" lon="34.8094600">
<ele>738.369934</ele>
<time>2024-01-03T12:42:17.635Z</time>
</trkpt>
<trkpt lat="30.6620300" lon="34.8095000">
<ele>742.260010</ele>
<time>2024-01-03T12:42:17.635Z</time>
</trkpt>
<trkpt lat="30.6621500" lon="34.8095900">
<ele>748.090027</ele>
<time>2024-01-03T12:42:17.635Z</time>
</trkpt>
<trkpt lat="30.6623000" lon="34.8096500">
<ele>752.849976</ele>
<time>2024-01-03T12:42:17.635Z</time>
</trkpt>
<trkpt lat="30.6632100" lon="34.8102000">
<ele>762.399963</ele>
<time>2024-01-03T12:42:17.635Z</time>
</trkpt>
<trkpt lat="30.6635900" lon="34.8104000">
<ele>767.050049</ele>
<time>2024-01-03T12:42:17.635Z</time>
</trkpt>
<trkpt lat="30.6638500" lon="34.8105100">
<ele>770.090027</ele>
<time>2024-01-03T12:42:17.635Z</time>
</trkpt>
<trkpt lat="30.6642400" lon="34.8105700">
<ele>774.780029</ele>
<time>2024-01-03T12:42:17.635Z</time>
</trkpt>
<trkpt lat="30.6644000" lon="34.8105800">
<ele>776.450012</ele>
<time>2024-01-03T12:42:17.635Z</time>
</trkpt>
<trkpt lat="30.6645700" lon="34.8106100">
<ele>779.240051</ele>
<time>2024-01-03T12:42:17.635Z</time>
</trkpt>
<trkpt lat="30.6645700" lon="34.8107800">
<ele>779.179993</ele>
<time>2024-01-03T12:42:17.635Z</time>
</trkpt>
<trkpt lat="30.6645800" lon="34.8108600">
<ele>779.320007</ele>
<time>2024-01-03T12:42:17.635Z</time>
</trkpt>
<trkpt lat="30.6646000" lon="34.8115500">
<ele>781.109985</ele>
<time>2024-01-03T12:42:17.635Z</time>
</trkpt>
<trkpt lat="30.6647500" lon="34.8120900">
<ele>788.029968</ele>
<time>2024-01-03T12:42:17.635Z</time>
</trkpt>
<trkpt lat="30.6648700" lon="34.8124300">
<ele>792.329956</ele>
<time>2024-01-03T12:42:17.635Z</time>
</trkpt>
<trkpt lat="30.6649300" lon="34.8127800">
<ele>792.479980</ele>
<time>2024-01-03T12:42:17.635Z</time>
</trkpt>
<trkpt lat="30.6649300" lon="34.8130600">
<ele>791.220032</ele>
<time>2024-01-03T12:42:17.635Z</time>
</trkpt>
<trkpt lat="30.6650600" lon="34.8133800">
<ele>791.740051</ele>
<time>2024-01-03T12:42:17.635Z</time>
</trkpt>
<trkpt lat="30.6649100" lon="34.8133500">
<ele>789.219971</ele>
<time>2024-01-03T12:42:17.635Z</time>
</trkpt>
<trkpt lat="30.6644400" lon="34.8134900">
<ele>777.549988</ele>
<time>2024-01-03T12:42:17.635Z</time>
</trkpt>
<trkpt lat="30.6641600" lon="34.8134600">
<ele>777.080017</ele>
<time>2024-01-03T12:42:17.635Z</time>
</trkpt>
<trkpt lat="30.6638800" lon="34.8134600">
<ele>780.270020</ele>
<time>2024-01-03T12:42:17.635Z</time>
</trkpt>
<trkpt lat="30.6630800" lon="34.8135500">
<ele>772.789978</ele>
<time>2024-01-03T12:42:17.635Z</time>
</trkpt>
<trkpt lat="30.6626500" lon="34.8137300">
<ele>769.079956</ele>
<time>2024-01-03T12:42:17.635Z</time>
</trkpt>
<trkpt lat="30.6626500" lon="34.8137300">
<ele>769.079956</ele>
<time>2024-01-03T12:42:17.635Z</time>
</trkpt>
<trkpt lat="30.6625600" lon="34.8137700">
<ele>768.429993</ele>
<time>2024-01-03T12:42:17.635Z</time>
</trkpt>
<trkpt lat="30.6624300" lon="34.8138100">
<ele>768.179993</ele>
<time>2024-01-03T12:42:17.635Z</time>
</trkpt>
<trkpt lat="30.6619900" lon="34.8131400">
<ele>768.809998</ele>
<time>2024-01-03T12:42:17.635Z</time>
</trkpt>
<trkpt lat="30.6618500" lon="34.8124600">
<ele>769.119995</ele>
<time>2024-01-03T12:42:17.635Z</time>
</trkpt>
<trkpt lat="30.6617500" lon="34.8121600">
<ele>768.089966</ele>
<time>2024-01-03T12:42:17.635Z</time>
</trkpt>
<trkpt lat="30.6615500" lon="34.8117100">
<ele>767.619995</ele>
<time>2024-01-03T12:42:17.635Z</time>
</trkpt>
<trkpt lat="30.6613700" lon="34.8113500">
<ele>766.679993</ele>
<time>2024-01-03T12:42:17.635Z</time>
</trkpt>
<trkpt lat="30.6609600" lon="34.8106600">
<ele>763.070007</ele>
<time>2024-01-03T12:42:17.635Z</time>
</trkpt>
<trkpt lat="30.6608100" lon="34.8104200">
<ele>757.519958</ele>
<time>2024-01-03T12:42:17.635Z</time>
</trkpt>
<trkpt lat="30.6606000" lon="34.8101500">
<ele>750.020020</ele>
<time>2024-01-03T12:42:17.635Z</time>
</trkpt>
<trkpt lat="30.6605000" lon="34.8100200">
<ele>744.679993</ele>
<time>2024-01-03T12:42:17.635Z</time>
</trkpt>
<trkpt lat="30.6603900" lon="34.8100700">
<ele>744.590027</ele>
<time>2024-01-03T12:42:17.635Z</time>
</trkpt>
<trkpt lat="30.6602400" lon="34.8101700">
<ele>745.979980</ele>
<time>2024-01-03T12:42:17.635Z</time>
</trkpt>
<trkpt lat="30.6600800" lon="34.8102400">
<ele>746.269958</ele>
<time>2024-01-03T12:42:17.635Z</time>
</trkpt>
<trkpt lat="30.6598700" lon="34.8103100">
<ele>746.529968</ele>
<time>2024-01-03T12:42:17.635Z</time>
</trkpt>
<trkpt lat="30.6593900" lon="34.8104500">
<ele>743.690002</ele>
<time>2024-01-03T12:42:17.635Z</time>
</trkpt>
<trkpt lat="30.6592300" lon="34.8104800">
<ele>743.169983</ele>
<time>2024-01-03T12:42:17.635Z</time>
</trkpt>
<trkpt lat="30.6589400" lon="34.8105400">
<ele>743.859985</ele>
<time>2024-01-03T12:42:17.635Z</time>
</trkpt>
<trkpt lat="30.6587400" lon="34.8105700">
<ele>743.559998</ele>
<time>2024-01-03T12:42:17.635Z</time>
</trkpt>
<trkpt lat="30.6586100" lon="34.8105800">
<ele>743.330017</ele>
<time>2024-01-03T12:42:17.635Z</time>
</trkpt>
<trkpt lat="30.6581300" lon="34.8106600">
<ele>748.340027</ele>
<time>2024-01-03T12:42:17.635Z</time>
</trkpt>
<trkpt lat="30.6576700" lon="34.8108200">
<ele>748.569946</ele>
<time>2024-01-03T12:42:17.635Z</time>
</trkpt>
<trkpt lat="30.6572200" lon="34.8109800">
<ele>743.260010</ele>
<time>2024-01-03T12:42:17.635Z</time>
</trkpt>
<trkpt lat="30.6567600" lon="34.8111300">
<ele>743.210022</ele>
<time>2024-01-03T12:42:17.635Z</time>
</trkpt>
<trkpt lat="30.6563000" lon="34.8112900">
<ele>739.279968</ele>
<time>2024-01-03T12:42:17.635Z</time>
</trkpt>
<trkpt lat="30.6559500" lon="34.8113800">
<ele>735.179993</ele>
<time>2024-01-03T12:42:17.635Z</time>
</trkpt>
<trkpt lat="30.6553700" lon="34.8113700">
<ele>744.159973</ele>
<time>2024-01-03T12:42:17.635Z</time>
</trkpt>
<trkpt lat="30.6549100" lon="34.8112400">
<ele>760.979980</ele>
<time>2024-01-03T12:42:17.635Z</time>
</trkpt>
<trkpt lat="30.6544500" lon="34.8111000">
<ele>773.799988</ele>
<time>2024-01-03T12:42:17.635Z</time>
</trkpt>
<trkpt lat="30.6540000" lon="34.8109700">
<ele>772.489990</ele>
<time>2024-01-03T12:42:17.635Z</time>
</trkpt>
<trkpt lat="30.6535400" lon="34.8108300">
<ele>771.399963</ele>
<time>2024-01-03T12:42:17.635Z</time>
</trkpt>
<trkpt lat="30.6530800" lon="34.8107000">
<ele>768.960022</ele>
<time>2024-01-03T12:42:17.635Z</time>
</trkpt>
<trkpt lat="30.6525600" lon="34.8105400">
<ele>767.899963</ele>
<time>2024-01-03T12:42:17.635Z</time>
</trkpt>
<trkpt lat="30.6520300" lon="34.8103900">
<ele>767.790039</ele>
<time>2024-01-03T12:42:17.635Z</time>
</trkpt>
<trkpt lat="30.6515100" lon="34.8102300">
<ele>771.080017</ele>
<time>2024-01-03T12:42:17.635Z</time>
</trkpt>
<trkpt lat="30.6510300" lon="34.8100800">
<ele>769.130005</ele>
<time>2024-01-03T12:42:17.635Z</time>
</trkpt>
<trkpt lat="30.6505700" lon="34.8099400">
<ele>775.140015</ele>
<time>2024-01-03T12:42:17.635Z</time>
</trkpt>
<trkpt lat="30.6505400" lon="34.8099300">
<ele>775.460022</ele>
<time>2024-01-03T12:42:17.635Z</time>
</trkpt>
<trkpt lat="30.6500600" lon="34.8097800">
<ele>778.410034</ele>
<time>2024-01-03T12:42:17.635Z</time>
</trkpt>
<trkpt lat="30.6494400" lon="34.8095000">
<ele>787.760010</ele>
<time>2024-01-03T12:42:17.635Z</time>
</trkpt>
<trkpt lat="30.6488100" lon="34.8092100">
<ele>789.160034</ele>
<time>2024-01-03T12:42:17.635Z</time>
</trkpt>
<trkpt lat="30.6483100" lon="34.8089700">
<ele>785.330017</ele>
<time>2024-01-03T12:42:17.635Z</time>
</trkpt>
<trkpt lat="30.6478200" lon="34.8087200">
<ele>774.730042</ele>
<time>2024-01-03T12:42:17.635Z</time>
</trkpt>
<trkpt lat="30.6473200" lon="34.8084800">
<ele>777.260010</ele>
<time>2024-01-03T12:42:17.635Z</time>
</trkpt>
<trkpt lat="30.6468300" lon="34.8082300">
<ele>778.449951</ele>
<time>2024-01-03T12:42:17.635Z</time>
</trkpt>
<trkpt lat="30.6463300" lon="34.8079900">
<ele>782.149963</ele>
<time>2024-01-03T12:42:17.635Z</time>
</trkpt>
<trkpt lat="30.6459800" lon="34.8078700">
<ele>782.739990</ele>
<time>2024-01-03T12:42:17.635Z</time>
</trkpt>
<trkpt lat="30.6454100" lon="34.8077300">
<ele>779.299988</ele>
<time>2024-01-03T12:42:17.635Z</time>
</trkpt>
<trkpt lat="30.6453600" lon="34.8077200">
<ele>779.080017</ele>
<time>2024-01-03T12:42:17.635Z</time>
</trkpt>
<trkpt lat="30.6448400" lon="34.8075800">
<ele>771.179993</ele>
<time>2024-01-03T12:42:17.635Z</time>
</trkpt>
<trkpt lat="30.6440500" lon="34.8074400">
<ele>767.329956</ele>
<time>2024-01-03T12:42:17.635Z</time>
</trkpt>
<trkpt lat="30.6435000" lon="34.8073300">
<ele>771.490051</ele>
<time>2024-01-03T12:42:17.635Z</time>
</trkpt>
<trkpt lat="30.6429400" lon="34.8072300">
<ele>767.640015</ele>
<time>2024-01-03T12:42:17.635Z</time>
</trkpt>
<trkpt lat="30.6423900" lon="34.8071200">
<ele>768.299988</ele>
<time>2024-01-03T12:42:17.635Z</time>
</trkpt>
<trkpt lat="30.6421400" lon="34.8069400">
<ele>765.619995</ele>
<time>2024-01-03T12:42:17.635Z</time>
</trkpt>
<trkpt lat="30.6422600" lon="34.8078200">
<ele>771.419983</ele>
<time>2024-01-03T12:42:17.635Z</time>
</trkpt>
<trkpt lat="30.6422600" lon="34.8079100">
<ele>773.000061</ele>
<time>2024-01-03T12:42:17.635Z</time>
</trkpt>
<trkpt lat="30.6422300" lon="34.8086300">
<ele>781.119995</ele>
<time>2024-01-03T12:42:17.635Z</time>
</trkpt>
<trkpt lat="30.6422000" lon="34.8093600">
<ele>782.539978</ele>
<time>2024-01-03T12:42:17.635Z</time>
</trkpt>
<trkpt lat="30.6422800" lon="34.8099000">
<ele>783.490051</ele>
<time>2024-01-03T12:42:17.635Z</time>
</trkpt>
<trkpt lat="30.6423500" lon="34.8104300">
<ele>785.469971</ele>
<time>2024-01-03T12:42:17.635Z</time>
</trkpt>
<trkpt lat="30.6424300" lon="34.8109700">
<ele>788.010010</ele>
<time>2024-01-03T12:42:17.635Z</time>
</trkpt>
<trkpt lat="30.6425000" lon="34.8115000">
<ele>784.399963</ele>
<time>2024-01-03T12:42:17.635Z</time>
</trkpt>
<trkpt lat="30.6425800" lon="34.8120400">
<ele>788.510010</ele>
<time>2024-01-03T12:42:17.635Z</time>
</trkpt>
<trkpt lat="30.6423900" lon="34.8125200">
<ele>784.869995</ele>
<time>2024-01-03T12:42:17.635Z</time>
</trkpt>
<trkpt lat="30.6422000" lon="34.8130100">
<ele>784.809998</ele>
<time>2024-01-03T12:42:17.635Z</time>
</trkpt>
<trkpt lat="30.6420100" lon="34.8134900">
<ele>783.310059</ele>
<time>2024-01-03T12:42:17.635Z</time>
</trkpt>
<trkpt lat="30.6417500" lon="34.8140700">
<ele>785.820007</ele>
<time>2024-01-03T12:42:17.635Z</time>
</trkpt>
<trkpt lat="30.6415900" lon="34.8148000">
<ele>790.949951</ele>
<time>2024-01-03T12:42:17.635Z</time>
</trkpt>
<trkpt lat="30.6414300" lon="34.8155200">
<ele>792.719971</ele>
<time>2024-01-03T12:42:17.635Z</time>
</trkpt>
<trkpt lat="30.6412000" lon="34.8160200">
<ele>792.409973</ele>
<time>2024-01-03T12:42:17.635Z</time>
</trkpt>
<trkpt lat="30.6409700" lon="34.8165300">
<ele>792.990051</ele>
<time>2024-01-03T12:42:17.635Z</time>
</trkpt>
<trkpt lat="30.6407400" lon="34.8170300">
<ele>791.920044</ele>
<time>2024-01-03T12:42:17.635Z</time>
</trkpt>
<trkpt lat="30.6403400" lon="34.8176400">
<ele>790.250061</ele>
<time>2024-01-03T12:42:17.635Z</time>
</trkpt>
<trkpt lat="30.6399400" lon="34.8182400">
<ele>795.779968</ele>
<time>2024-01-03T12:42:17.635Z</time>
</trkpt>
<trkpt lat="30.6398300" lon="34.8188700">
<ele>796.349976</ele>
<time>2024-01-03T12:42:17.635Z</time>
</trkpt>
<trkpt lat="30.6397100" lon="34.8194900">
<ele>790.739990</ele>
<time>2024-01-03T12:42:17.635Z</time>
</trkpt>
<trkpt lat="30.6393600" lon="34.8198200">
<ele>781.040039</ele>
<time>2024-01-03T12:42:17.635Z</time>
</trkpt>
<trkpt lat="30.6390100" lon="34.8201500">
<ele>776.599976</ele>
<time>2024-01-03T12:42:17.635Z</time>
</trkpt>
<trkpt lat="30.6386500" lon="34.8204700">
<ele>777.840027</ele>
<time>2024-01-03T12:42:17.635Z</time>
</trkpt>
<trkpt lat="30.6383000" lon="34.8208000">
<ele>779.160034</ele>
<time>2024-01-03T12:42:17.635Z</time>
</trkpt>
<trkpt lat="30.6381500" lon="34.8209400">
<ele>779.649963</ele>
<time>2024-01-03T12:42:17.635Z</time>
</trkpt>
<trkpt lat="30.6379500" lon="34.8211300">
<ele>777.440002</ele>
<time>2024-01-03T12:42:17.635Z</time>
</trkpt>
<trkpt lat="30.6375600" lon="34.8214400">
<ele>774.030029</ele>
<time>2024-01-03T12:42:17.635Z</time>
</trkpt>
<trkpt lat="30.6371600" lon="34.8217400">
<ele>776.080017</ele>
<time>2024-01-03T12:42:17.635Z</time>
</trkpt>
<trkpt lat="30.6367700" lon="34.8220500">
<ele>779.909973</ele>
<time>2024-01-03T12:42:17.635Z</time>
</trkpt>
<trkpt lat="30.6367000" lon="34.8220300">
<ele>779.840027</ele>
<time>2024-01-03T12:42:17.635Z</time>
</trkpt>
<trkpt lat="30.6363500" lon="34.8218300">
<ele>785.059998</ele>
<time>2024-01-03T12:42:17.635Z</time>
</trkpt>
<trkpt lat="30.6363400" lon="34.8218400">
<ele>785.000000</ele>
<time>2024-01-03T12:42:17.635Z</time>
</trkpt>
<trkpt lat="30.6363400" lon="34.8218300">
<ele>785.209961</ele>
<time>2024-01-03T12:42:17.635Z</time>
</trkpt>
<trkpt lat="30.6360900" lon="34.8216500">
<ele>791.140015</ele>
<time>2024-01-03T12:42:17.635Z</time>
</trkpt>
<trkpt lat="30.6354700" lon="34.8210000">
<ele>794.590027</ele>
<time>2024-01-03T12:42:17.635Z</time>
</trkpt>
<trkpt lat="30.6350900" lon="34.8207300">
<ele>799.650024</ele>
<time>2024-01-03T12:42:17.635Z</time>
</trkpt>
<trkpt lat="30.6348400" lon="34.8206000">
<ele>801.630005</ele>
<time>2024-01-03T12:42:17.635Z</time>
</trkpt>
<trkpt lat="30.6347600" lon="34.8205900">
<ele>802.100037</ele>
<time>2024-01-03T12:42:17.635Z</time>
</trkpt>
<trkpt lat="30.6344400" lon="34.8205900">
<ele>802.410034</ele>
<time>2024-01-03T12:42:17.635Z</time>
</trkpt>
<trkpt lat="30.6341700" lon="34.8206800">
<ele>796.609985</ele>
<time>2024-01-03T12:42:17.635Z</time>
</trkpt>
<trkpt lat="30.6339700" lon="34.8207600">
<ele>795.890015</ele>
<time>2024-01-03T12:42:17.635Z</time>
</trkpt>
<trkpt lat="30.6335800" lon="34.8209200">
<ele>799.260010</ele>
<time>2024-01-03T12:42:17.635Z</time>
</trkpt>
<trkpt lat="30.6332000" lon="34.8209300">
<ele>796.910034</ele>
<time>2024-01-03T12:42:17.635Z</time>
</trkpt>
<trkpt lat="30.6331200" lon="34.8209200">
<ele>796.010010</ele>
<time>2024-01-03T12:42:17.635Z</time>
</trkpt>
<trkpt lat="30.6330000" lon="34.8208600">
<ele>794.700012</ele>
<time>2024-01-03T12:42:17.635Z</time>
</trkpt>
<trkpt lat="30.6329200" lon="34.8208500">
<ele>794.079956</ele>
<time>2024-01-03T12:42:17.635Z</time>
</trkpt>
<trkpt lat="30.6327500" lon="34.8208400">
<ele>792.730042</ele>
<time>2024-01-03T12:42:17.635Z</time>
</trkpt>
<trkpt lat="30.6325700" lon="34.8207700">
<ele>790.579956</ele>
<time>2024-01-03T12:42:17.635Z</time>
</trkpt>
<trkpt lat="30.6321800" lon="34.8207400">
<ele>789.279968</ele>
<time>2024-01-03T12:42:17.635Z</time>
</trkpt>
<trkpt lat="30.6319800" lon="34.8206400">
<ele>789.089966</ele>
<time>2024-01-03T12:42:17.635Z</time>
</trkpt>
<trkpt lat="30.6315900" lon="34.8203100">
<ele>789.979980</ele>
<time>2024-01-03T12:42:17.635Z</time>
</trkpt>
<trkpt lat="30.6314400" lon="34.8202100">
<ele>791.250000</ele>
<time>2024-01-03T12:42:17.635Z</time>
</trkpt>
<trkpt lat="30.6311300" lon="34.8201100">
<ele>793.450012</ele>
<time>2024-01-03T12:42:17.635Z</time>
</trkpt>
<trkpt lat="30.6308000" lon="34.8199200">
<ele>789.970032</ele>
<time>2024-01-03T12:42:17.635Z</time>
</trkpt>
<trkpt lat="30.6305500" lon="34.8198800">
<ele>789.569946</ele>
<time>2024-01-03T12:42:17.635Z</time>
</trkpt>
<trkpt lat="30.6304800" lon="34.8198600">
<ele>789.640015</ele>
<time>2024-01-03T12:42:17.635Z</time>
</trkpt>
<trkpt lat="30.6303500" lon="34.8198300">
<ele>790.009949</ele>
<time>2024-01-03T12:42:17.635Z</time>
</trkpt>
<trkpt lat="30.6302600" lon="34.8198500">
<ele>789.879944</ele>
<time>2024-01-03T12:42:17.635Z</time>
</trkpt>
<trkpt lat="30.6301600" lon="34.8198700">
<ele>788.690002</ele>
<time>2024-01-03T12:42:17.635Z</time>
</trkpt>
<trkpt lat="30.6301700" lon="34.8197500">
<ele>789.329956</ele>
<time>2024-01-03T12:42:17.635Z</time>
</trkpt>
<trkpt lat="30.6301900" lon="34.8196400">
<ele>790.139954</ele>
<time>2024-01-03T12:42:17.635Z</time>
</trkpt>
<trkpt lat="30.6302000" lon="34.8195200">
<ele>790.930054</ele>
<time>2024-01-03T12:42:17.635Z</time>
</trkpt>
<trkpt lat="30.6301800" lon="34.8194000">
<ele>790.940002</ele>
<time>2024-01-03T12:42:17.635Z</time>
</trkpt>
<trkpt lat="30.6301000" lon="34.8193100">
<ele>789.470032</ele>
<time>2024-01-03T12:42:17.635Z</time>
</trkpt>
<trkpt lat="30.6300100" lon="34.8192300">
<ele>787.960022</ele>
<time>2024-01-03T12:42:17.635Z</time>
</trkpt>
<trkpt lat="30.6299300" lon="34.8191900">
<ele>787.980042</ele>
<time>2024-01-03T12:42:17.635Z</time>
</trkpt>
<trkpt lat="30.6298600" lon="34.8191200">
<ele>788.079956</ele>
<time>2024-01-03T12:42:17.635Z</time>
</trkpt>
<trkpt lat="30.6297900" lon="34.8190600">
<ele>788.090027</ele>
<time>2024-01-03T12:42:17.635Z</time>
</trkpt>
<trkpt lat="30.6297500" lon="34.8189600">
<ele>788.070007</ele>
<time>2024-01-03T12:42:17.635Z</time>
</trkpt>
<trkpt lat="30.6297200" lon="34.8188400">
<ele>788.010010</ele>
<time>2024-01-03T12:42:17.635Z</time>
</trkpt>
<trkpt lat="30.6296900" lon="34.8186900">
<ele>788.200012</ele>
<time>2024-01-03T12:42:17.635Z</time>
</trkpt>
<trkpt lat="30.6294700" lon="34.8188100">
<ele>789.169983</ele>
<time>2024-01-03T12:42:17.635Z</time>
</trkpt>
<trkpt lat="30.6293700" lon="34.8187800">
<ele>790.150024</ele>
<time>2024-01-03T12:42:17.635Z</time>
</trkpt>
<trkpt lat="30.6292800" lon="34.8187200">
<ele>790.899963</ele>
<time>2024-01-03T12:42:17.635Z</time>
</trkpt>
<trkpt lat="30.6291900" lon="34.8187400">
<ele>791.729980</ele>
<time>2024-01-03T12:42:17.635Z</time>
</trkpt>
<trkpt lat="30.6290900" lon="34.8187800">
<ele>792.710022</ele>
<time>2024-01-03T12:42:17.635Z</time>
</trkpt>
<trkpt lat="30.6289900" lon="34.8187400">
<ele>793.250061</ele>
<time>2024-01-03T12:42:17.635Z</time>
</trkpt>
<trkpt lat="30.6288700" lon="34.8187200">
<ele>794.170044</ele>
<time>2024-01-03T12:42:17.635Z</time>
</trkpt>
<trkpt lat="30.6287800" lon="34.8187600">
<ele>795.229980</ele>
<time>2024-01-03T12:42:17.635Z</time>
</trkpt>
<trkpt lat="30.6288100" lon="34.8188600">
<ele>795.299988</ele>
<time>2024-01-03T12:42:17.635Z</time>
</trkpt>
<trkpt lat="30.6288800" lon="34.8189500">
<ele>793.940002</ele>
<time>2024-01-03T12:42:17.635Z</time>
</trkpt>
<trkpt lat="30.6289500" lon="34.8190200">
<ele>793.100037</ele>
<time>2024-01-03T12:42:17.635Z</time>
</trkpt>
<trkpt lat="30.6290500" lon="34.8191000">
<ele>791.779968</ele>
<time>2024-01-03T12:42:17.635Z</time>
</trkpt>
<trkpt lat="30.6291200" lon="34.8191700">
<ele>790.450012</ele>
<time>2024-01-03T12:42:17.635Z</time>
</trkpt>
<trkpt lat="30.6291900" lon="34.8192500">
<ele>788.359985</ele>
<time>2024-01-03T12:42:17.635Z</time>
</trkpt>
<trkpt lat="30.6292500" lon="34.8193500">
<ele>786.299988</ele>
<time>2024-01-03T12:42:17.635Z</time>
</trkpt>
<trkpt lat="30.6293000" lon="34.8194500">
<ele>784.449951</ele>
<time>2024-01-03T12:42:17.635Z</time>
</trkpt>
<trkpt lat="30.6293400" lon="34.8195700">
<ele>782.849976</ele>
<time>2024-01-03T12:42:17.635Z</time>
</trkpt>
<trkpt lat="30.6293300" lon="34.8196700">
<ele>781.640015</ele>
<time>2024-01-03T12:42:17.635Z</time>
</trkpt>
<trkpt lat="30.6293400" lon="34.8197900">
<ele>780.600037</ele>
<time>2024-01-03T12:42:17.635Z</time>
</trkpt>
<trkpt lat="30.6293200" lon="34.8199000">
<ele>780.010010</ele>
<time>2024-01-03T12:42:17.635Z</time>
</trkpt>
<trkpt lat="30.6293300" lon="34.8200600">
<ele>778.799988</ele>
<time>2024-01-03T12:42:17.635Z</time>
</trkpt>
<trkpt lat="30.6293500" lon="34.8202100">
<ele>777.309998</ele>
<time>2024-01-03T12:42:17.635Z</time>
</trkpt>
<trkpt lat="30.6293500" lon="34.8203600">
<ele>775.469971</ele>
<time>2024-01-03T12:42:17.635Z</time>
</trkpt>
<trkpt lat="30.6293400" lon="34.8205100">
<ele>773.169983</ele>
<time>2024-01-03T12:42:17.635Z</time>
</trkpt>
<trkpt lat="30.6293200" lon="34.8206400">
<ele>769.700012</ele>
<time>2024-01-03T12:42:17.635Z</time>
</trkpt>
<trkpt lat="30.6292400" lon="34.8207200">
<ele>765.330017</ele>
<time>2024-01-03T12:42:17.635Z</time>
</trkpt>
<trkpt lat="30.6291300" lon="34.8207000">
<ele>763.809998</ele>
<time>2024-01-03T12:42:17.635Z</time>
</trkpt>
<trkpt lat="30.6290300" lon="34.8206500">
<ele>764.770020</ele>
<time>2024-01-03T12:42:17.635Z</time>
</trkpt>
<trkpt lat="30.6289300" lon="34.8206000">
<ele>766.130005</ele>
<time>2024-01-03T12:42:17.635Z</time>
</trkpt>
<trkpt lat="30.6288500" lon="34.8205500">
<ele>768.570007</ele>
<time>2024-01-03T12:42:17.635Z</time>
</trkpt>
<trkpt lat="30.6287300" lon="34.8205200">
<ele>771.080017</ele>
<time>2024-01-03T12:42:17.635Z</time>
</trkpt>
<trkpt lat="30.6286300" lon="34.8204800">
<ele>774.179993</ele>
<time>2024-01-03T12:42:17.635Z</time>
</trkpt>
<trkpt lat="30.6285600" lon="34.8203900">
<ele>778.690002</ele>
<time>2024-01-03T12:42:17.635Z</time>
</trkpt>
<trkpt lat="30.6284800" lon="34.8203100">
<ele>782.510010</ele>
<time>2024-01-03T12:42:17.635Z</time>
</trkpt>
<trkpt lat="30.6283900" lon="34.8202800">
<ele>783.459961</ele>
<time>2024-01-03T12:42:17.635Z</time>
</trkpt>
<trkpt lat="30.6283000" lon="34.8202000">
<ele>784.900024</ele>
<time>2024-01-03T12:42:17.635Z</time>
</trkpt>
<trkpt lat="30.6282300" lon="34.8201200">
<ele>785.610046</ele>
<time>2024-01-03T12:42:17.635Z</time>
</trkpt>
<trkpt lat="30.6281600" lon="34.8200000">
<ele>788.759949</ele>
<time>2024-01-03T12:42:17.635Z</time>
</trkpt>
<trkpt lat="30.6280600" lon="34.8199200">
<ele>787.720032</ele>
<time>2024-01-03T12:42:17.635Z</time>
</trkpt>
<trkpt lat="30.6279600" lon="34.8198800">
<ele>783.979980</ele>
<time>2024-01-03T12:42:17.635Z</time>
</trkpt>
<trkpt lat="30.6278600" lon="34.8198800">
<ele>778.839966</ele>
<time>2024-01-03T12:42:17.635Z</time>
</trkpt>
<trkpt lat="30.6277700" lon="34.8199000">
<ele>773.320007</ele>
<time>2024-01-03T12:42:17.635Z</time>
</trkpt>
<trkpt lat="30.6276700" lon="34.8198700">
<ele>770.200012</ele>
<time>2024-01-03T12:42:17.635Z</time>
</trkpt>
<trkpt lat="30.6276700" lon="34.8198700">
<ele>770.200012</ele>
<time>2024-01-03T12:42:17.635Z</time>
</trkpt>
<trkpt lat="30.6275700" lon="34.8198300">
<ele>767.860046</ele>
<time>2024-01-03T12:42:17.635Z</time>
</trkpt>
<trkpt lat="30.6275000" lon="34.8197500">
<ele>769.400024</ele>
<time>2024-01-03T12:42:17.635Z</time>
</trkpt>
<trkpt lat="30.6274300" lon="34.8196500">
<ele>774.179993</ele>
<time>2024-01-03T12:42:17.635Z</time>
</trkpt>
<trkpt lat="30.6273300" lon="34.8195700">
<ele>777.919983</ele>
<time>2024-01-03T12:42:17.635Z</time>
</trkpt>
<trkpt lat="30.6272500" lon="34.8194700">
<ele>784.309998</ele>
<time>2024-01-03T12:42:17.635Z</time>
</trkpt>
<trkpt lat="30.6271600" lon="34.8193700">
<ele>785.820007</ele>
<time>2024-01-03T12:42:17.635Z</time>
</trkpt>
<trkpt lat="30.6270400" lon="34.8193400">
<ele>781.830017</ele>
<time>2024-01-03T12:42:17.635Z</time>
</trkpt>
<trkpt lat="30.6269300" lon="34.8193100">
<ele>779.660034</ele>
<time>2024-01-03T12:42:17.635Z</time>
</trkpt>
<trkpt lat="30.6268600" lon="34.8192500">
<ele>782.039978</ele>
<time>2024-01-03T12:42:17.635Z</time>
</trkpt>
<trkpt lat="30.6267900" lon="34.8191400">
<ele>787.859985</ele>
<time>2024-01-03T12:42:17.635Z</time>
</trkpt>
<trkpt lat="30.6267000" lon="34.8190300">
<ele>786.919983</ele>
<time>2024-01-03T12:42:17.635Z</time>
</trkpt>
<trkpt lat="30.6266200" lon="34.8189200">
<ele>787.139954</ele>
<time>2024-01-03T12:42:17.635Z</time>
</trkpt>
<trkpt lat="30.6265200" lon="34.8188100">
<ele>785.799988</ele>
<time>2024-01-03T12:42:17.635Z</time>
</trkpt>
<trkpt lat="30.6264500" lon="34.8187300">
<ele>785.209961</ele>
<time>2024-01-03T12:42:17.635Z</time>
</trkpt>
<trkpt lat="30.6263800" lon="34.8186700">
<ele>784.339966</ele>
<time>2024-01-03T12:42:17.635Z</time>
</trkpt>
<trkpt lat="30.6263000" lon="34.8186200">
<ele>783.990051</ele>
<time>2024-01-03T12:42:17.635Z</time>
</trkpt>
<trkpt lat="30.6262200" lon="34.8185700">
<ele>783.960022</ele>
<time>2024-01-03T12:42:17.635Z</time>
</trkpt>
<trkpt lat="30.6261000" lon="34.8185100">
<ele>782.409973</ele>
<time>2024-01-03T12:42:17.635Z</time>
</trkpt>
<trkpt lat="30.6259900" lon="34.8184500">
<ele>781.789978</ele>
<time>2024-01-03T12:42:17.635Z</time>
</trkpt>
<trkpt lat="30.6259000" lon="34.8183500">
<ele>781.789978</ele>
<time>2024-01-03T12:42:17.635Z</time>
</trkpt>
<trkpt lat="30.6257900" lon="34.8182800">
<ele>781.800049</ele>
<time>2024-01-03T12:42:17.635Z</time>
</trkpt>
<trkpt lat="30.6256900" lon="34.8181900">
<ele>785.190002</ele>
<time>2024-01-03T12:42:17.635Z</time>
</trkpt>
<trkpt lat="30.6256100" lon="34.8180900">
<ele>790.109985</ele>
<time>2024-01-03T12:42:17.635Z</time>
</trkpt>
<trkpt lat="30.6255300" lon="34.8180200">
<ele>792.039978</ele>
<time>2024-01-03T12:42:17.635Z</time>
</trkpt>
<trkpt lat="30.6255000" lon="34.8178800">
<ele>793.399963</ele>
<time>2024-01-03T12:42:17.635Z</time>
</trkpt>
<trkpt lat="30.6254800" lon="34.8177700">
<ele>794.480042</ele>
<time>2024-01-03T12:42:17.635Z</time>
</trkpt>
<trkpt lat="30.6254300" lon="34.8176700">
<ele>795.149963</ele>
<time>2024-01-03T12:42:17.635Z</time>
</trkpt>
<trkpt lat="30.6253100" lon="34.8175800">
<ele>795.349976</ele>
<time>2024-01-03T12:42:17.635Z</time>
</trkpt>
<trkpt lat="30.6252100" lon="34.8175000">
<ele>795.290039</ele>
<time>2024-01-03T12:42:17.635Z</time>
</trkpt>
<trkpt lat="30.6251400" lon="34.8174300">
<ele>794.909973</ele>
<time>2024-01-03T12:42:17.635Z</time>
</trkpt>
<trkpt lat="30.6250500" lon="34.8173200">
<ele>795.030029</ele>
<time>2024-01-03T12:42:17.635Z</time>
</trkpt>
<trkpt lat="30.6249900" lon="34.8172000">
<ele>796.419983</ele>
<time>2024-01-03T12:42:17.635Z</time>
</trkpt>
<trkpt lat="30.6249200" lon="34.8170600">
<ele>799.840027</ele>
<time>2024-01-03T12:42:17.635Z</time>
</trkpt>
<trkpt lat="30.6248600" lon="34.8169800">
<ele>802.390015</ele>
<time>2024-01-03T12:42:17.635Z</time>
</trkpt>
<trkpt lat="30.6247900" lon="34.8169200">
<ele>803.130005</ele>
<time>2024-01-03T12:42:17.635Z</time>
</trkpt>
<trkpt lat="30.6246600" lon="34.8168900">
<ele>796.859985</ele>
<time>2024-01-03T12:42:17.635Z</time>
</trkpt>
<trkpt lat="30.6245700" lon="34.8168700">
<ele>790.210022</ele>
<time>2024-01-03T12:42:17.635Z</time>
</trkpt>
<trkpt lat="30.6244500" lon="34.8168100">
<ele>784.120056</ele>
<time>2024-01-03T12:42:17.635Z</time>
</trkpt>
<trkpt lat="30.6243400" lon="34.8167400">
<ele>783.589966</ele>
<time>2024-01-03T12:42:17.635Z</time>
</trkpt>
<trkpt lat="30.6242600" lon="34.8167000">
<ele>781.969971</ele>
<time>2024-01-03T12:42:17.635Z</time>
</trkpt>
<trkpt lat="30.6241800" lon="34.8166500">
<ele>780.169983</ele>
<time>2024-01-03T12:42:17.635Z</time>
</trkpt>
<trkpt lat="30.6241000" lon="34.8165800">
<ele>781.080017</ele>
<time>2024-01-03T12:42:17.635Z</time>
</trkpt>
<trkpt lat="30.6240100" lon="34.8165200">
<ele>781.390015</ele>
<time>2024-01-03T12:42:17.635Z</time>
</trkpt>
<trkpt lat="30.6238800" lon="34.8164700">
<ele>780.509949</ele>
<time>2024-01-03T12:42:17.635Z</time>
</trkpt>
<trkpt lat="30.6237800" lon="34.8164300">
<ele>783.510010</ele>
<time>2024-01-03T12:42:17.635Z</time>
</trkpt>
<trkpt lat="30.6236900" lon="34.8163600">
<ele>787.260010</ele>
<time>2024-01-03T12:42:17.635Z</time>
</trkpt>
<trkpt lat="30.6236000" lon="34.8162900">
<ele>790.169983</ele>
<time>2024-01-03T12:42:17.635Z</time>
</trkpt>
<trkpt lat="30.6235100" lon="34.8162600">
<ele>791.010010</ele>
<time>2024-01-03T12:42:17.635Z</time>
</trkpt>
<trkpt lat="30.6234300" lon="34.8161700">
<ele>792.489990</ele>
<time>2024-01-03T12:42:17.635Z</time>
</trkpt>
<trkpt lat="30.6233700" lon="34.8160600">
<ele>794.079956</ele>
<time>2024-01-03T12:42:17.635Z</time>
</trkpt>
<trkpt lat="30.6233500" lon="34.8160000">
<ele>795.080017</ele>
<time>2024-01-03T12:42:17.635Z</time>
</trkpt>
<trkpt lat="30.6233500" lon="34.8160000">
<ele>795.080017</ele>
<time>2024-01-03T12:42:17.635Z</time>
</trkpt>
<trkpt lat="30.6233300" lon="34.8159600">
<ele>795.660034</ele>
<time>2024-01-03T12:42:17.635Z</time>
</trkpt>
<trkpt lat="30.6232700" lon="34.8158500">
<ele>796.760010</ele>
<time>2024-01-03T12:42:17.635Z</time>
</trkpt>
<trkpt lat="30.6231900" lon="34.8157300">
<ele>799.880005</ele>
<time>2024-01-03T12:42:17.635Z</time>
</trkpt>
<trkpt lat="30.6230600" lon="34.8157000">
<ele>800.729980</ele>
<time>2024-01-03T12:42:17.635Z</time>
</trkpt>
<trkpt lat="30.6229400" lon="34.8156500">
<ele>800.619995</ele>
<time>2024-01-03T12:42:17.635Z</time>
</trkpt>
<trkpt lat="30.6228300" lon="34.8156200">
<ele>799.200012</ele>
<time>2024-01-03T12:42:17.635Z</time>
</trkpt>
<trkpt lat="30.6227200" lon="34.8155800">
<ele>797.909973</ele>
<time>2024-01-03T12:42:17.635Z</time>
</trkpt>
<trkpt lat="30.6226100" lon="34.8155500">
<ele>796.620056</ele>
<time>2024-01-03T12:42:17.635Z</time>
</trkpt>
<trkpt lat="30.6224900" lon="34.8155200">
<ele>795.409973</ele>
<time>2024-01-03T12:42:17.635Z</time>
</trkpt>
<trkpt lat="30.6223800" lon="34.8154800">
<ele>795.500000</ele>
<time>2024-01-03T12:42:17.635Z</time>
</trkpt>
<trkpt lat="30.6223000" lon="34.8154400">
<ele>795.630005</ele>
<time>2024-01-03T12:42:17.635Z</time>
</trkpt>
<trkpt lat="30.6222200" lon="34.8153800">
<ele>795.970032</ele>
<time>2024-01-03T12:42:17.635Z</time>
</trkpt>
<trkpt lat="30.6221300" lon="34.8153100">
<ele>795.149963</ele>
<time>2024-01-03T12:42:17.635Z</time>
</trkpt>
<trkpt lat="30.6220600" lon="34.8152800">
<ele>794.229980</ele>
<time>2024-01-03T12:42:17.635Z</time>
</trkpt>
<trkpt lat="30.6219700" lon="34.8152400">
<ele>793.630005</ele>
<time>2024-01-03T12:42:17.635Z</time>
</trkpt>
<trkpt lat="30.6218700" lon="34.8152100">
<ele>791.060059</ele>
<time>2024-01-03T12:42:17.635Z</time>
</trkpt>
<trkpt lat="30.6217900" lon="34.8151500">
<ele>790.720032</ele>
<time>2024-01-03T12:42:17.635Z</time>
</trkpt>
<trkpt lat="30.6217100" lon="34.8150700">
<ele>791.759949</ele>
<time>2024-01-03T12:42:17.635Z</time>
</trkpt>
<trkpt lat="30.6216100" lon="34.8150000">
<ele>792.979980</ele>
<time>2024-01-03T12:42:17.635Z</time>
</trkpt>
<trkpt lat="30.6215400" lon="34.8149400">
<ele>795.219971</ele>
<time>2024-01-03T12:42:17.635Z</time>
</trkpt>
<trkpt lat="30.6214500" lon="34.8148900">
<ele>797.410034</ele>
<time>2024-01-03T12:42:17.635Z</time>
</trkpt>
<trkpt lat="30.6214000" lon="34.8147700">
<ele>805.529968</ele>
<time>2024-01-03T12:42:17.635Z</time>
</trkpt>
<trkpt lat="30.6213700" lon="34.8146700">
<ele>808.290039</ele>
<time>2024-01-03T12:42:17.635Z</time>
</trkpt>
<trkpt lat="30.6212900" lon="34.8146000">
<ele>806.449951</ele>
<time>2024-01-03T12:42:17.635Z</time>
</trkpt>
<trkpt lat="30.6211900" lon="34.8145200">
<ele>805.479980</ele>
<time>2024-01-03T12:42:17.635Z</time>
</trkpt>
<trkpt lat="30.6211000" lon="34.8144800">
<ele>804.750000</ele>
<time>2024-01-03T12:42:17.635Z</time>
</trkpt>
<trkpt lat="30.6210100" lon="34.8144600">
<ele>801.099976</ele>
<time>2024-01-03T12:42:17.635Z</time>
</trkpt>
<trkpt lat="30.6208800" lon="34.8144500">
<ele>795.200012</ele>
<time>2024-01-03T12:42:17.635Z</time>
</trkpt>
<trkpt lat="30.6208000" lon="34.8144100">
<ele>794.770020</ele>
<time>2024-01-03T12:42:17.635Z</time>
</trkpt>
<trkpt lat="30.6206800" lon="34.8143300">
<ele>797.339966</ele>
<time>2024-01-03T12:42:17.635Z</time>
</trkpt>
<trkpt lat="30.6206000" lon="34.8142600">
<ele>797.250000</ele>
<time>2024-01-03T12:42:17.635Z</time>
</trkpt>
<trkpt lat="30.6205200" lon="34.8141700">
<ele>795.869995</ele>
<time>2024-01-03T12:42:17.635Z</time>
</trkpt>
<trkpt lat="30.6204300" lon="34.8140800">
<ele>796.230042</ele>
<time>2024-01-03T12:42:17.635Z</time>
</trkpt>
<trkpt lat="30.6203500" lon="34.8140100">
<ele>795.849976</ele>
<time>2024-01-03T12:42:17.635Z</time>
</trkpt>
<trkpt lat="30.6202700" lon="34.8139300">
<ele>794.870056</ele>
<time>2024-01-03T12:42:17.635Z</time>
</trkpt>
<trkpt lat="30.6202200" lon="34.8138400">
<ele>797.679993</ele>
<time>2024-01-03T12:42:17.635Z</time>
</trkpt>
<trkpt lat="30.6201600" lon="34.8137500">
<ele>802.730042</ele>
<time>2024-01-03T12:42:17.635Z</time>
</trkpt>
<trkpt lat="30.6200800" lon="34.8136800">
<ele>806.040039</ele>
<time>2024-01-03T12:42:17.635Z</time>
</trkpt>
<trkpt lat="30.6199800" lon="34.8136300">
<ele>807.880005</ele>
<time>2024-01-03T12:42:17.635Z</time>
</trkpt>
<trkpt lat="30.6199100" lon="34.8136400">
<ele>806.919983</ele>
<time>2024-01-03T12:42:17.635Z</time>
</trkpt>
<trkpt lat="30.6198300" lon="34.8135800">
<ele>809.789978</ele>
<time>2024-01-03T12:42:17.635Z</time>
</trkpt>
<trkpt lat="30.6198900" lon="34.8132000">
<ele>811.570007</ele>
<time>2024-01-03T12:42:17.635Z</time>
</trkpt>
<trkpt lat="30.6198700" lon="34.8129900">
<ele>812.390015</ele>
<time>2024-01-03T12:42:17.635Z</time>
</trkpt>
<trkpt lat="30.6198900" lon="34.8126700">
<ele>814.299988</ele>
<time>2024-01-03T12:42:17.635Z</time>
</trkpt>
<trkpt lat="30.6198800" lon="34.8123400">
<ele>816.660034</ele>
<time>2024-01-03T12:42:17.635Z</time>
</trkpt>
<trkpt lat="30.6199200" lon="34.8121200">
<ele>819.619995</ele>
<time>2024-01-03T12:42:17.635Z</time>
</trkpt>
<trkpt lat="30.6199100" lon="34.8119700">
<ele>819.669983</ele>
<time>2024-01-03T12:42:17.635Z</time>
</trkpt>
<trkpt lat="30.6198600" lon="34.8118500">
<ele>819.159973</ele>
<time>2024-01-03T12:42:17.635Z</time>
</trkpt>
<trkpt lat="30.6197700" lon="34.8117500">
<ele>818.520020</ele>
<time>2024-01-03T12:42:17.635Z</time>
</trkpt>
<trkpt lat="30.6194400" lon="34.8116000">
<ele>813.830017</ele>
<time>2024-01-03T12:42:17.635Z</time>
</trkpt>
<trkpt lat="30.6192000" lon="34.8114200">
<ele>812.359985</ele>
<time>2024-01-03T12:42:17.635Z</time>
</trkpt>
<trkpt lat="30.6189800" lon="34.8110400">
<ele>817.180054</ele>
<time>2024-01-03T12:42:17.635Z</time>
</trkpt>
<trkpt lat="30.6189000" lon="34.8109600">
<ele>817.880005</ele>
<time>2024-01-03T12:42:17.635Z</time>
</trkpt>
<trkpt lat="30.6183900" lon="34.8106500">
<ele>808.749939</ele>
<time>2024-01-03T12:42:17.635Z</time>
</trkpt>
<trkpt lat="30.6181600" lon="34.8103900">
<ele>808.039978</ele>
<time>2024-01-03T12:42:17.635Z</time>
</trkpt>
<trkpt lat="30.6179900" lon="34.8101200">
<ele>816.110046</ele>
<time>2024-01-03T12:42:17.635Z</time>
</trkpt>
<trkpt lat="30.6178500" lon="34.8100300">
<ele>815.599976</ele>
<time>2024-01-03T12:42:17.635Z</time>
</trkpt>
<trkpt lat="30.6176500" lon="34.8099500">
<ele>808.080017</ele>
<time>2024-01-03T12:42:17.635Z</time>
</trkpt>
<trkpt lat="30.6171900" lon="34.8094700">
<ele>807.950012</ele>
<time>2024-01-03T12:42:17.635Z</time>
</trkpt>
<trkpt lat="30.6171100" lon="34.8093200">
<ele>807.610046</ele>
<time>2024-01-03T12:42:17.635Z</time>
</trkpt>
<trkpt lat="30.6170000" lon="34.8090000">
<ele>811.879944</ele>
<time>2024-01-03T12:42:17.635Z</time>
</trkpt>
<trkpt lat="30.6169900" lon="34.8088900">
<ele>813.959961</ele>
<time>2024-01-03T12:42:17.635Z</time>
</trkpt>
<trkpt lat="30.6170200" lon="34.8083900">
<ele>815.769958</ele>
<time>2024-01-03T12:42:17.635Z</time>
</trkpt>
<trkpt lat="30.6170200" lon="34.8082900">
<ele>814.619995</ele>
<time>2024-01-03T12:42:17.635Z</time>
</trkpt>
<trkpt lat="30.6169900" lon="34.8082000">
<ele>813.000000</ele>
<time>2024-01-03T12:42:17.635Z</time>
</trkpt>
<trkpt lat="30.6166300" lon="34.8077800">
<ele>813.389954</ele>
<time>2024-01-03T12:42:17.635Z</time>
</trkpt>
<trkpt lat="30.6165400" lon="34.8076500">
<ele>816.460022</ele>
<time>2024-01-03T12:42:17.635Z</time>
</trkpt>
<trkpt lat="30.6164900" lon="34.8076000">
<ele>817.699951</ele>
<time>2024-01-03T12:42:17.635Z</time>
</trkpt>
<trkpt lat="30.6163300" lon="34.8076000">
<ele>818.500000</ele>
<time>2024-01-03T12:42:17.635Z</time>
</trkpt>
<trkpt lat="30.6162800" lon="34.8075800">
<ele>818.679993</ele>
<time>2024-01-03T12:42:17.635Z</time>
</trkpt>
<trkpt lat="30.6162800" lon="34.8075800">
<ele>818.679993</ele>
<time>2024-01-03T12:42:17.635Z</time>
</trkpt>
<trkpt lat="30.6162800" lon="34.8075800">
<ele>818.679993</ele>
<time>2024-01-03T12:42:17.635Z</time>
</trkpt>
<trkpt lat="30.6161600" lon="34.8075400">
<ele>818.839966</ele>
<time>2024-01-03T12:42:17.635Z</time>
</trkpt>
<trkpt lat="30.6160800" lon="34.8075500">
<ele>818.619995</ele>
<time>2024-01-03T12:42:17.635Z</time>
</trkpt>
<trkpt lat="30.6160700" lon="34.8075600">
<ele>818.540039</ele>
<time>2024-01-03T12:42:17.635Z</time>
</trkpt>
<trkpt lat="30.6161100" lon="34.8076700">
<ele>817.770020</ele>
<time>2024-01-03T12:42:17.635Z</time>
</trkpt>
<trkpt lat="30.6161500" lon="34.8077500">
<ele>817.089966</ele>
<time>2024-01-03T12:42:17.635Z</time>
</trkpt>
<trkpt lat="30.6161900" lon="34.8079900">
<ele>813.880005</ele>
<time>2024-01-03T12:42:17.635Z</time>
</trkpt>
<trkpt lat="30.6162000" lon="34.8080900">
<ele>812.380005</ele>
<time>2024-01-03T12:42:17.635Z</time>
</trkpt>
<trkpt lat="30.6162400" lon="34.8081900">
<ele>810.580017</ele>
<time>2024-01-03T12:42:17.635Z</time>
</trkpt>
<trkpt lat="30.6163200" lon="34.8083900">
<ele>806.520020</ele>
<time>2024-01-03T12:42:17.635Z</time>
</trkpt>
<trkpt lat="30.6163100" lon="34.8085800">
<ele>801.530029</ele>
<time>2024-01-03T12:42:17.635Z</time>
</trkpt>
<trkpt lat="30.6163500" lon="34.8087100">
<ele>796.639954</ele>
<time>2024-01-03T12:42:17.635Z</time>
</trkpt>
<trkpt lat="30.6163100" lon="34.8085800">
<ele>801.530029</ele>
<time>2024-01-03T12:42:17.635Z</time>
</trkpt>
<trkpt lat="30.6163200" lon="34.8083900">
<ele>806.520020</ele>
<time>2024-01-03T12:42:17.635Z</time>
</trkpt>
<trkpt lat="30.6162400" lon="34.8081900">
<ele>810.580017</ele>
<time>2024-01-03T12:42:17.635Z</time>
</trkpt>
<trkpt lat="30.6162000" lon="34.8080900">
<ele>812.380005</ele>
<time>2024-01-03T12:42:17.635Z</time>
</trkpt>
<trkpt lat="30.6161900" lon="34.8079900">
<ele>813.880005</ele>
<time>2024-01-03T12:42:17.635Z</time>
</trkpt>
<trkpt lat="30.6161500" lon="34.8077500">
<ele>817.089966</ele>
<time>2024-01-03T12:42:17.635Z</time>
</trkpt>
<trkpt lat="30.6161100" lon="34.8076700">
<ele>817.770020</ele>
<time>2024-01-03T12:42:17.635Z</time>
</trkpt>
<trkpt lat="30.6160700" lon="34.8075600">
<ele>818.540039</ele>
<time>2024-01-03T12:42:17.635Z</time>
</trkpt>
<trkpt lat="30.6160300" lon="34.8075200">
<ele>818.830017</ele>
<time>2024-01-03T12:42:17.635Z</time>
</trkpt>
<trkpt lat="30.6160300" lon="34.8075200">
<ele>818.830017</ele>
<time>2024-01-03T12:42:17.635Z</time>
</trkpt>
<trkpt lat="30.6160300" lon="34.8075200">
<ele>818.830017</ele>
<time>2024-01-03T12:42:17.635Z</time>
</trkpt>
<trkpt lat="30.6160300" lon="34.8075200">
<ele>818.830017</ele>
<time>2024-01-03T12:42:17.635Z</time>
</trkpt>
<trkpt lat="30.6160700" lon="34.8075600">
<ele>818.540039</ele>
<time>2024-01-03T12:42:17.635Z</time>
</trkpt>
<trkpt lat="30.6159800" lon="34.8076100">
<ele>818.020020</ele>
<time>2024-01-03T12:42:17.635Z</time>
</trkpt>
<trkpt lat="30.6158700" lon="34.8076500">
<ele>817.450012</ele>
<time>2024-01-03T12:42:17.635Z</time>
</trkpt>
<trkpt lat="30.6156800" lon="34.8076800">
<ele>816.150024</ele>
<time>2024-01-03T12:42:17.635Z</time>
</trkpt>
<trkpt lat="30.6153000" lon="34.8077900">
<ele>814.660034</ele>
<time>2024-01-03T12:42:17.635Z</time>
</trkpt>
<trkpt lat="30.6152600" lon="34.8078500">
<ele>813.830017</ele>
<time>2024-01-03T12:42:17.635Z</time>
</trkpt>
<trkpt lat="30.6152600" lon="34.8079800">
<ele>811.140015</ele>
<time>2024-01-03T12:42:17.635Z</time>
</trkpt>
<trkpt lat="30.6152400" lon="34.8080400">
<ele>810.530029</ele>
<time>2024-01-03T12:42:17.635Z</time>
</trkpt>
<trkpt lat="30.6151900" lon="34.8080900">
<ele>810.110046</ele>
<time>2024-01-03T12:42:17.635Z</time>
</trkpt>
<trkpt lat="30.6150700" lon="34.8081900">
<ele>808.960022</ele>
<time>2024-01-03T12:42:17.635Z</time>
</trkpt>
<trkpt lat="30.6149900" lon="34.8082300">
<ele>809.520020</ele>
<time>2024-01-03T12:42:17.635Z</time>
</trkpt>
<trkpt lat="30.6149000" lon="34.8082400">
<ele>812.049988</ele>
<time>2024-01-03T12:42:17.635Z</time>
</trkpt>
<trkpt lat="30.6148000" lon="34.8082800">
<ele>814.829956</ele>
<time>2024-01-03T12:42:17.635Z</time>
</trkpt>
<trkpt lat="30.6147200" lon="34.8083400">
<ele>817.660034</ele>
<time>2024-01-03T12:42:17.635Z</time>
</trkpt>
<trkpt lat="30.6146100" lon="34.8083700">
<ele>814.829956</ele>
<time>2024-01-03T12:42:17.635Z</time>
</trkpt>
<trkpt lat="30.6145100" lon="34.8083400">
<ele>814.690002</ele>
<time>2024-01-03T12:42:17.635Z</time>
</trkpt>
<trkpt lat="30.6144500" lon="34.8083000">
<ele>814.199951</ele>
<time>2024-01-03T12:42:17.635Z</time>
</trkpt>
<trkpt lat="30.6142200" lon="34.8080100">
<ele>818.190002</ele>
<time>2024-01-03T12:42:17.635Z</time>
</trkpt>
<trkpt lat="30.6142200" lon="34.8080100">
<ele>818.190002</ele>
<time>2024-01-03T12:42:17.635Z</time>
</trkpt>
<trkpt lat="30.6142200" lon="34.8080100">
<ele>818.190002</ele>
<time>2024-01-03T12:42:17.635Z</time>
</trkpt>
<trkpt lat="30.6141900" lon="34.8079800">
<ele>818.479980</ele>
<time>2024-01-03T12:42:17.635Z</time>
</trkpt>
<trkpt lat="30.6141500" lon="34.8078900">
<ele>817.919983</ele>
<time>2024-01-03T12:42:17.635Z</time>
</trkpt>
<trkpt lat="30.6140800" lon="34.8076600">
<ele>818.379944</ele>
<time>2024-01-03T12:42:17.635Z</time>
</trkpt>
<trkpt lat="30.6140700" lon="34.8075900">
<ele>818.859985</ele>
<time>2024-01-03T12:42:17.635Z</time>
</trkpt>
<trkpt lat="30.6141100" lon="34.8075300">
<ele>819.900024</ele>
<time>2024-01-03T12:42:17.635Z</time>
</trkpt>
<trkpt lat="30.6142100" lon="34.8074800">
<ele>820.890015</ele>
<time>2024-01-03T12:42:17.635Z</time>
</trkpt>
<trkpt lat="30.6142800" lon="34.8074100">
<ele>821.020020</ele>
<time>2024-01-03T12:42:17.635Z</time>
</trkpt>
<trkpt lat="30.6143400" lon="34.8072200">
<ele>822.119995</ele>
<time>2024-01-03T12:42:17.635Z</time>
</trkpt>
<trkpt lat="30.6143800" lon="34.8070000">
<ele>821.509949</ele>
<time>2024-01-03T12:42:17.635Z</time>
</trkpt>
<trkpt lat="30.6144900" lon="34.8066300">
<ele>821.979980</ele>
<time>2024-01-03T12:42:17.635Z</time>
</trkpt>
<trkpt lat="30.6145600" lon="34.8064800">
<ele>823.070007</ele>
<time>2024-01-03T12:42:17.635Z</time>
</trkpt>
<trkpt lat="30.6146000" lon="34.8062600">
<ele>824.670044</ele>
<time>2024-01-03T12:42:17.635Z</time>
</trkpt>
<trkpt lat="30.6146400" lon="34.8061600">
<ele>825.070007</ele>
<time>2024-01-03T12:42:17.635Z</time>
</trkpt>
<trkpt lat="30.6147600" lon="34.8060700">
<ele>826.479980</ele>
<time>2024-01-03T12:42:17.635Z</time>
</trkpt>
<trkpt lat="30.6150400" lon="34.8058400">
<ele>833.840027</ele>
<time>2024-01-03T12:42:17.635Z</time>
</trkpt>
<trkpt lat="30.6147000" lon="34.8057300">
<ele>829.559998</ele>
<time>2024-01-03T12:42:17.635Z</time>
</trkpt>
<trkpt lat="30.6143300" lon="34.8055200">
<ele>830.710022</ele>
<time>2024-01-03T12:42:17.635Z</time>
</trkpt>
<trkpt lat="30.6138200" lon="34.8053700">
<ele>819.590027</ele>
<time>2024-01-03T12:42:17.635Z</time>
</trkpt>
<trkpt lat="30.6131400" lon="34.8053300">
<ele>819.740051</ele>
<time>2024-01-03T12:42:17.635Z</time>
</trkpt>
<trkpt lat="30.6130000" lon="34.8052200">
<ele>820.970032</ele>
<time>2024-01-03T12:42:17.635Z</time>
</trkpt>
<trkpt lat="30.6130000" lon="34.8052200">
<ele>820.970032</ele>
<time>2024-01-03T12:42:17.635Z</time>
</trkpt>
<trkpt lat="30.6130000" lon="34.8052300">
<ele>820.940002</ele>
<time>2024-01-03T12:42:17.635Z</time>
</trkpt>
<trkpt lat="30.6128900" lon="34.8051500">
<ele>822.570007</ele>
<time>2024-01-03T12:42:17.635Z</time>
</trkpt>
<trkpt lat="30.6125300" lon="34.8051900">
<ele>822.220032</ele>
<time>2024-01-03T12:42:17.635Z</time>
</trkpt>
<trkpt lat="30.6124000" lon="34.8051700">
<ele>823.019958</ele>
<time>2024-01-03T12:42:17.635Z</time>
</trkpt>
<trkpt lat="30.6122800" lon="34.8051300">
<ele>823.900024</ele>
<time>2024-01-03T12:42:17.635Z</time>
</trkpt>
<trkpt lat="30.6122400" lon="34.8049700">
<ele>822.850037</ele>
<time>2024-01-03T12:42:17.635Z</time>
</trkpt>
<trkpt lat="30.6122100" lon="34.8048600">
<ele>822.579956</ele>
<time>2024-01-03T12:42:17.635Z</time>
</trkpt>
<trkpt lat="30.6121900" lon="34.8047900">
<ele>822.480042</ele>
<time>2024-01-03T12:42:17.635Z</time>
</trkpt>
<trkpt lat="30.6121700" lon="34.8047200">
<ele>822.390015</ele>
<time>2024-01-03T12:42:17.635Z</time>
</trkpt>
<trkpt lat="30.6121600" lon="34.8047000">
<ele>822.549988</ele>
<time>2024-01-03T12:42:17.635Z</time>
</trkpt>
<trkpt lat="30.6121400" lon="34.8046100">
<ele>823.039978</ele>
<time>2024-01-03T12:42:17.635Z</time>
</trkpt>
<trkpt lat="30.6121400" lon="34.8046100">
<ele>823.039978</ele>
<time>2024-01-03T12:42:17.635Z</time>
</trkpt>
<trkpt lat="30.6121000" lon="34.8044900">
<ele>823.450012</ele>
<time>2024-01-03T12:42:17.635Z</time>
</trkpt>
<trkpt lat="30.6120800" lon="34.8044100">
<ele>823.920044</ele>
<time>2024-01-03T12:42:17.635Z</time>
</trkpt>
<trkpt lat="30.6120500" lon="34.8043400">
<ele>824.650024</ele>
<time>2024-01-03T12:42:17.635Z</time>
</trkpt>
<trkpt lat="30.6123000" lon="34.8042100">
<ele>828.300049</ele>
<time>2024-01-03T12:42:17.635Z</time>
</trkpt>
<trkpt lat="30.6124600" lon="34.8042100">
<ele>830.210022</ele>
<time>2024-01-03T12:42:17.635Z</time>
</trkpt>
<trkpt lat="30.6125100" lon="34.8042100">
<ele>830.650024</ele>
<time>2024-01-03T12:42:17.635Z</time>
</trkpt>
<trkpt lat="30.6125400" lon="34.8042200">
<ele>830.440002</ele>
<time>2024-01-03T12:42:17.635Z</time>
</trkpt>
<trkpt lat="30.6126000" lon="34.8042400">
<ele>830.020020</ele>
<time>2024-01-03T12:42:17.635Z</time>
</trkpt>
<trkpt lat="30.6126900" lon="34.8043000">
<ele>829.030029</ele>
<time>2024-01-03T12:42:17.635Z</time>
</trkpt>
<trkpt lat="30.6127600" lon="34.8043500">
<ele>828.130005</ele>
<time>2024-01-03T12:42:17.635Z</time>
</trkpt>
<trkpt lat="30.6128300" lon="34.8043800">
<ele>827.700012</ele>
<time>2024-01-03T12:42:17.635Z</time>
</trkpt>
<trkpt lat="30.6129100" lon="34.8043900">
<ele>827.589966</ele>
<time>2024-01-03T12:42:17.635Z</time>
</trkpt>
<trkpt lat="30.6129800" lon="34.8043700">
<ele>827.799988</ele>
<time>2024-01-03T12:42:17.635Z</time>
</trkpt>
<trkpt lat="30.6130600" lon="34.8043300">
<ele>828.189941</ele>
<time>2024-01-03T12:42:17.635Z</time>
</trkpt>
<trkpt lat="30.6131300" lon="34.8042700">
<ele>828.010010</ele>
<time>2024-01-03T12:42:17.635Z</time>
</trkpt>
<trkpt lat="30.6131800" lon="34.8041800">
<ele>828.109985</ele>
<time>2024-01-03T12:42:17.635Z</time>
</trkpt>
<trkpt lat="30.6132000" lon="34.8040900">
<ele>827.210022</ele>
<time>2024-01-03T12:42:17.635Z</time>
</trkpt>
<trkpt lat="30.6132100" lon="34.8039900">
<ele>826.080017</ele>
<time>2024-01-03T12:42:17.635Z</time>
</trkpt>
<trkpt lat="30.6131900" lon="34.8039000">
<ele>825.709961</ele>
<time>2024-01-03T12:42:17.635Z</time>
</trkpt>
<trkpt lat="30.6131500" lon="34.8038100">
<ele>826.049988</ele>
<time>2024-01-03T12:42:17.635Z</time>
</trkpt>
<trkpt lat="30.6131200" lon="34.8037700">
<ele>826.519958</ele>
<time>2024-01-03T12:42:17.635Z</time>
</trkpt>
<trkpt lat="30.6130900" lon="34.8037300">
<ele>826.989990</ele>
<time>2024-01-03T12:42:17.635Z</time>
</trkpt>
<trkpt lat="30.6130100" lon="34.8036800">
<ele>827.659973</ele>
<time>2024-01-03T12:42:17.635Z</time>
</trkpt>
<trkpt lat="30.6129200" lon="34.8036600">
<ele>827.840027</ele>
<time>2024-01-03T12:42:17.635Z</time>
</trkpt>
<trkpt lat="30.6128700" lon="34.8036600">
<ele>828.020020</ele>
<time>2024-01-03T12:42:17.635Z</time>
</trkpt>
<trkpt lat="30.6127500" lon="34.8036400">
<ele>828.319946</ele>
<time>2024-01-03T12:42:17.635Z</time>
</trkpt>
<trkpt lat="30.6126900" lon="34.8036200">
<ele>828.390015</ele>
<time>2024-01-03T12:42:17.635Z</time>
</trkpt>
<trkpt lat="30.6126200" lon="34.8035800">
<ele>828.229980</ele>
<time>2024-01-03T12:42:17.635Z</time>
</trkpt>
<trkpt lat="30.6126000" lon="34.8035500">
<ele>827.979980</ele>
<time>2024-01-03T12:42:17.635Z</time>
</trkpt>
<trkpt lat="30.6127000" lon="34.8034500">
<ele>826.539978</ele>
<time>2024-01-03T12:42:17.635Z</time>
</trkpt>
<trkpt lat="30.6127700" lon="34.8033800">
<ele>825.529968</ele>
<time>2024-01-03T12:42:17.635Z</time>
</trkpt>
<trkpt lat="30.6128000" lon="34.8033400">
<ele>825.070007</ele>
<time>2024-01-03T12:42:17.635Z</time>
</trkpt>
<trkpt lat="30.6129000" lon="34.8034000">
<ele>825.610046</ele>
<time>2024-01-03T12:42:17.635Z</time>
</trkpt>
<trkpt lat="30.6129400" lon="34.8034000">
<ele>825.579956</ele>
<time>2024-01-03T12:42:17.635Z</time>
</trkpt>
<trkpt lat="30.6129700" lon="34.8033900">
<ele>825.469971</ele>
<time>2024-01-03T12:42:17.635Z</time>
</trkpt>
<trkpt lat="30.6130300" lon="34.8032800">
<ele>824.979980</ele>
<time>2024-01-03T12:42:17.635Z</time>
</trkpt>
<trkpt lat="30.6130800" lon="34.8033200">
<ele>824.750000</ele>
<time>2024-01-03T12:42:17.635Z</time>
</trkpt>
<trkpt lat="30.6131100" lon="34.8033300">
<ele>824.419983</ele>
<time>2024-01-03T12:42:17.635Z</time>
</trkpt>
<trkpt lat="30.6131300" lon="34.8033300">
<ele>824.210022</ele>
<time>2024-01-03T12:42:17.635Z</time>
</trkpt>
<trkpt lat="30.6131500" lon="34.8033300">
<ele>824.000000</ele>
<time>2024-01-03T12:42:17.635Z</time>
</trkpt>
<trkpt lat="30.6131700" lon="34.8033200">
<ele>823.840027</ele>
<time>2024-01-03T12:42:17.635Z</time>
</trkpt>
<trkpt lat="30.6131900" lon="34.8033000">
<ele>823.779968</ele>
<time>2024-01-03T12:42:17.635Z</time>
</trkpt>
<trkpt lat="30.6132200" lon="34.8032900">
<ele>823.589966</ele>
<time>2024-01-03T12:42:17.635Z</time>
</trkpt>
<trkpt lat="30.6132600" lon="34.8032900">
<ele>823.250000</ele>
<time>2024-01-03T12:42:17.635Z</time>
</trkpt>
<trkpt lat="30.6134100" lon="34.8032800">
<ele>821.490051</ele>
<time>2024-01-03T12:42:17.635Z</time>
</trkpt>
<trkpt lat="30.6134100" lon="34.8034000">
<ele>820.070007</ele>
<time>2024-01-03T12:42:17.635Z</time>
</trkpt>
</trkseg>
</trk>
</gpx>
